<?xml version='1.0' encoding='UTF-8'?>
<gpx version="1.1" creator="https://www.komoot.de" xmlns="http://www.topografix.com/GPX/1/1" xmlns:xsi="http://www.w3.org/2001/XMLSchema-instance" xsi:schemaLocation="http://www.topografix.com/GPX/1/1 http://www.topografix.com/GPX/1/1/gpx.xsd">
  <metadata>
    <name>RPDT 1 Patate</name>
    <author>
      <link href="https://www.komoot.de">
        <text>komoot</text>
        <type>text/html</type>
      </link>
    </author>
  </metadata>
  <trk>
    <name>RPDT 1 Patate</name>
    <trkseg>
      <trkpt lat="48.891464" lon="2.261989">
        <ele>27.514162</ele>
        <time>2025-09-07T20:36:48.961Z</time>
      </trkpt>
      <trkpt lat="48.891465" lon="2.261989">
        <ele>27.514162</ele>
        <time>2025-09-07T20:36:48.997Z</time>
      </trkpt>
      <trkpt lat="48.891621" lon="2.262385">
        <ele>27.514162</ele>
        <time>2025-09-07T20:37:10.088Z</time>
      </trkpt>
      <trkpt lat="48.892027" lon="2.262843">
        <ele>27.514162</ele>
        <time>2025-09-07T20:37:45.220Z</time>
      </trkpt>
      <trkpt lat="48.892080" lon="2.262824">
        <ele>27.514162</ele>
        <time>2025-09-07T20:37:49.056Z</time>
      </trkpt>
      <trkpt lat="48.892130" lon="2.262890">
        <ele>27.506091</ele>
        <time>2025-09-07T20:37:51.020Z</time>
      </trkpt>
      <trkpt lat="48.892131" lon="2.262743">
        <ele>27.481200</ele>
        <time>2025-09-07T20:37:57.742Z</time>
      </trkpt>
      <trkpt lat="48.892245" lon="2.262505">
        <ele>27.431341</ele>
        <time>2025-09-07T20:38:11.224Z</time>
      </trkpt>
      <trkpt lat="48.892131" lon="2.262743">
        <ele>27.381482</ele>
        <time>2025-09-07T20:38:15.673Z</time>
      </trkpt>
      <trkpt lat="48.892130" lon="2.262890">
        <ele>27.356590</ele>
        <time>2025-09-07T20:38:17.830Z</time>
      </trkpt>
      <trkpt lat="48.892080" lon="2.262824">
        <ele>27.339540</ele>
        <time>2025-09-07T20:38:19.704Z</time>
      </trkpt>
      <trkpt lat="48.892027" lon="2.262843">
        <ele>27.325517</ele>
        <time>2025-09-07T20:38:23.539Z</time>
      </trkpt>
      <trkpt lat="48.891621" lon="2.262385">
        <ele>27.195338</ele>
        <time>2025-09-07T20:38:58.672Z</time>
      </trkpt>
      <trkpt lat="48.891190" lon="2.261292">
        <ele>27.366134</ele>
        <time>2025-09-07T20:39:56.937Z</time>
      </trkpt>
      <trkpt lat="48.890968" lon="2.260833">
        <ele>27.791925</ele>
        <time>2025-09-07T20:40:22.958Z</time>
      </trkpt>
      <trkpt lat="48.890767" lon="2.260409">
        <ele>28.182525</ele>
        <time>2025-09-07T20:40:46.855Z</time>
      </trkpt>
      <trkpt lat="48.890711" lon="2.260344">
        <ele>28.262587</ele>
        <time>2025-09-07T20:40:55.534Z</time>
      </trkpt>
      <trkpt lat="48.890368" lon="2.260761">
        <ele>28.761646</ele>
        <time>2025-09-07T20:41:09.193Z</time>
      </trkpt>
      <trkpt lat="48.890240" lon="2.260538">
        <ele>28.982850</ele>
        <time>2025-09-07T20:41:15.383Z</time>
      </trkpt>
      <trkpt lat="48.890204" lon="2.260524">
        <ele>29.025081</ele>
        <time>2025-09-07T20:41:16.673Z</time>
      </trkpt>
      <trkpt lat="48.890272" lon="2.260655">
        <ele>29.136711</ele>
        <time>2025-09-07T20:41:20.179Z</time>
      </trkpt>
      <trkpt lat="48.890240" lon="2.260694">
        <ele>29.172156</ele>
        <time>2025-09-07T20:41:21.655Z</time>
      </trkpt>
      <trkpt lat="48.890147" lon="2.260530">
        <ele>29.295240</ele>
        <time>2025-09-07T20:41:26.558Z</time>
      </trkpt>
      <trkpt lat="48.889996" lon="2.260344">
        <ele>29.463199</ele>
        <time>2025-09-07T20:41:33.552Z</time>
      </trkpt>
      <trkpt lat="48.889470" lon="2.259624">
        <ele>30.074889</ele>
        <time>2025-09-07T20:41:52.721Z</time>
      </trkpt>
      <trkpt lat="48.889434" lon="2.259580">
        <ele>30.114810</ele>
        <time>2025-09-07T20:41:53.820Z</time>
      </trkpt>
      <trkpt lat="48.889165" lon="2.259200">
        <ele>30.432154</ele>
        <time>2025-09-07T20:42:01.769Z</time>
      </trkpt>
      <trkpt lat="48.888908" lon="2.258797">
        <ele>30.641843</ele>
        <time>2025-09-07T20:42:09.745Z</time>
      </trkpt>
      <trkpt lat="48.888434" lon="2.258152">
        <ele>30.598493</ele>
        <time>2025-09-07T20:42:23.096Z</time>
      </trkpt>
      <trkpt lat="48.888094" lon="2.257704">
        <ele>30.567832</ele>
        <time>2025-09-07T20:42:32.405Z</time>
      </trkpt>
      <trkpt lat="48.887822" lon="2.257396">
        <ele>30.544719</ele>
        <time>2025-09-07T20:42:39.939Z</time>
      </trkpt>
      <trkpt lat="48.887496" lon="2.257030">
        <ele>30.562815</ele>
        <time>2025-09-07T20:42:50.858Z</time>
      </trkpt>
      <trkpt lat="48.887484" lon="2.256979">
        <ele>30.571324</ele>
        <time>2025-09-07T20:42:51.843Z</time>
      </trkpt>
      <trkpt lat="48.887297" lon="2.256772">
        <ele>30.626583</ele>
        <time>2025-09-07T20:42:58.778Z</time>
      </trkpt>
      <trkpt lat="48.886401" lon="2.256093">
        <ele>30.865754</ele>
        <time>2025-09-07T20:43:25.785Z</time>
      </trkpt>
      <trkpt lat="48.885997" lon="2.255811">
        <ele>30.878080</ele>
        <time>2025-09-07T20:43:34.443Z</time>
      </trkpt>
      <trkpt lat="48.885284" lon="2.255286">
        <ele>29.881932</ele>
        <time>2025-09-07T20:43:48.374Z</time>
      </trkpt>
      <trkpt lat="48.884967" lon="2.255111">
        <ele>29.457859</ele>
        <time>2025-09-07T20:43:54.519Z</time>
      </trkpt>
      <trkpt lat="48.884937" lon="2.255101">
        <ele>29.419239</ele>
        <time>2025-09-07T20:43:55.090Z</time>
      </trkpt>
      <trkpt lat="48.884723" lon="2.254984">
        <ele>29.133276</ele>
        <time>2025-09-07T20:43:59.426Z</time>
      </trkpt>
      <trkpt lat="48.884308" lon="2.254753">
        <ele>28.828880</ele>
        <time>2025-09-07T20:44:10.160Z</time>
      </trkpt>
      <trkpt lat="48.884244" lon="2.254743">
        <ele>28.920798</ele>
        <time>2025-09-07T20:44:12.075Z</time>
      </trkpt>
      <trkpt lat="48.883701" lon="2.254282">
        <ele>29.809291</ele>
        <time>2025-09-07T20:44:31.937Z</time>
      </trkpt>
      <trkpt lat="48.883398" lon="2.254010">
        <ele>30.311985</ele>
        <time>2025-09-07T20:44:44.856Z</time>
      </trkpt>
      <trkpt lat="48.882922" lon="2.253597">
        <ele>31.094953</ele>
        <time>2025-09-07T20:45:01.673Z</time>
      </trkpt>
      <trkpt lat="48.882390" lon="2.253145">
        <ele>31.212915</ele>
        <time>2025-09-07T20:45:16.002Z</time>
      </trkpt>
      <trkpt lat="48.881513" lon="2.252385">
        <ele>31.105858</ele>
        <time>2025-09-07T20:45:37.444Z</time>
      </trkpt>
      <trkpt lat="48.880676" lon="2.251519">
        <ele>30.976482</ele>
        <time>2025-09-07T20:45:58.218Z</time>
      </trkpt>
      <trkpt lat="48.880077" lon="2.250780">
        <ele>30.870887</ele>
        <time>2025-09-07T20:46:16.667Z</time>
      </trkpt>
      <trkpt lat="48.880043" lon="2.250737">
        <ele>30.864833</ele>
        <time>2025-09-07T20:46:17.753Z</time>
      </trkpt>
      <trkpt lat="48.879423" lon="2.249955">
        <ele>30.508145</ele>
        <time>2025-09-07T20:46:35.611Z</time>
      </trkpt>
      <trkpt lat="48.878549" lon="2.248810">
        <ele>29.819890</ele>
        <time>2025-09-07T20:46:58.656Z</time>
      </trkpt>
      <trkpt lat="48.877929" lon="2.248079">
        <ele>29.445206</ele>
        <time>2025-09-07T20:47:14.654Z</time>
      </trkpt>
      <trkpt lat="48.877721" lon="2.247823">
        <ele>29.322542</ele>
        <time>2025-09-07T20:47:20.357Z</time>
      </trkpt>
      <trkpt lat="48.877716" lon="2.247737">
        <ele>29.296515</ele>
        <time>2025-09-07T20:47:21.529Z</time>
      </trkpt>
      <trkpt lat="48.877512" lon="2.247477">
        <ele>29.174500</ele>
        <time>2025-09-07T20:47:27.326Z</time>
      </trkpt>
      <trkpt lat="48.876977" lon="2.246945">
        <ele>28.900154</ele>
        <time>2025-09-07T20:47:41.542Z</time>
      </trkpt>
      <trkpt lat="48.876466" lon="2.246473">
        <ele>28.730676</ele>
        <time>2025-09-07T20:47:54.084Z</time>
      </trkpt>
      <trkpt lat="48.876357" lon="2.246297">
        <ele>28.685607</ele>
        <time>2025-09-07T20:47:57.429Z</time>
      </trkpt>
      <trkpt lat="48.876332" lon="2.246183">
        <ele>28.663204</ele>
        <time>2025-09-07T20:47:59.072Z</time>
      </trkpt>
      <trkpt lat="48.876339" lon="2.246168">
        <ele>28.659776</ele>
        <time>2025-09-07T20:47:59.339Z</time>
      </trkpt>
      <trkpt lat="48.876299" lon="2.246130">
        <ele>28.646406</ele>
        <time>2025-09-07T20:48:02.649Z</time>
      </trkpt>
      <trkpt lat="48.876282" lon="2.246114">
        <ele>28.640739</ele>
        <time>2025-09-07T20:48:04.047Z</time>
      </trkpt>
      <trkpt lat="48.876246" lon="2.246080">
        <ele>28.628726</ele>
        <time>2025-09-07T20:48:06.940Z</time>
      </trkpt>
      <trkpt lat="48.876236" lon="2.246106">
        <ele>28.623111</ele>
        <time>2025-09-07T20:48:07.354Z</time>
      </trkpt>
      <trkpt lat="48.876150" lon="2.246149">
        <ele>28.597450</ele>
        <time>2025-09-07T20:48:09.276Z</time>
      </trkpt>
      <trkpt lat="48.876171" lon="2.246089">
        <ele>28.584779</ele>
        <time>2025-09-07T20:48:10.199Z</time>
      </trkpt>
      <trkpt lat="48.876174" lon="2.246082">
        <ele>28.583221</ele>
        <time>2025-09-07T20:48:10.312Z</time>
      </trkpt>
      <trkpt lat="48.876060" lon="2.246067">
        <ele>28.550786</ele>
        <time>2025-09-07T20:48:18.285Z</time>
      </trkpt>
      <trkpt lat="48.875356" lon="2.245536">
        <ele>28.467247</ele>
        <time>2025-09-07T20:49:12.898Z</time>
      </trkpt>
      <trkpt lat="48.875326" lon="2.245502">
        <ele>28.472594</ele>
        <time>2025-09-07T20:49:13.841Z</time>
      </trkpt>
      <trkpt lat="48.875307" lon="2.245454">
        <ele>28.477860</ele>
        <time>2025-09-07T20:49:18.378Z</time>
      </trkpt>
      <trkpt lat="48.875272" lon="2.245361">
        <ele>28.487932</ele>
        <time>2025-09-07T20:49:20.140Z</time>
      </trkpt>
      <trkpt lat="48.874665" lon="2.244825">
        <ele>28.588250</ele>
        <time>2025-09-07T20:49:38.130Z</time>
      </trkpt>
      <trkpt lat="48.873526" lon="2.243591">
        <ele>28.774506</ele>
        <time>2025-09-07T20:50:14.657Z</time>
      </trkpt>
      <trkpt lat="48.872942" lon="2.243062">
        <ele>28.859681</ele>
        <time>2025-09-07T20:50:31.682Z</time>
      </trkpt>
      <trkpt lat="48.872748" lon="2.242931">
        <ele>28.886278</ele>
        <time>2025-09-07T20:50:36.917Z</time>
      </trkpt>
      <trkpt lat="48.872641" lon="2.242890">
        <ele>28.900104</ele>
        <time>2025-09-07T20:50:39.641Z</time>
      </trkpt>
      <trkpt lat="48.872533" lon="2.242725">
        <ele>28.920147</ele>
        <time>2025-09-07T20:50:43.401Z</time>
      </trkpt>
      <trkpt lat="48.872499" lon="2.242619">
        <ele>28.930379</ele>
        <time>2025-09-07T20:50:45.313Z</time>
      </trkpt>
      <trkpt lat="48.872473" lon="2.242118">
        <ele>28.973980</ele>
        <time>2025-09-07T20:50:53.553Z</time>
      </trkpt>
      <trkpt lat="48.872437" lon="2.241949">
        <ele>28.989392</ele>
        <time>2025-09-07T20:50:56.511Z</time>
      </trkpt>
      <trkpt lat="48.872069" lon="2.241320">
        <ele>29.062429</ele>
        <time>2025-09-07T20:51:10.723Z</time>
      </trkpt>
      <trkpt lat="48.871683" lon="2.240576">
        <ele>29.133705</ele>
        <time>2025-09-07T20:51:27.074Z</time>
      </trkpt>
      <trkpt lat="48.871470" lon="2.240093">
        <ele>29.058588</ele>
        <time>2025-09-07T20:51:36.691Z</time>
      </trkpt>
      <trkpt lat="48.871204" lon="2.239352">
        <ele>28.949540</ele>
        <time>2025-09-07T20:51:49.991Z</time>
      </trkpt>
      <trkpt lat="48.870817" lon="2.238063">
        <ele>28.756120</ele>
        <time>2025-09-07T20:52:12.027Z</time>
      </trkpt>
      <trkpt lat="48.870626" lon="2.237350">
        <ele>28.606307</ele>
        <time>2025-09-07T20:52:24.093Z</time>
      </trkpt>
      <trkpt lat="48.870373" lon="2.236231">
        <ele>28.376046</ele>
        <time>2025-09-07T20:52:43.065Z</time>
      </trkpt>
      <trkpt lat="48.870327" lon="2.236180">
        <ele>28.359202</ele>
        <time>2025-09-07T20:52:44.435Z</time>
      </trkpt>
      <trkpt lat="48.870270" lon="2.236177">
        <ele>28.342329</ele>
        <time>2025-09-07T20:52:45.824Z</time>
      </trkpt>
      <trkpt lat="48.869951" lon="2.236347">
        <ele>28.241349</ele>
        <time>2025-09-07T20:52:53.697Z</time>
      </trkpt>
      <trkpt lat="48.869729" lon="2.235297">
        <ele>28.010075</ele>
        <time>2025-09-07T20:53:10.431Z</time>
      </trkpt>
      <trkpt lat="48.869920" lon="2.235152">
        <ele>27.942015</ele>
        <time>2025-09-07T20:53:15.370Z</time>
      </trkpt>
      <trkpt lat="48.869937" lon="2.235085">
        <ele>27.926957</ele>
        <time>2025-09-07T20:53:21.198Z</time>
      </trkpt>
      <trkpt lat="48.869425" lon="2.234020">
        <ele>27.771068</ele>
        <time>2025-09-07T20:53:40.018Z</time>
      </trkpt>
      <trkpt lat="48.869103" lon="2.233466">
        <ele>28.216992</ele>
        <time>2025-09-07T20:53:52.199Z</time>
      </trkpt>
      <trkpt lat="48.868710" lon="2.232867">
        <ele>28.727299</ele>
        <time>2025-09-07T20:54:07.006Z</time>
      </trkpt>
      <trkpt lat="48.867838" lon="2.231795">
        <ele>29.928025</ele>
        <time>2025-09-07T20:54:40.556Z</time>
      </trkpt>
      <trkpt lat="48.867678" lon="2.231680">
        <ele>30.156166</ele>
        <time>2025-09-07T20:54:46.230Z</time>
      </trkpt>
      <trkpt lat="48.867624" lon="2.231656">
        <ele>30.228690</ele>
        <time>2025-09-07T20:54:48.062Z</time>
      </trkpt>
      <trkpt lat="48.867510" lon="2.231669">
        <ele>30.376056</ele>
        <time>2025-09-07T20:54:51.707Z</time>
      </trkpt>
      <trkpt lat="48.867388" lon="2.231613">
        <ele>30.540335</ele>
        <time>2025-09-07T20:54:55.791Z</time>
      </trkpt>
      <trkpt lat="48.867316" lon="2.231641">
        <ele>30.636137</ele>
        <time>2025-09-07T20:54:58.112Z</time>
      </trkpt>
      <trkpt lat="48.867282" lon="2.231705">
        <ele>30.705894</ele>
        <time>2025-09-07T20:54:59.783Z</time>
      </trkpt>
      <trkpt lat="48.867088" lon="2.232095">
        <ele>31.120508</ele>
        <time>2025-09-07T20:55:09.130Z</time>
      </trkpt>
      <trkpt lat="48.867052" lon="2.232019">
        <ele>31.199923</ele>
        <time>2025-09-07T20:55:11.735Z</time>
      </trkpt>
      <trkpt lat="48.866933" lon="2.231822">
        <ele>31.426719</ele>
        <time>2025-09-07T20:55:33.463Z</time>
      </trkpt>
      <trkpt lat="48.866888" lon="2.231755">
        <ele>31.507914</ele>
        <time>2025-09-07T20:55:35.248Z</time>
      </trkpt>
      <trkpt lat="48.866757" lon="2.231569">
        <ele>31.593911</ele>
        <time>2025-09-07T20:55:40.013Z</time>
      </trkpt>
      <trkpt lat="48.866673" lon="2.231449">
        <ele>31.501877</ele>
        <time>2025-09-07T20:55:42.906Z</time>
      </trkpt>
      <trkpt lat="48.866574" lon="2.231396">
        <ele>31.418074</ele>
        <time>2025-09-07T20:55:45.449Z</time>
      </trkpt>
      <trkpt lat="48.866564" lon="2.231400">
        <ele>31.409818</ele>
        <time>2025-09-07T20:55:45.685Z</time>
      </trkpt>
      <trkpt lat="48.866467" lon="2.231441">
        <ele>31.329433</ele>
        <time>2025-09-07T20:55:48.049Z</time>
      </trkpt>
      <trkpt lat="48.866358" lon="2.231799">
        <ele>31.122240</ele>
        <time>2025-09-07T20:55:53.448Z</time>
      </trkpt>
      <trkpt lat="48.866202" lon="2.232298">
        <ele>30.832063</ele>
        <time>2025-09-07T20:56:00.676Z</time>
      </trkpt>
      <trkpt lat="48.865990" lon="2.232857">
        <ele>30.493165</ele>
        <time>2025-09-07T20:56:08.605Z</time>
      </trkpt>
      <trkpt lat="48.865434" lon="2.234052">
        <ele>29.689581</ele>
        <time>2025-09-07T20:56:27.241Z</time>
      </trkpt>
      <trkpt lat="48.865238" lon="2.234466">
        <ele>29.402601</ele>
        <time>2025-09-07T20:56:33.863Z</time>
      </trkpt>
      <trkpt lat="48.865211" lon="2.234432">
        <ele>29.372615</ele>
        <time>2025-09-07T20:56:36.289Z</time>
      </trkpt>
      <trkpt lat="48.865180" lon="2.234396">
        <ele>29.339250</ele>
        <time>2025-09-07T20:56:39.033Z</time>
      </trkpt>
      <trkpt lat="48.865150" lon="2.234362">
        <ele>29.307245</ele>
        <time>2025-09-07T20:56:41.611Z</time>
      </trkpt>
      <trkpt lat="48.865114" lon="2.234317">
        <ele>29.267382</ele>
        <time>2025-09-07T20:56:44.872Z</time>
      </trkpt>
      <trkpt lat="48.865067" lon="2.234261">
        <ele>29.216308</ele>
        <time>2025-09-07T20:56:49.014Z</time>
      </trkpt>
      <trkpt lat="48.865023" lon="2.234207">
        <ele>29.167942</ele>
        <time>2025-09-07T20:56:52.936Z</time>
      </trkpt>
      <trkpt lat="48.864944" lon="2.234240">
        <ele>29.097870</ele>
        <time>2025-09-07T20:56:58.684Z</time>
      </trkpt>
      <trkpt lat="48.864906" lon="2.234110">
        <ele>29.017832</ele>
        <time>2025-09-07T20:57:05.188Z</time>
      </trkpt>
      <trkpt lat="48.864914" lon="2.233824">
        <ele>28.856773</ele>
        <time>2025-09-07T20:57:18.264Z</time>
      </trkpt>
      <trkpt lat="48.864913" lon="2.233733">
        <ele>28.805566</ele>
        <time>2025-09-07T20:57:20.455Z</time>
      </trkpt>
      <trkpt lat="48.864915" lon="2.233328">
        <ele>28.689376</ele>
        <time>2025-09-07T20:57:26.997Z</time>
      </trkpt>
      <trkpt lat="48.864916" lon="2.233239">
        <ele>28.696794</ele>
        <time>2025-09-07T20:57:28.502Z</time>
      </trkpt>
      <trkpt lat="48.864967" lon="2.233029">
        <ele>28.715448</ele>
        <time>2025-09-07T20:57:32.166Z</time>
      </trkpt>
      <trkpt lat="48.865204" lon="2.232715">
        <ele>28.755273</ele>
        <time>2025-09-07T20:57:39.955Z</time>
      </trkpt>
      <trkpt lat="48.865267" lon="2.232568">
        <ele>28.769893</ele>
        <time>2025-09-07T20:57:44.287Z</time>
      </trkpt>
      <trkpt lat="48.865311" lon="2.232329">
        <ele>28.790575</ele>
        <time>2025-09-07T20:57:50.569Z</time>
      </trkpt>
      <trkpt lat="48.865293" lon="2.232187">
        <ele>28.802626</ele>
        <time>2025-09-07T20:57:54.283Z</time>
      </trkpt>
      <trkpt lat="48.865200" lon="2.232039">
        <ele>28.819682</ele>
        <time>2025-09-07T20:57:59.516Z</time>
      </trkpt>
      <trkpt lat="48.864979" lon="2.231897">
        <ele>28.850075</ele>
        <time>2025-09-07T20:58:08.793Z</time>
      </trkpt>
      <trkpt lat="48.864481" lon="2.231487">
        <ele>28.933530</ele>
        <time>2025-09-07T20:58:30.655Z</time>
      </trkpt>
      <trkpt lat="48.864363" lon="2.231322">
        <ele>28.966356</ele>
        <time>2025-09-07T20:58:36.739Z</time>
      </trkpt>
      <trkpt lat="48.864277" lon="2.231202">
        <ele>28.990258</ele>
        <time>2025-09-07T20:58:41.130Z</time>
      </trkpt>
      <trkpt lat="48.863788" lon="2.230870">
        <ele>29.099910</ele>
        <time>2025-09-07T20:59:01.359Z</time>
      </trkpt>
      <trkpt lat="48.863570" lon="2.230688">
        <ele>29.150833</ele>
        <time>2025-09-07T20:59:10.780Z</time>
      </trkpt>
      <trkpt lat="48.863396" lon="2.230406">
        <ele>29.202908</ele>
        <time>2025-09-07T20:59:20.471Z</time>
      </trkpt>
      <trkpt lat="48.863246" lon="2.230285">
        <ele>29.237676</ele>
        <time>2025-09-07T20:59:26.999Z</time>
      </trkpt>
      <trkpt lat="48.863158" lon="2.230223">
        <ele>29.257535</ele>
        <time>2025-09-07T20:59:30.764Z</time>
      </trkpt>
      <trkpt lat="48.862915" lon="2.230225">
        <ele>29.227896</ele>
        <time>2025-09-07T20:59:40.150Z</time>
      </trkpt>
      <trkpt lat="48.862272" lon="2.229675">
        <ele>29.047765</ele>
        <time>2025-09-07T21:00:08.241Z</time>
      </trkpt>
      <trkpt lat="48.862251" lon="2.229601">
        <ele>29.034821</ele>
        <time>2025-09-07T21:00:10.167Z</time>
      </trkpt>
      <trkpt lat="48.862246" lon="2.229584">
        <ele>29.031830</ele>
        <time>2025-09-07T21:00:10.986Z</time>
      </trkpt>
      <trkpt lat="48.862347" lon="2.229531">
        <ele>29.005744</ele>
        <time>2025-09-07T21:00:18.385Z</time>
      </trkpt>
      <trkpt lat="48.862360" lon="2.229456">
        <ele>28.993286</ele>
        <time>2025-09-07T21:00:21.926Z</time>
      </trkpt>
      <trkpt lat="48.862386" lon="2.229314">
        <ele>28.969612</ele>
        <time>2025-09-07T21:00:28.680Z</time>
      </trkpt>
      <trkpt lat="48.862243" lon="2.229219">
        <ele>28.931511</ele>
        <time>2025-09-07T21:00:31.889Z</time>
      </trkpt>
      <trkpt lat="48.862125" lon="2.229148">
        <ele>28.900528</ele>
        <time>2025-09-07T21:00:34.463Z</time>
      </trkpt>
      <trkpt lat="48.861902" lon="2.229019">
        <ele>28.842275</ele>
        <time>2025-09-07T21:00:39.255Z</time>
      </trkpt>
      <trkpt lat="48.861950" lon="2.228826">
        <ele>28.782470</ele>
        <time>2025-09-07T21:00:42.914Z</time>
      </trkpt>
      <trkpt lat="48.861993" lon="2.228651">
        <ele>28.717402</ele>
        <time>2025-09-07T21:00:46.216Z</time>
      </trkpt>
      <trkpt lat="48.862034" lon="2.228485">
        <ele>28.655641</ele>
        <time>2025-09-07T21:00:49.350Z</time>
      </trkpt>
      <trkpt lat="48.861938" lon="2.228436">
        <ele>28.602025</ele>
        <time>2025-09-07T21:00:52.064Z</time>
      </trkpt>
      <trkpt lat="48.861796" lon="2.228363">
        <ele>28.522659</ele>
        <time>2025-09-07T21:00:56.111Z</time>
      </trkpt>
      <trkpt lat="48.861610" lon="2.228296">
        <ele>28.421453</ele>
        <time>2025-09-07T21:01:01.347Z</time>
      </trkpt>
      <trkpt lat="48.861596" lon="2.228213">
        <ele>28.391607</ele>
        <time>2025-09-07T21:01:03.329Z</time>
      </trkpt>
      <trkpt lat="48.861497" lon="2.228184">
        <ele>28.338227</ele>
        <time>2025-09-07T21:01:06.918Z</time>
      </trkpt>
      <trkpt lat="48.861419" lon="2.228030">
        <ele>28.270530</ele>
        <time>2025-09-07T21:01:11.506Z</time>
      </trkpt>
      <trkpt lat="48.861249" lon="2.227997">
        <ele>28.179792</ele>
        <time>2025-09-07T21:01:15.617Z</time>
      </trkpt>
      <trkpt lat="48.860889" lon="2.227884">
        <ele>27.985167</ele>
        <time>2025-09-07T21:01:24.515Z</time>
      </trkpt>
      <trkpt lat="48.860605" lon="2.227736">
        <ele>27.837400</ele>
        <time>2025-09-07T21:01:31.835Z</time>
      </trkpt>
      <trkpt lat="48.860511" lon="2.227583">
        <ele>27.779750</ele>
        <time>2025-09-07T21:01:35.165Z</time>
      </trkpt>
      <trkpt lat="48.860371" lon="2.227512">
        <ele>27.717972</ele>
        <time>2025-09-07T21:01:38.700Z</time>
      </trkpt>
      <trkpt lat="48.859727" lon="2.227227">
        <ele>27.437206</ele>
        <time>2025-09-07T21:01:54.543Z</time>
      </trkpt>
      <trkpt lat="48.859343" lon="2.227021">
        <ele>27.266749</ele>
        <time>2025-09-07T21:02:03.908Z</time>
      </trkpt>
      <trkpt lat="48.859155" lon="2.226910">
        <ele>27.182325</ele>
        <time>2025-09-07T21:02:08.463Z</time>
      </trkpt>
      <trkpt lat="48.858611" lon="2.226690">
        <ele>27.137532</ele>
        <time>2025-09-07T21:02:21.582Z</time>
      </trkpt>
      <trkpt lat="48.857873" lon="2.226288">
        <ele>27.157170</ele>
        <time>2025-09-07T21:02:41.650Z</time>
      </trkpt>
      <trkpt lat="48.856586" lon="2.225727">
        <ele>27.126172</ele>
        <time>2025-09-07T21:03:16.776Z</time>
      </trkpt>
      <trkpt lat="48.856345" lon="2.225590">
        <ele>27.110605</ele>
        <time>2025-09-07T21:03:23.005Z</time>
      </trkpt>
      <trkpt lat="48.855498" lon="2.225404">
        <ele>27.068173</ele>
        <time>2025-09-07T21:03:43.380Z</time>
      </trkpt>
      <trkpt lat="48.854864" lon="2.225319">
        <ele>27.116064</ele>
        <time>2025-09-07T21:03:58.655Z</time>
      </trkpt>
      <trkpt lat="48.854412" lon="2.225318">
        <ele>27.150076</ele>
        <time>2025-09-07T21:04:10.145Z</time>
      </trkpt>
      <trkpt lat="48.853895" lon="2.225426">
        <ele>27.189344</ele>
        <time>2025-09-07T21:04:24.371Z</time>
      </trkpt>
      <trkpt lat="48.853506" lon="2.225710">
        <ele>27.567767</ele>
        <time>2025-09-07T21:04:35.444Z</time>
      </trkpt>
      <trkpt lat="48.853436" lon="2.225854">
        <ele>27.707225</ele>
        <time>2025-09-07T21:04:38.577Z</time>
      </trkpt>
      <trkpt lat="48.853212" lon="2.226166">
        <ele>28.066921</ele>
        <time>2025-09-07T21:04:46.837Z</time>
      </trkpt>
      <trkpt lat="48.853230" lon="2.225932">
        <ele>28.250435</ele>
        <time>2025-09-07T21:04:50.782Z</time>
      </trkpt>
      <trkpt lat="48.853211" lon="2.225790">
        <ele>28.363308</ele>
        <time>2025-09-07T21:04:53.241Z</time>
      </trkpt>
      <trkpt lat="48.853155" lon="2.225702">
        <ele>28.458668</ele>
        <time>2025-09-07T21:04:55.367Z</time>
      </trkpt>
      <trkpt lat="48.853019" lon="2.225662">
        <ele>28.622655</ele>
        <time>2025-09-07T21:04:59.069Z</time>
      </trkpt>
      <trkpt lat="48.852833" lon="2.222367">
        <ele>34.276361</ele>
        <time>2025-09-07T21:07:30.346Z</time>
      </trkpt>
      <trkpt lat="48.852735" lon="2.220624">
        <ele>41.679842</ele>
        <time>2025-09-07T21:08:50.459Z</time>
      </trkpt>
      <trkpt lat="48.852735" lon="2.220624">
        <ele>41.679842</ele>
        <time>2025-09-07T21:08:50.473Z</time>
      </trkpt>
      <trkpt lat="48.852735" lon="2.220624">
        <ele>41.679842</ele>
        <time>2025-09-07T21:08:50.473Z</time>
      </trkpt>
      <trkpt lat="48.852707" lon="2.219950">
        <ele>44.880827</ele>
        <time>2025-09-07T21:09:01.995Z</time>
      </trkpt>
      <trkpt lat="48.852701" lon="2.219876">
        <ele>45.234225</ele>
        <time>2025-09-07T21:09:03.268Z</time>
      </trkpt>
      <trkpt lat="48.852375" lon="2.219920">
        <ele>47.591769</ele>
        <time>2025-09-07T21:09:11.756Z</time>
      </trkpt>
      <trkpt lat="48.852273" lon="2.219970">
        <ele>48.439371</ele>
        <time>2025-09-07T21:09:14.537Z</time>
      </trkpt>
      <trkpt lat="48.852260" lon="2.219923">
        <ele>48.721766</ele>
        <time>2025-09-07T21:09:15.407Z</time>
      </trkpt>
      <trkpt lat="48.852215" lon="2.219893">
        <ele>49.135410</ele>
        <time>2025-09-07T21:09:16.681Z</time>
      </trkpt>
      <trkpt lat="48.852165" lon="2.219955">
        <ele>49.678623</ele>
        <time>2025-09-07T21:09:18.357Z</time>
      </trkpt>
      <trkpt lat="48.851851" lon="2.219914">
        <ele>52.331543</ele>
        <time>2025-09-07T21:09:26.530Z</time>
      </trkpt>
      <trkpt lat="48.851797" lon="2.219909">
        <ele>52.786946</ele>
        <time>2025-09-07T21:09:27.932Z</time>
      </trkpt>
      <trkpt lat="48.851286" lon="2.219849">
        <ele>57.101251</ele>
        <time>2025-09-07T21:09:41.224Z</time>
      </trkpt>
      <trkpt lat="48.851287" lon="2.219835">
        <ele>57.179253</ele>
        <time>2025-09-07T21:09:41.460Z</time>
      </trkpt>
      <trkpt lat="48.850913" lon="2.219749">
        <ele>60.363337</ele>
        <time>2025-09-07T21:10:06.026Z</time>
      </trkpt>
      <trkpt lat="48.850628" lon="2.219603">
        <ele>62.895042</ele>
        <time>2025-09-07T21:10:25.442Z</time>
      </trkpt>
      <trkpt lat="48.850381" lon="2.219455">
        <ele>64.420038</ele>
        <time>2025-09-07T21:10:42.297Z</time>
      </trkpt>
      <trkpt lat="48.850119" lon="2.219298">
        <ele>65.979203</ele>
        <time>2025-09-07T21:10:58.957Z</time>
      </trkpt>
      <trkpt lat="48.849948" lon="2.219196">
        <ele>66.996200</ele>
        <time>2025-09-07T21:11:08.888Z</time>
      </trkpt>
      <trkpt lat="48.849577" lon="2.219046">
        <ele>69.121564</ele>
        <time>2025-09-07T21:11:27.957Z</time>
      </trkpt>
      <trkpt lat="48.849499" lon="2.219045">
        <ele>69.553400</ele>
        <time>2025-09-07T21:11:31.680Z</time>
      </trkpt>
      <trkpt lat="48.849447" lon="2.219049">
        <ele>69.841649</ele>
        <time>2025-09-07T21:11:33.964Z</time>
      </trkpt>
      <trkpt lat="48.849421" lon="2.218951">
        <ele>70.226589</ele>
        <time>2025-09-07T21:11:37.571Z</time>
      </trkpt>
      <trkpt lat="48.849110" lon="2.218826">
        <ele>72.007538</ele>
        <time>2025-09-07T21:11:51.589Z</time>
      </trkpt>
      <trkpt lat="48.848574" lon="2.218753">
        <ele>73.309630</ele>
        <time>2025-09-07T21:12:10.448Z</time>
      </trkpt>
      <trkpt lat="48.848609" lon="2.218618">
        <ele>73.388931</ele>
        <time>2025-09-07T21:12:13.513Z</time>
      </trkpt>
      <trkpt lat="48.848594" lon="2.218520">
        <ele>73.443921</ele>
        <time>2025-09-07T21:12:15.260Z</time>
      </trkpt>
      <trkpt lat="48.848534" lon="2.218424">
        <ele>73.516280</ele>
        <time>2025-09-07T21:12:17.951Z</time>
      </trkpt>
      <trkpt lat="48.848453" lon="2.218474">
        <ele>73.588891</ele>
        <time>2025-09-07T21:12:20.122Z</time>
      </trkpt>
      <trkpt lat="48.847969" lon="2.218605">
        <ele>73.997191</ele>
        <time>2025-09-07T21:12:32.005Z</time>
      </trkpt>
      <trkpt lat="48.847375" lon="2.218553">
        <ele>74.491340</ele>
        <time>2025-09-07T21:12:44.272Z</time>
      </trkpt>
      <trkpt lat="48.847056" lon="2.218544">
        <ele>74.600858</ele>
        <time>2025-09-07T21:12:50.736Z</time>
      </trkpt>
      <trkpt lat="48.846331" lon="2.218663">
        <ele>74.828193</ele>
        <time>2025-09-07T21:13:07.197Z</time>
      </trkpt>
      <trkpt lat="48.846105" lon="2.218700">
        <ele>74.899057</ele>
        <time>2025-09-07T21:13:13.171Z</time>
      </trkpt>
      <trkpt lat="48.845970" lon="2.218750">
        <ele>74.942376</ele>
        <time>2025-09-07T21:13:16.896Z</time>
      </trkpt>
      <trkpt lat="48.845899" lon="2.218754">
        <ele>74.964526</ele>
        <time>2025-09-07T21:13:18.634Z</time>
      </trkpt>
      <trkpt lat="48.845784" lon="2.218767">
        <ele>75.000477</ele>
        <time>2025-09-07T21:13:21.752Z</time>
      </trkpt>
      <trkpt lat="48.845457" lon="2.218809">
        <ele>75.124466</ele>
        <time>2025-09-07T21:13:30.657Z</time>
      </trkpt>
      <trkpt lat="48.845364" lon="2.218774">
        <ele>75.173043</ele>
        <time>2025-09-07T21:13:33.398Z</time>
      </trkpt>
      <trkpt lat="48.844636" lon="2.218741">
        <ele>75.542312</ele>
        <time>2025-09-07T21:13:54.970Z</time>
      </trkpt>
      <trkpt lat="48.844492" lon="2.218708">
        <ele>75.616147</ele>
        <time>2025-09-07T21:13:59.133Z</time>
      </trkpt>
      <trkpt lat="48.844437" lon="2.218668">
        <ele>75.647062</ele>
        <time>2025-09-07T21:14:00.709Z</time>
      </trkpt>
      <trkpt lat="48.844359" lon="2.218590">
        <ele>75.694405</ele>
        <time>2025-09-07T21:14:02.806Z</time>
      </trkpt>
      <trkpt lat="48.844331" lon="2.218570">
        <ele>75.710092</ele>
        <time>2025-09-07T21:14:03.471Z</time>
      </trkpt>
      <trkpt lat="48.843933" lon="2.218332">
        <ele>75.926946</ele>
        <time>2025-09-07T21:14:12.054Z</time>
      </trkpt>
      <trkpt lat="48.843716" lon="2.218202">
        <ele>75.875609</ele>
        <time>2025-09-07T21:14:16.693Z</time>
      </trkpt>
      <trkpt lat="48.843578" lon="2.218126">
        <ele>75.756182</ele>
        <time>2025-09-07T21:14:19.604Z</time>
      </trkpt>
      <trkpt lat="48.842982" lon="2.218050">
        <ele>75.269556</ele>
        <time>2025-09-07T21:14:32.059Z</time>
      </trkpt>
      <trkpt lat="48.842596" lon="2.218034">
        <ele>74.955379</ele>
        <time>2025-09-07T21:14:39.751Z</time>
      </trkpt>
      <trkpt lat="48.841578" lon="2.217766">
        <ele>75.554467</ele>
        <time>2025-09-07T21:15:00.072Z</time>
      </trkpt>
      <trkpt lat="48.841324" lon="2.217640">
        <ele>76.115821</ele>
        <time>2025-09-07T21:15:07.274Z</time>
      </trkpt>
      <trkpt lat="48.840798" lon="2.217509">
        <ele>77.235653</ele>
        <time>2025-09-07T21:15:44.333Z</time>
      </trkpt>
      <trkpt lat="48.840749" lon="2.217497">
        <ele>77.339927</ele>
        <time>2025-09-07T21:15:46.447Z</time>
      </trkpt>
      <trkpt lat="48.840695" lon="2.217356">
        <ele>77.565498</ele>
        <time>2025-09-07T21:15:51.112Z</time>
      </trkpt>
      <trkpt lat="48.840624" lon="2.217287">
        <ele>77.742566</ele>
        <time>2025-09-07T21:15:54.706Z</time>
      </trkpt>
      <trkpt lat="48.840550" lon="2.217194">
        <ele>77.944325</ele>
        <time>2025-09-07T21:15:59.123Z</time>
      </trkpt>
      <trkpt lat="48.840102" lon="2.216752">
        <ele>80.707749</ele>
        <time>2025-09-07T21:16:26.317Z</time>
      </trkpt>
      <trkpt lat="48.840317" lon="2.216597">
        <ele>82.271860</ele>
        <time>2025-09-07T21:16:40.788Z</time>
      </trkpt>
      <trkpt lat="48.840119" lon="2.216495">
        <ele>83.645999</ele>
        <time>2025-09-07T21:16:54.473Z</time>
      </trkpt>
      <trkpt lat="48.839791" lon="2.216404">
        <ele>85.837455</ele>
        <time>2025-09-07T21:17:15.235Z</time>
      </trkpt>
      <trkpt lat="48.839732" lon="2.216304">
        <ele>86.418408</ele>
        <time>2025-09-07T21:17:21.910Z</time>
      </trkpt>
      <trkpt lat="48.839788" lon="2.216212">
        <ele>86.960496</ele>
        <time>2025-09-07T21:17:28.135Z</time>
      </trkpt>
      <trkpt lat="48.839965" lon="2.216230">
        <ele>88.126447</ele>
        <time>2025-09-07T21:17:39.135Z</time>
      </trkpt>
      <trkpt lat="48.839955" lon="2.215781">
        <ele>90.069864</ele>
        <time>2025-09-07T21:17:55.276Z</time>
      </trkpt>
      <trkpt lat="48.839928" lon="2.214655">
        <ele>90.735260</ele>
        <time>2025-09-07T21:18:27.683Z</time>
      </trkpt>
      <trkpt lat="48.839917" lon="2.213757">
        <ele>91.232742</ele>
        <time>2025-09-07T21:18:41.318Z</time>
      </trkpt>
      <trkpt lat="48.839913" lon="2.213359">
        <ele>91.453217</ele>
        <time>2025-09-07T21:18:46.135Z</time>
      </trkpt>
      <trkpt lat="48.838153" lon="2.211806">
        <ele>84.008816</ele>
        <time>2025-09-07T21:19:45.312Z</time>
      </trkpt>
      <trkpt lat="48.838140" lon="2.211521">
        <ele>83.969109</ele>
        <time>2025-09-07T21:19:48.693Z</time>
      </trkpt>
      <trkpt lat="48.838094" lon="2.210498">
        <ele>83.826588</ele>
        <time>2025-09-07T21:20:01.566Z</time>
      </trkpt>
      <trkpt lat="48.837789" lon="2.211031">
        <ele>83.728421</ele>
        <time>2025-09-07T21:20:21.383Z</time>
      </trkpt>
      <trkpt lat="48.837638" lon="2.210699">
        <ele>83.672330</ele>
        <time>2025-09-07T21:20:30.469Z</time>
      </trkpt>
      <trkpt lat="48.837462" lon="2.210723">
        <ele>83.635014</ele>
        <time>2025-09-07T21:20:36.716Z</time>
      </trkpt>
      <trkpt lat="48.837351" lon="2.209130">
        <ele>88.468836</ele>
        <time>2025-09-07T21:21:27.250Z</time>
      </trkpt>
      <trkpt lat="48.837265" lon="2.207896">
        <ele>92.040907</ele>
        <time>2025-09-07T21:22:08.779Z</time>
      </trkpt>
      <trkpt lat="48.837342" lon="2.207779">
        <ele>92.253604</ele>
        <time>2025-09-07T21:22:13.429Z</time>
      </trkpt>
      <trkpt lat="48.837391" lon="2.207632">
        <ele>92.465430</ele>
        <time>2025-09-07T21:22:17.908Z</time>
      </trkpt>
      <trkpt lat="48.837407" lon="2.207434">
        <ele>92.721877</ele>
        <time>2025-09-07T21:22:23.022Z</time>
      </trkpt>
      <trkpt lat="48.837389" lon="2.207298">
        <ele>92.900210</ele>
        <time>2025-09-07T21:22:26.358Z</time>
      </trkpt>
      <trkpt lat="48.837287" lon="2.207069">
        <ele>93.255671</ele>
        <time>2025-09-07T21:22:32.635Z</time>
      </trkpt>
      <trkpt lat="48.837193" lon="2.206980">
        <ele>93.471997</ele>
        <time>2025-09-07T21:22:36.105Z</time>
      </trkpt>
      <trkpt lat="48.837045" lon="2.206940">
        <ele>93.765596</ele>
        <time>2025-09-07T21:22:40.502Z</time>
      </trkpt>
      <trkpt lat="48.836900" lon="2.206997">
        <ele>94.058125</ele>
        <time>2025-09-07T21:22:44.484Z</time>
      </trkpt>
      <trkpt lat="48.836786" lon="2.205403">
        <ele>95.792934</ele>
        <time>2025-09-07T21:23:25.170Z</time>
      </trkpt>
      <trkpt lat="48.836708" lon="2.204301">
        <ele>96.554423</ele>
        <time>2025-09-07T21:23:52.170Z</time>
      </trkpt>
      <trkpt lat="48.836651" lon="2.203531">
        <ele>97.086784</ele>
        <time>2025-09-07T21:24:14.392Z</time>
      </trkpt>
      <trkpt lat="48.836633" lon="2.203318">
        <ele>97.234326</ele>
        <time>2025-09-07T21:24:21.080Z</time>
      </trkpt>
      <trkpt lat="48.834851" lon="2.202781">
        <ele>104.541645</ele>
        <time>2025-09-07T21:26:07.345Z</time>
      </trkpt>
      <trkpt lat="48.833057" lon="2.202240">
        <ele>113.955105</ele>
        <time>2025-09-07T21:28:03.214Z</time>
      </trkpt>
      <trkpt lat="48.832713" lon="2.202204">
        <ele>115.791101</ele>
        <time>2025-09-07T21:28:25.626Z</time>
      </trkpt>
      <trkpt lat="48.832617" lon="2.202087">
        <ele>116.447014</ele>
        <time>2025-09-07T21:28:31.860Z</time>
      </trkpt>
      <trkpt lat="48.830801" lon="2.199881">
        <ele>126.019161</ele>
        <time>2025-09-07T21:30:25.231Z</time>
      </trkpt>
      <trkpt lat="48.830839" lon="2.199781">
        <ele>126.206458</ele>
        <time>2025-09-07T21:30:27.990Z</time>
      </trkpt>
      <trkpt lat="48.830829" lon="2.199626">
        <ele>126.459087</ele>
        <time>2025-09-07T21:30:31.575Z</time>
      </trkpt>
      <trkpt lat="48.830778" lon="2.199477">
        <ele>126.731500</ele>
        <time>2025-09-07T21:30:35.063Z</time>
      </trkpt>
      <trkpt lat="48.830923" lon="2.199247">
        <ele>127.248077</ele>
        <time>2025-09-07T21:30:39.575Z</time>
      </trkpt>
      <trkpt lat="48.831661" lon="2.198052">
        <ele>126.491187</ele>
        <time>2025-09-07T21:30:58.924Z</time>
      </trkpt>
      <trkpt lat="48.831837" lon="2.197768">
        <ele>125.974497</ele>
        <time>2025-09-07T21:31:03.470Z</time>
      </trkpt>
      <trkpt lat="48.831761" lon="2.197701">
        <ele>125.797672</ele>
        <time>2025-09-07T21:31:05.261Z</time>
      </trkpt>
      <trkpt lat="48.831066" lon="2.197052">
        <ele>123.997503</ele>
        <time>2025-09-07T21:31:22.370Z</time>
      </trkpt>
      <trkpt lat="48.830950" lon="2.196857">
        <ele>123.429322</ele>
        <time>2025-09-07T21:31:26.048Z</time>
      </trkpt>
      <trkpt lat="48.830819" lon="2.196528">
        <ele>122.598092</ele>
        <time>2025-09-07T21:31:31.321Z</time>
      </trkpt>
      <trkpt lat="48.830686" lon="2.196270">
        <ele>121.889670</ele>
        <time>2025-09-07T21:31:35.647Z</time>
      </trkpt>
      <trkpt lat="48.830581" lon="2.196212">
        <ele>121.522757</ele>
        <time>2025-09-07T21:31:37.820Z</time>
      </trkpt>
      <trkpt lat="48.830565" lon="2.195919">
        <ele>120.887162</ele>
        <time>2025-09-07T21:31:41.531Z</time>
      </trkpt>
      <trkpt lat="48.830450" lon="2.195914">
        <ele>120.509344</ele>
        <time>2025-09-07T21:31:43.668Z</time>
      </trkpt>
      <trkpt lat="48.830448" lon="2.195812">
        <ele>120.288738</ele>
        <time>2025-09-07T21:31:44.778Z</time>
      </trkpt>
      <trkpt lat="48.830375" lon="2.195812">
        <ele>120.049003</ele>
        <time>2025-09-07T21:31:46.911Z</time>
      </trkpt>
      <trkpt lat="48.830327" lon="2.195747">
        <ele>119.837830</ele>
        <time>2025-09-07T21:31:48.808Z</time>
      </trkpt>
      <trkpt lat="48.830260" lon="2.195513">
        <ele>119.286176</ele>
        <time>2025-09-07T21:31:53.694Z</time>
      </trkpt>
      <trkpt lat="48.830031" lon="2.194964">
        <ele>117.856860</ele>
        <time>2025-09-07T21:32:05.949Z</time>
      </trkpt>
      <trkpt lat="48.829970" lon="2.194819">
        <ele>117.470267</ele>
        <time>2025-09-07T21:32:09.209Z</time>
      </trkpt>
      <trkpt lat="48.829900" lon="2.194579">
        <ele>116.880534</ele>
        <time>2025-09-07T21:32:14.206Z</time>
      </trkpt>
      <trkpt lat="48.829636" lon="2.194278">
        <ele>115.754031</ele>
        <time>2025-09-07T21:32:23.855Z</time>
      </trkpt>
      <trkpt lat="48.829503" lon="2.194063">
        <ele>115.091214</ele>
        <time>2025-09-07T21:32:29.719Z</time>
      </trkpt>
      <trkpt lat="48.829422" lon="2.193996">
        <ele>114.776458</ele>
        <time>2025-09-07T21:32:32.486Z</time>
      </trkpt>
      <trkpt lat="48.829453" lon="2.193886">
        <ele>114.507638</ele>
        <time>2025-09-07T21:32:37.976Z</time>
      </trkpt>
      <trkpt lat="48.829420" lon="2.193843">
        <ele>114.359261</ele>
        <time>2025-09-07T21:32:38.694Z</time>
      </trkpt>
      <trkpt lat="48.829259" lon="2.193664">
        <ele>113.678369</ele>
        <time>2025-09-07T21:32:42.210Z</time>
      </trkpt>
      <trkpt lat="48.829051" lon="2.193431">
        <ele>112.796384</ele>
        <time>2025-09-07T21:32:46.927Z</time>
      </trkpt>
      <trkpt lat="48.828831" lon="2.193106">
        <ele>112.308496</ele>
        <time>2025-09-07T21:32:52.912Z</time>
      </trkpt>
      <trkpt lat="48.828743" lon="2.192935">
        <ele>112.266153</ele>
        <time>2025-09-07T21:32:55.921Z</time>
      </trkpt>
      <trkpt lat="48.828648" lon="2.192658">
        <ele>112.205220</ele>
        <time>2025-09-07T21:33:00.457Z</time>
      </trkpt>
      <trkpt lat="48.828465" lon="2.191373">
        <ele>111.948734</ele>
        <time>2025-09-07T21:33:19.865Z</time>
      </trkpt>
      <trkpt lat="48.828279" lon="2.190010">
        <ele>112.296078</ele>
        <time>2025-09-07T21:33:40.877Z</time>
      </trkpt>
      <trkpt lat="48.828065" lon="2.189501">
        <ele>112.659586</ele>
        <time>2025-09-07T21:33:49.410Z</time>
      </trkpt>
      <trkpt lat="48.827950" lon="2.189313">
        <ele>112.814050</ele>
        <time>2025-09-07T21:33:52.933Z</time>
      </trkpt>
      <trkpt lat="48.827810" lon="2.189109">
        <ele>112.991420</ele>
        <time>2025-09-07T21:33:57.201Z</time>
      </trkpt>
      <trkpt lat="48.827737" lon="2.189004">
        <ele>113.083336</ele>
        <time>2025-09-07T21:33:59.724Z</time>
      </trkpt>
      <trkpt lat="48.827661" lon="2.188919">
        <ele>113.169625</ele>
        <time>2025-09-07T21:34:02.404Z</time>
      </trkpt>
      <trkpt lat="48.827520" lon="2.188849">
        <ele>113.305248</ele>
        <time>2025-09-07T21:34:07.158Z</time>
      </trkpt>
      <trkpt lat="48.827401" lon="2.188820">
        <ele>113.415439</ele>
        <time>2025-09-07T21:34:11.554Z</time>
      </trkpt>
      <trkpt lat="48.827077" lon="2.188746">
        <ele>115.450347</ele>
        <time>2025-09-07T21:34:25.211Z</time>
      </trkpt>
      <trkpt lat="48.826971" lon="2.188479">
        <ele>116.984551</ele>
        <time>2025-09-07T21:34:35.186Z</time>
      </trkpt>
      <trkpt lat="48.827053" lon="2.187386">
        <ele>122.397587</ele>
        <time>2025-09-07T21:35:19.148Z</time>
      </trkpt>
      <trkpt lat="48.827129" lon="2.186183">
        <ele>128.919109</ele>
        <time>2025-09-07T21:36:19.985Z</time>
      </trkpt>
      <trkpt lat="48.827174" lon="2.185522">
        <ele>133.505742</ele>
        <time>2025-09-07T21:36:51.663Z</time>
      </trkpt>
      <trkpt lat="48.827058" lon="2.185195">
        <ele>136.069549</ele>
        <time>2025-09-07T21:37:10.095Z</time>
      </trkpt>
      <trkpt lat="48.826914" lon="2.184900">
        <ele>138.604332</ele>
        <time>2025-09-07T21:37:28.659Z</time>
      </trkpt>
      <trkpt lat="48.826783" lon="2.184686">
        <ele>140.621271</ele>
        <time>2025-09-07T21:37:43.824Z</time>
      </trkpt>
      <trkpt lat="48.826717" lon="2.184580">
        <ele>141.628293</ele>
        <time>2025-09-07T21:37:51.115Z</time>
      </trkpt>
      <trkpt lat="48.826071" lon="2.183540">
        <ele>150.022135</ele>
        <time>2025-09-07T21:39:00.737Z</time>
      </trkpt>
      <trkpt lat="48.825520" lon="2.182632">
        <ele>156.348559</ele>
        <time>2025-09-07T21:39:54.145Z</time>
      </trkpt>
      <trkpt lat="48.825383" lon="2.181854">
        <ele>159.825086</ele>
        <time>2025-09-07T21:40:17.820Z</time>
      </trkpt>
      <trkpt lat="48.825327" lon="2.181222">
        <ele>160.077359</ele>
        <time>2025-09-07T21:40:32.146Z</time>
      </trkpt>
      <trkpt lat="48.825082" lon="2.179591">
        <ele>160.739165</ele>
        <time>2025-09-07T21:40:55.071Z</time>
      </trkpt>
      <trkpt lat="48.824944" lon="2.178656">
        <ele>160.445753</ele>
        <time>2025-09-07T21:41:07.017Z</time>
      </trkpt>
      <trkpt lat="48.824541" lon="2.178823">
        <ele>160.063855</ele>
        <time>2025-09-07T21:41:20.809Z</time>
      </trkpt>
      <trkpt lat="48.824416" lon="2.178460">
        <ele>159.817284</ele>
        <time>2025-09-07T21:41:29.806Z</time>
      </trkpt>
      <trkpt lat="48.824394" lon="2.178319">
        <ele>159.730066</ele>
        <time>2025-09-07T21:41:33.079Z</time>
      </trkpt>
      <trkpt lat="48.824381" lon="2.177774">
        <ele>159.401816</ele>
        <time>2025-09-07T21:41:46.059Z</time>
      </trkpt>
      <trkpt lat="48.824295" lon="2.177293">
        <ele>159.259883</ele>
        <time>2025-09-07T21:41:58.903Z</time>
      </trkpt>
      <trkpt lat="48.824167" lon="2.176835">
        <ele>159.409756</ele>
        <time>2025-09-07T21:42:12.093Z</time>
      </trkpt>
      <trkpt lat="48.824203" lon="2.176495">
        <ele>159.513487</ele>
        <time>2025-09-07T21:42:21.725Z</time>
      </trkpt>
      <trkpt lat="48.824175" lon="2.176112">
        <ele>159.629562</ele>
        <time>2025-09-07T21:42:32.890Z</time>
      </trkpt>
      <trkpt lat="48.824071" lon="2.175647">
        <ele>159.777490</ele>
        <time>2025-09-07T21:42:47.214Z</time>
      </trkpt>
      <trkpt lat="48.824117" lon="2.175207">
        <ele>159.911687</ele>
        <time>2025-09-07T21:42:59.226Z</time>
      </trkpt>
      <trkpt lat="48.823993" lon="2.174778">
        <ele>159.928192</ele>
        <time>2025-09-07T21:43:10.469Z</time>
      </trkpt>
      <trkpt lat="48.823918" lon="2.174214">
        <ele>159.151537</ele>
        <time>2025-09-07T21:43:23.149Z</time>
      </trkpt>
      <trkpt lat="48.823833" lon="2.174019">
        <ele>158.835866</ele>
        <time>2025-09-07T21:43:27.993Z</time>
      </trkpt>
      <trkpt lat="48.823602" lon="2.173926">
        <ele>158.345919</ele>
        <time>2025-09-07T21:43:35.375Z</time>
      </trkpt>
      <trkpt lat="48.823504" lon="2.173752">
        <ele>158.036841</ele>
        <time>2025-09-07T21:43:39.964Z</time>
      </trkpt>
      <trkpt lat="48.823446" lon="2.173504">
        <ele>157.681597</ele>
        <time>2025-09-07T21:43:45.213Z</time>
      </trkpt>
      <trkpt lat="48.823343" lon="2.173376">
        <ele>157.408753</ele>
        <time>2025-09-07T21:43:49.224Z</time>
      </trkpt>
      <trkpt lat="48.823298" lon="2.173163">
        <ele>157.106805</ele>
        <time>2025-09-07T21:43:53.681Z</time>
      </trkpt>
      <trkpt lat="48.823180" lon="2.172860">
        <ele>156.631620</ele>
        <time>2025-09-07T21:44:00.877Z</time>
      </trkpt>
      <trkpt lat="48.823191" lon="2.171866">
        <ele>157.169496</ele>
        <time>2025-09-07T21:44:23.742Z</time>
      </trkpt>
      <trkpt lat="48.823158" lon="2.171506">
        <ele>157.554871</ele>
        <time>2025-09-07T21:44:34.809Z</time>
      </trkpt>
      <trkpt lat="48.823164" lon="2.170495">
        <ele>158.626837</ele>
        <time>2025-09-07T21:45:11.261Z</time>
      </trkpt>
      <trkpt lat="48.823184" lon="2.170239">
        <ele>158.900168</ele>
        <time>2025-09-07T21:45:20.463Z</time>
      </trkpt>
      <trkpt lat="48.823273" lon="2.169824">
        <ele>159.327179</ele>
        <time>2025-09-07T21:45:35.797Z</time>
      </trkpt>
      <trkpt lat="48.823287" lon="2.169375">
        <ele>159.666229</ele>
        <time>2025-09-07T21:45:50.530Z</time>
      </trkpt>
      <trkpt lat="48.823235" lon="2.169206">
        <ele>159.806935</ele>
        <time>2025-09-07T21:45:56.235Z</time>
      </trkpt>
      <trkpt lat="48.823155" lon="2.169076">
        <ele>159.941155</ele>
        <time>2025-09-07T21:46:01.510Z</time>
      </trkpt>
      <trkpt lat="48.822908" lon="2.168941">
        <ele>160.241893</ele>
        <time>2025-09-07T21:46:12.838Z</time>
      </trkpt>
      <trkpt lat="48.822740" lon="2.168805">
        <ele>160.459993</ele>
        <time>2025-09-07T21:46:20.451Z</time>
      </trkpt>
      <trkpt lat="48.822652" lon="2.168684">
        <ele>160.595985</ele>
        <time>2025-09-07T21:46:25.025Z</time>
      </trkpt>
      <trkpt lat="48.822553" lon="2.168429">
        <ele>160.819278</ele>
        <time>2025-09-07T21:46:32.186Z</time>
      </trkpt>
      <trkpt lat="48.822555" lon="2.168148">
        <ele>161.031245</ele>
        <time>2025-09-07T21:46:38.801Z</time>
      </trkpt>
      <trkpt lat="48.822616" lon="2.167925">
        <ele>161.213390</ele>
        <time>2025-09-07T21:46:44.247Z</time>
      </trkpt>
      <trkpt lat="48.823070" lon="2.166860">
        <ele>159.862313</ele>
        <time>2025-09-07T21:47:17.456Z</time>
      </trkpt>
      <trkpt lat="48.823068" lon="2.166783">
        <ele>159.766363</ele>
        <time>2025-09-07T21:47:19.269Z</time>
      </trkpt>
      <trkpt lat="48.822983" lon="2.166495">
        <ele>159.373383</ele>
        <time>2025-09-07T21:47:26.457Z</time>
      </trkpt>
      <trkpt lat="48.823120" lon="2.166041">
        <ele>158.751546</ele>
        <time>2025-09-07T21:47:32.411Z</time>
      </trkpt>
      <trkpt lat="48.823246" lon="2.165876">
        <ele>158.436920</ele>
        <time>2025-09-07T21:47:35.214Z</time>
      </trkpt>
      <trkpt lat="48.823049" lon="2.165870">
        <ele>158.064282</ele>
        <time>2025-09-07T21:47:40.964Z</time>
      </trkpt>
      <trkpt lat="48.822558" lon="2.165854">
        <ele>154.857596</ele>
        <time>2025-09-07T21:47:54.660Z</time>
      </trkpt>
      <trkpt lat="48.821823" lon="2.165926">
        <ele>149.304041</ele>
        <time>2025-09-07T21:48:13.938Z</time>
      </trkpt>
      <trkpt lat="48.821676" lon="2.165940">
        <ele>148.193457</ele>
        <time>2025-09-07T21:48:17.738Z</time>
      </trkpt>
      <trkpt lat="48.820142" lon="2.166071">
        <ele>139.675010</ele>
        <time>2025-09-07T21:48:59.316Z</time>
      </trkpt>
      <trkpt lat="48.818529" lon="2.166159">
        <ele>136.553911</ele>
        <time>2025-09-07T21:49:32.186Z</time>
      </trkpt>
      <trkpt lat="48.818502" lon="2.166160">
        <ele>136.566710</ele>
        <time>2025-09-07T21:49:32.931Z</time>
      </trkpt>
      <trkpt lat="48.818493" lon="2.166136">
        <ele>136.575329</ele>
        <time>2025-09-07T21:49:33.413Z</time>
      </trkpt>
      <trkpt lat="48.818417" lon="2.165919">
        <ele>136.652027</ele>
        <time>2025-09-07T21:49:38.025Z</time>
      </trkpt>
      <trkpt lat="48.818345" lon="2.165850">
        <ele>136.692374</ele>
        <time>2025-09-07T21:49:40.583Z</time>
      </trkpt>
      <trkpt lat="48.818316" lon="2.166043">
        <ele>136.754148</ele>
        <time>2025-09-07T21:49:44.449Z</time>
      </trkpt>
      <trkpt lat="48.818267" lon="2.166114">
        <ele>136.786244</ele>
        <time>2025-09-07T21:49:46.508Z</time>
      </trkpt>
      <trkpt lat="48.818133" lon="2.166188">
        <ele>136.853817</ele>
        <time>2025-09-07T21:49:50.897Z</time>
      </trkpt>
      <trkpt lat="48.817818" lon="2.166188">
        <ele>137.003101</ele>
        <time>2025-09-07T21:50:00.714Z</time>
      </trkpt>
      <trkpt lat="48.817797" lon="2.166188">
        <ele>137.035745</ele>
        <time>2025-09-07T21:50:01.341Z</time>
      </trkpt>
      <trkpt lat="48.817588" lon="2.166210">
        <ele>137.591614</ele>
        <time>2025-09-07T21:50:08.434Z</time>
      </trkpt>
      <trkpt lat="48.817503" lon="2.166219">
        <ele>137.817692</ele>
        <time>2025-09-07T21:50:11.180Z</time>
      </trkpt>
      <trkpt lat="48.817143" lon="2.166250">
        <ele>138.774412</ele>
        <time>2025-09-07T21:50:23.065Z</time>
      </trkpt>
      <trkpt lat="48.816780" lon="2.166272">
        <ele>139.738325</ele>
        <time>2025-09-07T21:50:35.961Z</time>
      </trkpt>
      <trkpt lat="48.816412" lon="2.166303">
        <ele>140.716239</ele>
        <time>2025-09-07T21:50:49.785Z</time>
      </trkpt>
      <trkpt lat="48.813955" lon="2.166423">
        <ele>151.328060</ele>
        <time>2025-09-07T21:52:44.987Z</time>
      </trkpt>
      <trkpt lat="48.813842" lon="2.166244">
        <ele>152.222553</ele>
        <time>2025-09-07T21:52:57.162Z</time>
      </trkpt>
      <trkpt lat="48.813676" lon="2.166074">
        <ele>153.319359</ele>
        <time>2025-09-07T21:53:11.945Z</time>
      </trkpt>
      <trkpt lat="48.813270" lon="2.165824">
        <ele>155.719316</ele>
        <time>2025-09-07T21:53:43.793Z</time>
      </trkpt>
      <trkpt lat="48.812890" lon="2.165688">
        <ele>157.857989</ele>
        <time>2025-09-07T21:54:11.285Z</time>
      </trkpt>
      <trkpt lat="48.812666" lon="2.165678">
        <ele>159.085593</ele>
        <time>2025-09-07T21:54:25.765Z</time>
      </trkpt>
      <trkpt lat="48.812532" lon="2.165812">
        <ele>159.634775</ele>
        <time>2025-09-07T21:54:34.939Z</time>
      </trkpt>
      <trkpt lat="48.812303" lon="2.166533">
        <ele>157.755383</ele>
        <time>2025-09-07T21:54:56.863Z</time>
      </trkpt>
      <trkpt lat="48.812079" lon="2.166545">
        <ele>156.956264</ele>
        <time>2025-09-07T21:55:01.303Z</time>
      </trkpt>
      <trkpt lat="48.812002" lon="2.166554">
        <ele>156.680925</ele>
        <time>2025-09-07T21:55:02.715Z</time>
      </trkpt>
      <trkpt lat="48.811726" lon="2.166586">
        <ele>155.694044</ele>
        <time>2025-09-07T21:55:07.646Z</time>
      </trkpt>
      <trkpt lat="48.811130" lon="2.166482">
        <ele>153.555154</ele>
        <time>2025-09-07T21:55:17.602Z</time>
      </trkpt>
      <trkpt lat="48.810422" lon="2.166329">
        <ele>147.695172</ele>
        <time>2025-09-07T21:55:29.102Z</time>
      </trkpt>
      <trkpt lat="48.810403" lon="2.166322">
        <ele>147.527133</ele>
        <time>2025-09-07T21:55:29.417Z</time>
      </trkpt>
      <trkpt lat="48.810365" lon="2.166314">
        <ele>147.197407</ele>
        <time>2025-09-07T21:55:29.964Z</time>
      </trkpt>
      <trkpt lat="48.809599" lon="2.166142">
        <ele>140.542211</ele>
        <time>2025-09-07T21:55:41.131Z</time>
      </trkpt>
      <trkpt lat="48.809548" lon="2.166131">
        <ele>140.099477</ele>
        <time>2025-09-07T21:55:41.900Z</time>
      </trkpt>
      <trkpt lat="48.809530" lon="2.166189">
        <ele>139.736558</ele>
        <time>2025-09-07T21:55:42.518Z</time>
      </trkpt>
      <trkpt lat="48.808171" lon="2.166963">
        <ele>129.805825</ele>
        <time>2025-09-07T21:56:04.536Z</time>
      </trkpt>
      <trkpt lat="48.808096" lon="2.167011">
        <ele>129.273697</ele>
        <time>2025-09-07T21:56:06.249Z</time>
      </trkpt>
      <trkpt lat="48.808054" lon="2.167048">
        <ele>128.956232</ele>
        <time>2025-09-07T21:56:07.271Z</time>
      </trkpt>
      <trkpt lat="48.807927" lon="2.166790">
        <ele>127.569310</ele>
        <time>2025-09-07T21:56:10.676Z</time>
      </trkpt>
      <trkpt lat="48.807397" lon="2.167049">
        <ele>124.242976</ele>
        <time>2025-09-07T21:56:19.235Z</time>
      </trkpt>
      <trkpt lat="48.807013" lon="2.167236">
        <ele>121.981778</ele>
        <time>2025-09-07T21:56:25.517Z</time>
      </trkpt>
      <trkpt lat="48.805981" lon="2.167710">
        <ele>115.943956</ele>
        <time>2025-09-07T21:56:42.428Z</time>
      </trkpt>
      <trkpt lat="48.805842" lon="2.167707">
        <ele>115.218560</ele>
        <time>2025-09-07T21:56:44.621Z</time>
      </trkpt>
      <trkpt lat="48.805820" lon="2.167772">
        <ele>114.967400</ele>
        <time>2025-09-07T21:56:45.368Z</time>
      </trkpt>
      <trkpt lat="48.805721" lon="2.168142">
        <ele>113.594875</ele>
        <time>2025-09-07T21:56:49.464Z</time>
      </trkpt>
      <trkpt lat="48.805714" lon="2.168206">
        <ele>113.371910</ele>
        <time>2025-09-07T21:56:50.114Z</time>
      </trkpt>
      <trkpt lat="48.805720" lon="2.168435">
        <ele>112.584273</ele>
        <time>2025-09-07T21:56:52.420Z</time>
      </trkpt>
      <trkpt lat="48.805724" lon="2.168707">
        <ele>111.649244</ele>
        <time>2025-09-07T21:56:55.149Z</time>
      </trkpt>
      <trkpt lat="48.805726" lon="2.168866">
        <ele>111.102702</ele>
        <time>2025-09-07T21:56:56.740Z</time>
      </trkpt>
      <trkpt lat="48.805737" lon="2.169027">
        <ele>110.546417</ele>
        <time>2025-09-07T21:56:58.367Z</time>
      </trkpt>
      <trkpt lat="48.805677" lon="2.169126">
        <ele>110.084046</ele>
        <time>2025-09-07T21:56:59.736Z</time>
      </trkpt>
      <trkpt lat="48.805649" lon="2.169151">
        <ele>109.914548</ele>
        <time>2025-09-07T21:57:00.230Z</time>
      </trkpt>
      <trkpt lat="48.805558" lon="2.169226">
        <ele>109.374249</ele>
        <time>2025-09-07T21:57:01.830Z</time>
      </trkpt>
      <trkpt lat="48.805459" lon="2.169307">
        <ele>108.787422</ele>
        <time>2025-09-07T21:57:03.595Z</time>
      </trkpt>
      <trkpt lat="48.805411" lon="2.169334">
        <ele>108.520315</ele>
        <time>2025-09-07T21:57:04.401Z</time>
      </trkpt>
      <trkpt lat="48.805334" lon="2.169375">
        <ele>108.094526</ele>
        <time>2025-09-07T21:57:05.698Z</time>
      </trkpt>
      <trkpt lat="48.805137" lon="2.169401">
        <ele>107.062674</ele>
        <time>2025-09-07T21:57:08.955Z</time>
      </trkpt>
      <trkpt lat="48.805072" lon="2.169401">
        <ele>106.723495</ele>
        <time>2025-09-07T21:57:10.042Z</time>
      </trkpt>
      <trkpt lat="48.804768" lon="2.169417">
        <ele>106.862322</ele>
        <time>2025-09-07T21:57:15.298Z</time>
      </trkpt>
      <trkpt lat="48.804644" lon="2.169441">
        <ele>106.947640</ele>
        <time>2025-09-07T21:57:17.528Z</time>
      </trkpt>
      <trkpt lat="48.804437" lon="2.169511">
        <ele>107.092384</ele>
        <time>2025-09-07T21:57:21.540Z</time>
      </trkpt>
      <trkpt lat="48.804211" lon="2.169595">
        <ele>107.251190</ele>
        <time>2025-09-07T21:57:26.587Z</time>
      </trkpt>
      <trkpt lat="48.804117" lon="2.169608">
        <ele>107.315613</ele>
        <time>2025-09-07T21:57:29.263Z</time>
      </trkpt>
      <trkpt lat="48.803964" lon="2.169903">
        <ele>107.484406</ele>
        <time>2025-09-07T21:57:37.825Z</time>
      </trkpt>
      <trkpt lat="48.803954" lon="2.169923">
        <ele>107.495694</ele>
        <time>2025-09-07T21:57:38.472Z</time>
      </trkpt>
      <trkpt lat="48.803882" lon="2.170106">
        <ele>107.591519</ele>
        <time>2025-09-07T21:57:44.297Z</time>
      </trkpt>
      <trkpt lat="48.803783" lon="2.170266">
        <ele>107.690206</ele>
        <time>2025-09-07T21:57:50.568Z</time>
      </trkpt>
      <trkpt lat="48.803580" lon="2.170444">
        <ele>107.850205</ele>
        <time>2025-09-07T21:58:00.976Z</time>
      </trkpt>
      <trkpt lat="48.803456" lon="2.170515">
        <ele>108.145372</ele>
        <time>2025-09-07T21:58:07.174Z</time>
      </trkpt>
      <trkpt lat="48.803137" lon="2.170633">
        <ele>109.280214</ele>
        <time>2025-09-07T21:58:21.612Z</time>
      </trkpt>
      <trkpt lat="48.802895" lon="2.170692">
        <ele>110.127376</ele>
        <time>2025-09-07T21:58:31.645Z</time>
      </trkpt>
      <trkpt lat="48.802583" lon="2.170749">
        <ele>111.213550</ele>
        <time>2025-09-07T21:58:44.445Z</time>
      </trkpt>
      <trkpt lat="48.802327" lon="2.170785">
        <ele>112.102174</ele>
        <time>2025-09-07T21:58:54.697Z</time>
      </trkpt>
      <trkpt lat="48.801920" lon="2.170837">
        <ele>113.513899</ele>
        <time>2025-09-07T21:59:09.299Z</time>
      </trkpt>
      <trkpt lat="48.801830" lon="2.170848">
        <ele>113.825980</ele>
        <time>2025-09-07T21:59:12.291Z</time>
      </trkpt>
      <trkpt lat="48.801743" lon="2.170860">
        <ele>114.123760</ele>
        <time>2025-09-07T21:59:15.178Z</time>
      </trkpt>
      <trkpt lat="48.801227" lon="2.170959">
        <ele>115.561879</ele>
        <time>2025-09-07T21:59:33.829Z</time>
      </trkpt>
      <trkpt lat="48.801154" lon="2.170974">
        <ele>115.765569</ele>
        <time>2025-09-07T21:59:36.512Z</time>
      </trkpt>
      <trkpt lat="48.800902" lon="2.171015">
        <ele>116.466354</ele>
        <time>2025-09-07T21:59:45.618Z</time>
      </trkpt>
      <trkpt lat="48.800598" lon="2.171077">
        <ele>117.314483</ele>
        <time>2025-09-07T21:59:56.411Z</time>
      </trkpt>
      <trkpt lat="48.800466" lon="2.171104">
        <ele>117.682769</ele>
        <time>2025-09-07T22:00:00.943Z</time>
      </trkpt>
      <trkpt lat="48.800429" lon="2.171114">
        <ele>117.786684</ele>
        <time>2025-09-07T22:00:02.263Z</time>
      </trkpt>
      <trkpt lat="48.799989" lon="2.171223">
        <ele>119.019401</ele>
        <time>2025-09-07T22:00:18.447Z</time>
      </trkpt>
      <trkpt lat="48.799411" lon="2.171524">
        <ele>120.929951</ele>
        <time>2025-09-07T22:00:42.113Z</time>
      </trkpt>
      <trkpt lat="48.799332" lon="2.171568">
        <ele>121.194192</ele>
        <time>2025-09-07T22:00:45.120Z</time>
      </trkpt>
      <trkpt lat="48.799300" lon="2.171397">
        <ele>121.561890</ele>
        <time>2025-09-07T22:00:49.480Z</time>
      </trkpt>
      <trkpt lat="48.799250" lon="2.170400">
        <ele>123.630083</ele>
        <time>2025-09-07T22:01:14.311Z</time>
      </trkpt>
      <trkpt lat="48.799233" lon="2.170048">
        <ele>124.360124</ele>
        <time>2025-09-07T22:01:23.437Z</time>
      </trkpt>
      <trkpt lat="48.799204" lon="2.169471">
        <ele>125.203260</ele>
        <time>2025-09-07T22:01:38.795Z</time>
      </trkpt>
      <trkpt lat="48.799137" lon="2.168798">
        <ele>126.009932</ele>
        <time>2025-09-07T22:01:55.566Z</time>
      </trkpt>
      <trkpt lat="48.799126" lon="2.168687">
        <ele>126.142965</ele>
        <time>2025-09-07T22:01:58.042Z</time>
      </trkpt>
      <trkpt lat="48.799112" lon="2.168560">
        <ele>126.295574</ele>
        <time>2025-09-07T22:02:00.840Z</time>
      </trkpt>
      <trkpt lat="48.799003" lon="2.167508">
        <ele>127.557697</ele>
        <time>2025-09-07T22:02:19.688Z</time>
      </trkpt>
      <trkpt lat="48.798922" lon="2.166690">
        <ele>127.714303</ele>
        <time>2025-09-07T22:02:31.649Z</time>
      </trkpt>
      <trkpt lat="48.798883" lon="2.166348">
        <ele>127.534649</ele>
        <time>2025-09-07T22:02:37.277Z</time>
      </trkpt>
      <trkpt lat="48.798830" lon="2.166058">
        <ele>127.378872</ele>
        <time>2025-09-07T22:02:42.037Z</time>
      </trkpt>
      <trkpt lat="48.798718" lon="2.165630">
        <ele>127.140495</ele>
        <time>2025-09-07T22:02:48.441Z</time>
      </trkpt>
      <trkpt lat="48.798686" lon="2.165817">
        <ele>127.040489</ele>
        <time>2025-09-07T22:02:50.956Z</time>
      </trkpt>
      <trkpt lat="48.798676" lon="2.166129">
        <ele>126.878804</ele>
        <time>2025-09-07T22:02:54.810Z</time>
      </trkpt>
      <trkpt lat="48.798572" lon="2.166101">
        <ele>126.795806</ele>
        <time>2025-09-07T22:02:56.721Z</time>
      </trkpt>
      <trkpt lat="48.798338" lon="2.166126">
        <ele>126.611475</ele>
        <time>2025-09-07T22:03:00.823Z</time>
      </trkpt>
      <trkpt lat="48.798291" lon="2.166064">
        <ele>126.562548</ele>
        <time>2025-09-07T22:03:01.910Z</time>
      </trkpt>
      <trkpt lat="48.798243" lon="2.165859">
        <ele>126.565243</ele>
        <time>2025-09-07T22:03:06.358Z</time>
      </trkpt>
      <trkpt lat="48.798209" lon="2.165389">
        <ele>126.598794</ele>
        <time>2025-09-07T22:03:16.576Z</time>
      </trkpt>
      <trkpt lat="48.798145" lon="2.165189">
        <ele>126.614572</ele>
        <time>2025-09-07T22:03:21.540Z</time>
      </trkpt>
      <trkpt lat="48.798072" lon="2.165057">
        <ele>126.626803</ele>
        <time>2025-09-07T22:03:25.394Z</time>
      </trkpt>
      <trkpt lat="48.797959" lon="2.164953">
        <ele>126.641038</ele>
        <time>2025-09-07T22:03:29.988Z</time>
      </trkpt>
      <trkpt lat="48.797782" lon="2.164842">
        <ele>126.661668</ele>
        <time>2025-09-07T22:03:36.765Z</time>
      </trkpt>
      <trkpt lat="48.797615" lon="2.164816">
        <ele>126.679752</ele>
        <time>2025-09-07T22:03:42.854Z</time>
      </trkpt>
      <trkpt lat="48.797475" lon="2.164840">
        <ele>126.694930</ele>
        <time>2025-09-07T22:03:48.175Z</time>
      </trkpt>
      <trkpt lat="48.797340" lon="2.164921">
        <ele>126.710567</ele>
        <time>2025-09-07T22:03:54.270Z</time>
      </trkpt>
      <trkpt lat="48.797078" lon="2.165350">
        <ele>127.065076</ele>
        <time>2025-09-07T22:04:14.122Z</time>
      </trkpt>
      <trkpt lat="48.796937" lon="2.165547">
        <ele>128.011291</ele>
        <time>2025-09-07T22:04:26.101Z</time>
      </trkpt>
      <trkpt lat="48.796791" lon="2.165603">
        <ele>128.754862</ele>
        <time>2025-09-07T22:04:36.072Z</time>
      </trkpt>
      <trkpt lat="48.796679" lon="2.165618">
        <ele>129.310041</ele>
        <time>2025-09-07T22:04:43.469Z</time>
      </trkpt>
      <trkpt lat="48.796362" lon="2.165575">
        <ele>130.881554</ele>
        <time>2025-09-07T22:05:04.566Z</time>
      </trkpt>
      <trkpt lat="48.796192" lon="2.165612">
        <ele>131.729560</ele>
        <time>2025-09-07T22:05:15.503Z</time>
      </trkpt>
      <trkpt lat="48.795867" lon="2.165724">
        <ele>133.375170</ele>
        <time>2025-09-07T22:05:35.961Z</time>
      </trkpt>
      <trkpt lat="48.795605" lon="2.165731">
        <ele>134.669069</ele>
        <time>2025-09-07T22:05:52.101Z</time>
      </trkpt>
      <trkpt lat="48.795482" lon="2.165610">
        <ele>135.392794</ele>
        <time>2025-09-07T22:06:01.647Z</time>
      </trkpt>
      <trkpt lat="48.795310" lon="2.165499">
        <ele>136.140056</ele>
        <time>2025-09-07T22:06:14.285Z</time>
      </trkpt>
      <trkpt lat="48.795130" lon="2.165488">
        <ele>136.802957</ele>
        <time>2025-09-07T22:06:26.725Z</time>
      </trkpt>
      <trkpt lat="48.794926" lon="2.165570">
        <ele>137.579508</ele>
        <time>2025-09-07T22:06:40.866Z</time>
      </trkpt>
      <trkpt lat="48.794711" lon="2.165815">
        <ele>138.568776</ele>
        <time>2025-09-07T22:06:57.713Z</time>
      </trkpt>
      <trkpt lat="48.794470" lon="2.166174">
        <ele>139.811280</ele>
        <time>2025-09-07T22:07:17.415Z</time>
      </trkpt>
      <trkpt lat="48.794305" lon="2.166282">
        <ele>140.472486</ele>
        <time>2025-09-07T22:07:26.420Z</time>
      </trkpt>
      <trkpt lat="48.794104" lon="2.166266">
        <ele>141.213142</ele>
        <time>2025-09-07T22:07:35.189Z</time>
      </trkpt>
      <trkpt lat="48.793975" lon="2.166194">
        <ele>141.718907</ele>
        <time>2025-09-07T22:07:40.787Z</time>
      </trkpt>
      <trkpt lat="48.793867" lon="2.166054">
        <ele>142.241516</ele>
        <time>2025-09-07T22:07:46.733Z</time>
      </trkpt>
      <trkpt lat="48.793818" lon="2.165906">
        <ele>142.314326</ele>
        <time>2025-09-07T22:07:51.361Z</time>
      </trkpt>
      <trkpt lat="48.793831" lon="2.165689">
        <ele>142.406260</ele>
        <time>2025-09-07T22:07:57.204Z</time>
      </trkpt>
      <trkpt lat="48.794017" lon="2.165196">
        <ele>142.645965</ele>
        <time>2025-09-07T22:08:11.035Z</time>
      </trkpt>
      <trkpt lat="48.794013" lon="2.164979">
        <ele>142.737557</ele>
        <time>2025-09-07T22:08:16.121Z</time>
      </trkpt>
      <trkpt lat="48.793939" lon="2.164821">
        <ele>142.819351</ele>
        <time>2025-09-07T22:08:20.568Z</time>
      </trkpt>
      <trkpt lat="48.793719" lon="2.164722">
        <ele>142.966315</ele>
        <time>2025-09-07T22:08:28.343Z</time>
      </trkpt>
      <trkpt lat="48.792941" lon="2.164689">
        <ele>143.708355</ele>
        <time>2025-09-07T22:09:00.374Z</time>
      </trkpt>
      <trkpt lat="48.792737" lon="2.164514">
        <ele>144.397830</ele>
        <time>2025-09-07T22:09:14.187Z</time>
      </trkpt>
      <trkpt lat="48.792619" lon="2.164520">
        <ele>144.745231</ele>
        <time>2025-09-07T22:09:21.068Z</time>
      </trkpt>
      <trkpt lat="48.792555" lon="2.164569">
        <ele>144.956143</ele>
        <time>2025-09-07T22:09:25.225Z</time>
      </trkpt>
      <trkpt lat="48.792410" lon="2.164689">
        <ele>145.442084</ele>
        <time>2025-09-07T22:09:34.481Z</time>
      </trkpt>
      <trkpt lat="48.792335" lon="2.164929">
        <ele>145.956996</ele>
        <time>2025-09-07T22:09:43.987Z</time>
      </trkpt>
      <trkpt lat="48.792340" lon="2.165128">
        <ele>146.343025</ele>
        <time>2025-09-07T22:09:50.779Z</time>
      </trkpt>
      <trkpt lat="48.792421" lon="2.165355">
        <ele>146.843450</ele>
        <time>2025-09-07T22:09:59.406Z</time>
      </trkpt>
      <trkpt lat="48.792425" lon="2.165521">
        <ele>147.165445</ele>
        <time>2025-09-07T22:10:04.716Z</time>
      </trkpt>
      <trkpt lat="48.792397" lon="2.165657">
        <ele>147.441646</ele>
        <time>2025-09-07T22:10:09.327Z</time>
      </trkpt>
      <trkpt lat="48.792289" lon="2.165926">
        <ele>148.052288</ele>
        <time>2025-09-07T22:10:20.244Z</time>
      </trkpt>
      <trkpt lat="48.792075" lon="2.166080">
        <ele>148.723793</ele>
        <time>2025-09-07T22:10:33.073Z</time>
      </trkpt>
      <trkpt lat="48.791951" lon="2.166076">
        <ele>148.933909</ele>
        <time>2025-09-07T22:10:39.948Z</time>
      </trkpt>
      <trkpt lat="48.791616" lon="2.165811">
        <ele>149.573877</ele>
        <time>2025-09-07T22:11:00.941Z</time>
      </trkpt>
      <trkpt lat="48.791495" lon="2.165791">
        <ele>149.780075</ele>
        <time>2025-09-07T22:11:07.045Z</time>
      </trkpt>
      <trkpt lat="48.791347" lon="2.165883">
        <ele>150.051013</ele>
        <time>2025-09-07T22:11:14.404Z</time>
      </trkpt>
      <trkpt lat="48.791252" lon="2.166040">
        <ele>150.288933</ele>
        <time>2025-09-07T22:11:20.477Z</time>
      </trkpt>
      <trkpt lat="48.791170" lon="2.166424">
        <ele>150.739461</ele>
        <time>2025-09-07T22:11:31.260Z</time>
      </trkpt>
      <trkpt lat="48.790980" lon="2.166837">
        <ele>151.301668</ele>
        <time>2025-09-07T22:11:43.588Z</time>
      </trkpt>
      <trkpt lat="48.790900" lon="2.166821">
        <ele>151.438368</ele>
        <time>2025-09-07T22:11:46.532Z</time>
      </trkpt>
      <trkpt lat="48.790721" lon="2.166666">
        <ele>151.816555</ele>
        <time>2025-09-07T22:11:54.332Z</time>
      </trkpt>
      <trkpt lat="48.790616" lon="2.166614">
        <ele>152.110295</ele>
        <time>2025-09-07T22:11:58.776Z</time>
      </trkpt>
      <trkpt lat="48.790388" lon="2.166663">
        <ele>152.722720</ele>
        <time>2025-09-07T22:12:08.630Z</time>
      </trkpt>
      <trkpt lat="48.790224" lon="2.166627">
        <ele>153.163423</ele>
        <time>2025-09-07T22:12:16.039Z</time>
      </trkpt>
      <trkpt lat="48.790037" lon="2.166477">
        <ele>153.725934</ele>
        <time>2025-09-07T22:12:25.500Z</time>
      </trkpt>
      <trkpt lat="48.789933" lon="2.166450">
        <ele>154.006544</ele>
        <time>2025-09-07T22:12:30.272Z</time>
      </trkpt>
      <trkpt lat="48.789824" lon="2.166465">
        <ele>154.297623</ele>
        <time>2025-09-07T22:12:35.161Z</time>
      </trkpt>
      <trkpt lat="48.789578" lon="2.166577">
        <ele>154.980670</ele>
        <time>2025-09-07T22:12:48.552Z</time>
      </trkpt>
      <trkpt lat="48.789097" lon="2.166734">
        <ele>156.289156</ele>
        <time>2025-09-07T22:13:18.466Z</time>
      </trkpt>
      <trkpt lat="48.788950" lon="2.166930">
        <ele>156.808764</ele>
        <time>2025-09-07T22:13:31.532Z</time>
      </trkpt>
      <trkpt lat="48.788853" lon="2.167174">
        <ele>157.306782</ele>
        <time>2025-09-07T22:13:44.212Z</time>
      </trkpt>
      <trkpt lat="48.788661" lon="2.167401">
        <ele>157.952333</ele>
        <time>2025-09-07T22:13:59.628Z</time>
      </trkpt>
      <trkpt lat="48.788496" lon="2.167505">
        <ele>158.426234</ele>
        <time>2025-09-07T22:14:09.082Z</time>
      </trkpt>
      <trkpt lat="48.788250" lon="2.167542">
        <ele>159.081946</ele>
        <time>2025-09-07T22:14:21.123Z</time>
      </trkpt>
      <trkpt lat="48.788138" lon="2.167394">
        <ele>159.475841</ele>
        <time>2025-09-07T22:14:28.013Z</time>
      </trkpt>
      <trkpt lat="48.787974" lon="2.167017">
        <ele>160.265340</ele>
        <time>2025-09-07T22:14:40.934Z</time>
      </trkpt>
      <trkpt lat="48.787948" lon="2.166777">
        <ele>160.690395</ele>
        <time>2025-09-07T22:14:47.489Z</time>
      </trkpt>
      <trkpt lat="48.787962" lon="2.166597">
        <ele>161.007147</ele>
        <time>2025-09-07T22:14:51.917Z</time>
      </trkpt>
      <trkpt lat="48.787914" lon="2.166431">
        <ele>161.316520</ele>
        <time>2025-09-07T22:14:56.284Z</time>
      </trkpt>
      <trkpt lat="48.787776" lon="2.166340">
        <ele>161.625639</ele>
        <time>2025-09-07T22:15:01.835Z</time>
      </trkpt>
      <trkpt lat="48.787562" lon="2.166327">
        <ele>162.065648</ele>
        <time>2025-09-07T22:15:10.166Z</time>
      </trkpt>
      <trkpt lat="48.787493" lon="2.166260">
        <ele>162.233935</ele>
        <time>2025-09-07T22:15:13.065Z</time>
      </trkpt>
      <trkpt lat="48.787413" lon="2.165717">
        <ele>162.987091</ele>
        <time>2025-09-07T22:15:27.968Z</time>
      </trkpt>
      <trkpt lat="48.787352" lon="2.165576">
        <ele>163.215417</ele>
        <time>2025-09-07T22:15:32.809Z</time>
      </trkpt>
      <trkpt lat="48.787166" lon="2.165390">
        <ele>163.673034</ele>
        <time>2025-09-07T22:15:44.597Z</time>
      </trkpt>
      <trkpt lat="48.787101" lon="2.165272">
        <ele>163.881230</ele>
        <time>2025-09-07T22:15:50.497Z</time>
      </trkpt>
      <trkpt lat="48.787065" lon="2.165184">
        <ele>164.021441</ele>
        <time>2025-09-07T22:15:54.587Z</time>
      </trkpt>
      <trkpt lat="48.787046" lon="2.164951">
        <ele>164.339238</ele>
        <time>2025-09-07T22:16:03.931Z</time>
      </trkpt>
      <trkpt lat="48.786962" lon="2.164642">
        <ele>164.791708</ele>
        <time>2025-09-07T22:16:16.862Z</time>
      </trkpt>
      <trkpt lat="48.786789" lon="2.164493">
        <ele>165.221997</ele>
        <time>2025-09-07T22:16:27.861Z</time>
      </trkpt>
      <trkpt lat="48.786294" lon="2.164311">
        <ele>166.374056</ele>
        <time>2025-09-07T22:16:54.059Z</time>
      </trkpt>
      <trkpt lat="48.786217" lon="2.164217">
        <ele>166.597577</ele>
        <time>2025-09-07T22:16:58.957Z</time>
      </trkpt>
      <trkpt lat="48.786165" lon="2.164028">
        <ele>166.902824</ele>
        <time>2025-09-07T22:17:05.551Z</time>
      </trkpt>
      <trkpt lat="48.786209" lon="2.163863">
        <ele>167.168108</ele>
        <time>2025-09-07T22:17:11.171Z</time>
      </trkpt>
      <trkpt lat="48.786477" lon="2.163536">
        <ele>167.945918</ele>
        <time>2025-09-07T22:17:27.190Z</time>
      </trkpt>
      <trkpt lat="48.786515" lon="2.163363">
        <ele>168.217696</ele>
        <time>2025-09-07T22:17:32.691Z</time>
      </trkpt>
      <trkpt lat="48.786515" lon="2.163182">
        <ele>168.487446</ele>
        <time>2025-09-07T22:17:38.006Z</time>
      </trkpt>
      <trkpt lat="48.786472" lon="2.162815">
        <ele>169.042980</ele>
        <time>2025-09-07T22:17:48.463Z</time>
      </trkpt>
      <trkpt lat="48.786502" lon="2.162157">
        <ele>169.654034</ele>
        <time>2025-09-07T22:18:05.405Z</time>
      </trkpt>
      <trkpt lat="48.786418" lon="2.162008">
        <ele>169.834373</ele>
        <time>2025-09-07T22:18:10.813Z</time>
      </trkpt>
      <trkpt lat="48.786417" lon="2.162299">
        <ele>170.101990</ele>
        <time>2025-09-07T22:18:17.045Z</time>
      </trkpt>
      <trkpt lat="48.786349" lon="2.162576">
        <ele>170.373835</ele>
        <time>2025-09-07T22:18:23.530Z</time>
      </trkpt>
      <trkpt lat="48.786352" lon="2.163062">
        <ele>170.820796</ele>
        <time>2025-09-07T22:18:34.211Z</time>
      </trkpt>
      <trkpt lat="48.786352" lon="2.163063">
        <ele>170.821716</ele>
        <time>2025-09-07T22:18:34.234Z</time>
      </trkpt>
      <trkpt lat="48.786312" lon="2.163331">
        <ele>171.074422</ele>
        <time>2025-09-07T22:18:40.321Z</time>
      </trkpt>
      <trkpt lat="48.786270" lon="2.163447">
        <ele>171.196146</ele>
        <time>2025-09-07T22:18:43.141Z</time>
      </trkpt>
      <trkpt lat="48.786088" lon="2.163673">
        <ele>171.524366</ele>
        <time>2025-09-07T22:18:51.042Z</time>
      </trkpt>
      <trkpt lat="48.786020" lon="2.163827">
        <ele>171.705704</ele>
        <time>2025-09-07T22:18:54.965Z</time>
      </trkpt>
      <trkpt lat="48.785980" lon="2.164123">
        <ele>172.006840</ele>
        <time>2025-09-07T22:19:01.286Z</time>
      </trkpt>
      <trkpt lat="48.785981" lon="2.164314">
        <ele>172.197197</ele>
        <time>2025-09-07T22:19:05.379Z</time>
      </trkpt>
      <trkpt lat="48.786018" lon="2.164434">
        <ele>172.329237</ele>
        <time>2025-09-07T22:19:09.140Z</time>
      </trkpt>
      <trkpt lat="48.785846" lon="2.164406">
        <ele>172.590895</ele>
        <time>2025-09-07T22:19:16.923Z</time>
      </trkpt>
      <trkpt lat="48.785534" lon="2.164449">
        <ele>173.064765</ele>
        <time>2025-09-07T22:19:31.119Z</time>
      </trkpt>
      <trkpt lat="48.785392" lon="2.164425">
        <ele>173.280880</ele>
        <time>2025-09-07T22:19:37.436Z</time>
      </trkpt>
      <trkpt lat="48.785167" lon="2.164341">
        <ele>173.631358</ele>
        <time>2025-09-07T22:19:47.554Z</time>
      </trkpt>
      <trkpt lat="48.784591" lon="2.163964">
        <ele>174.443967</ele>
        <time>2025-09-07T22:20:16.148Z</time>
      </trkpt>
      <trkpt lat="48.783619" lon="2.163328">
        <ele>175.304172</ele>
        <time>2025-09-07T22:21:00.639Z</time>
      </trkpt>
      <trkpt lat="48.783315" lon="2.163021">
        <ele>175.600920</ele>
        <time>2025-09-07T22:21:13.939Z</time>
      </trkpt>
      <trkpt lat="48.783083" lon="2.162742">
        <ele>175.815791</ele>
        <time>2025-09-07T22:21:24.934Z</time>
      </trkpt>
      <trkpt lat="48.782955" lon="2.162589">
        <ele>175.912002</ele>
        <time>2025-09-07T22:21:31.155Z</time>
      </trkpt>
      <trkpt lat="48.782941" lon="2.162635">
        <ele>175.931716</ele>
        <time>2025-09-07T22:21:32.043Z</time>
      </trkpt>
      <trkpt lat="48.782802" lon="2.163100">
        <ele>176.130388</ele>
        <time>2025-09-07T22:21:41.314Z</time>
      </trkpt>
      <trkpt lat="48.782720" lon="2.163445">
        <ele>176.273088</ele>
        <time>2025-09-07T22:21:47.842Z</time>
      </trkpt>
      <trkpt lat="48.782637" lon="2.164700">
        <ele>176.763842</ele>
        <time>2025-09-07T22:22:11.854Z</time>
      </trkpt>
      <trkpt lat="48.782351" lon="2.164601">
        <ele>176.779593</ele>
        <time>2025-09-07T22:22:24.663Z</time>
      </trkpt>
      <trkpt lat="48.782206" lon="2.164556">
        <ele>176.759011</ele>
        <time>2025-09-07T22:22:30.909Z</time>
      </trkpt>
      <trkpt lat="48.781807" lon="2.164421">
        <ele>176.702160</ele>
        <time>2025-09-07T22:22:46.701Z</time>
      </trkpt>
      <trkpt lat="48.781807" lon="2.164421">
        <ele>176.702160</ele>
        <time>2025-09-07T22:22:46.706Z</time>
      </trkpt>
      <trkpt lat="48.781371" lon="2.164356">
        <ele>176.641234</ele>
        <time>2025-09-07T22:22:58.035Z</time>
      </trkpt>
      <trkpt lat="48.781289" lon="2.164285">
        <ele>176.628105</ele>
        <time>2025-09-07T22:23:00.476Z</time>
      </trkpt>
      <trkpt lat="48.781242" lon="2.164131">
        <ele>176.612552</ele>
        <time>2025-09-07T22:23:03.368Z</time>
      </trkpt>
      <trkpt lat="48.781275" lon="2.162768">
        <ele>176.093836</ele>
        <time>2025-09-07T22:23:26.610Z</time>
      </trkpt>
      <trkpt lat="48.781170" lon="2.162823">
        <ele>175.993805</ele>
        <time>2025-09-07T22:23:29.482Z</time>
      </trkpt>
      <trkpt lat="48.781073" lon="2.162919">
        <ele>175.889519</ele>
        <time>2025-09-07T22:23:32.477Z</time>
      </trkpt>
      <trkpt lat="48.781111" lon="2.162708">
        <ele>175.759719</ele>
        <time>2025-09-07T22:23:36.204Z</time>
      </trkpt>
      <trkpt lat="48.781104" lon="2.162501">
        <ele>175.636724</ele>
        <time>2025-09-07T22:23:39.736Z</time>
      </trkpt>
      <trkpt lat="48.781008" lon="2.162078">
        <ele>175.371244</ele>
        <time>2025-09-07T22:23:47.360Z</time>
      </trkpt>
      <trkpt lat="48.781018" lon="2.162072">
        <ele>175.361561</ele>
        <time>2025-09-07T22:23:47.629Z</time>
      </trkpt>
      <trkpt lat="48.780932" lon="2.161746">
        <ele>175.153185</ele>
        <time>2025-09-07T22:23:55.615Z</time>
      </trkpt>
      <trkpt lat="48.780485" lon="2.161677">
        <ele>174.828915</ele>
        <time>2025-09-07T22:24:11.224Z</time>
      </trkpt>
      <trkpt lat="48.779183" lon="2.161476">
        <ele>174.145744</ele>
        <time>2025-09-07T22:24:57.820Z</time>
      </trkpt>
      <trkpt lat="48.777153" lon="2.161186">
        <ele>173.426523</ele>
        <time>2025-09-07T22:26:12.514Z</time>
      </trkpt>
      <trkpt lat="48.776995" lon="2.161164">
        <ele>173.208624</ele>
        <time>2025-09-07T22:26:18.031Z</time>
      </trkpt>
      <trkpt lat="48.776890" lon="2.161150">
        <ele>173.029912</ele>
        <time>2025-09-07T22:26:21.662Z</time>
      </trkpt>
      <trkpt lat="48.776623" lon="2.161113">
        <ele>172.575333</ele>
        <time>2025-09-07T22:26:30.801Z</time>
      </trkpt>
      <trkpt lat="48.775424" lon="2.160928">
        <ele>170.531962</ele>
        <time>2025-09-07T22:27:10.073Z</time>
      </trkpt>
      <trkpt lat="48.774466" lon="2.160781">
        <ele>168.076777</ele>
        <time>2025-09-07T22:27:40.584Z</time>
      </trkpt>
      <trkpt lat="48.772810" lon="2.160528">
        <ele>163.183889</ele>
        <time>2025-09-07T22:28:32.509Z</time>
      </trkpt>
      <trkpt lat="48.772835" lon="2.160047">
        <ele>162.130039</ele>
        <time>2025-09-07T22:28:42.285Z</time>
      </trkpt>
      <trkpt lat="48.772453" lon="2.159752">
        <ele>160.709500</ele>
        <time>2025-09-07T22:28:55.364Z</time>
      </trkpt>
      <trkpt lat="48.772405" lon="2.159508">
        <ele>160.153322</ele>
        <time>2025-09-07T22:29:00.425Z</time>
      </trkpt>
      <trkpt lat="48.772185" lon="2.159451">
        <ele>159.410195</ele>
        <time>2025-09-07T22:29:07.078Z</time>
      </trkpt>
      <trkpt lat="48.772104" lon="2.159288">
        <ele>158.957552</ele>
        <time>2025-09-07T22:29:11.007Z</time>
      </trkpt>
      <trkpt lat="48.771884" lon="2.159184">
        <ele>158.182307</ele>
        <time>2025-09-07T22:29:17.695Z</time>
      </trkpt>
      <trkpt lat="48.771745" lon="2.159118">
        <ele>157.692300</ele>
        <time>2025-09-07T22:29:21.918Z</time>
      </trkpt>
      <trkpt lat="48.771349" lon="2.159272">
        <ele>156.316958</ele>
        <time>2025-09-07T22:29:34.021Z</time>
      </trkpt>
      <trkpt lat="48.771161" lon="2.159150">
        <ele>155.629042</ele>
        <time>2025-09-07T22:29:40.204Z</time>
      </trkpt>
      <trkpt lat="48.770887" lon="2.159174">
        <ele>154.705677</ele>
        <time>2025-09-07T22:29:48.647Z</time>
      </trkpt>
      <trkpt lat="48.770894" lon="2.158988">
        <ele>154.292580</ele>
        <time>2025-09-07T22:29:51.074Z</time>
      </trkpt>
      <trkpt lat="48.770989" lon="2.156682">
        <ele>152.083725</ele>
        <time>2025-09-07T22:30:25.197Z</time>
      </trkpt>
      <trkpt lat="48.771027" lon="2.154997">
        <ele>149.564434</ele>
        <time>2025-09-07T22:30:49.928Z</time>
      </trkpt>
      <trkpt lat="48.771100" lon="2.153269">
        <ele>145.989036</ele>
        <time>2025-09-07T22:31:12.108Z</time>
      </trkpt>
      <trkpt lat="48.771113" lon="2.152916">
        <ele>143.654086</ele>
        <time>2025-09-07T22:31:16.076Z</time>
      </trkpt>
      <trkpt lat="48.770885" lon="2.152343">
        <ele>138.773687</ele>
        <time>2025-09-07T22:31:27.381Z</time>
      </trkpt>
      <trkpt lat="48.770701" lon="2.152091">
        <ele>136.031416</ele>
        <time>2025-09-07T22:31:33.514Z</time>
      </trkpt>
      <trkpt lat="48.770701" lon="2.152091">
        <ele>136.031416</ele>
        <time>2025-09-07T22:31:33.521Z</time>
      </trkpt>
      <trkpt lat="48.770443" lon="2.151908">
        <ele>132.880607</ele>
        <time>2025-09-07T22:31:40.471Z</time>
      </trkpt>
      <trkpt lat="48.770214" lon="2.151657">
        <ele>129.755214</ele>
        <time>2025-09-07T22:31:47.355Z</time>
      </trkpt>
      <trkpt lat="48.770085" lon="2.151435">
        <ele>127.597191</ele>
        <time>2025-09-07T22:31:52.101Z</time>
      </trkpt>
      <trkpt lat="48.769952" lon="2.150986">
        <ele>124.664599</ele>
        <time>2025-09-07T22:32:00.140Z</time>
      </trkpt>
      <trkpt lat="48.769959" lon="2.150497">
        <ele>122.277361</ele>
        <time>2025-09-07T22:32:08.306Z</time>
      </trkpt>
      <trkpt lat="48.769993" lon="2.150328">
        <ele>121.414946</ele>
        <time>2025-09-07T22:32:11.340Z</time>
      </trkpt>
      <trkpt lat="48.770065" lon="2.149988">
        <ele>119.671949</ele>
        <time>2025-09-07T22:32:17.610Z</time>
      </trkpt>
      <trkpt lat="48.770223" lon="2.149565">
        <ele>117.298909</ele>
        <time>2025-09-07T22:32:26.583Z</time>
      </trkpt>
      <trkpt lat="48.770517" lon="2.148824">
        <ele>113.077564</ele>
        <time>2025-09-07T22:32:43.733Z</time>
      </trkpt>
      <trkpt lat="48.770786" lon="2.148239">
        <ele>111.252500</ele>
        <time>2025-09-07T22:32:58.677Z</time>
      </trkpt>
      <trkpt lat="48.770962" lon="2.147925">
        <ele>110.323108</ele>
        <time>2025-09-07T22:33:07.136Z</time>
      </trkpt>
      <trkpt lat="48.771064" lon="2.147825">
        <ele>109.907654</ele>
        <time>2025-09-07T22:33:10.891Z</time>
      </trkpt>
      <trkpt lat="48.771189" lon="2.147756">
        <ele>109.452602</ele>
        <time>2025-09-07T22:33:14.958Z</time>
      </trkpt>
      <trkpt lat="48.771280" lon="2.147759">
        <ele>109.141213</ele>
        <time>2025-09-07T22:33:17.732Z</time>
      </trkpt>
      <trkpt lat="48.771503" lon="2.147838">
        <ele>108.357800</ele>
        <time>2025-09-07T22:33:24.636Z</time>
      </trkpt>
      <trkpt lat="48.771545" lon="2.147828">
        <ele>108.212358</ele>
        <time>2025-09-07T22:33:25.942Z</time>
      </trkpt>
      <trkpt lat="48.771606" lon="2.147645">
        <ele>107.749978</ele>
        <time>2025-09-07T22:33:30.010Z</time>
      </trkpt>
      <trkpt lat="48.771639" lon="2.147594">
        <ele>107.588833</ele>
        <time>2025-09-07T22:33:31.422Z</time>
      </trkpt>
      <trkpt lat="48.771442" lon="2.147465">
        <ele>106.854802</ele>
        <time>2025-09-07T22:33:34.994Z</time>
      </trkpt>
      <trkpt lat="48.771223" lon="2.147331">
        <ele>106.020948</ele>
        <time>2025-09-07T22:33:38.945Z</time>
      </trkpt>
      <trkpt lat="48.771190" lon="2.147319">
        <ele>105.898490</ele>
        <time>2025-09-07T22:33:39.503Z</time>
      </trkpt>
      <trkpt lat="48.771171" lon="2.147314">
        <ele>105.828902</ele>
        <time>2025-09-07T22:33:39.814Z</time>
      </trkpt>
      <trkpt lat="48.771121" lon="2.147331">
        <ele>105.643996</ele>
        <time>2025-09-07T22:33:40.668Z</time>
      </trkpt>
      <trkpt lat="48.771021" lon="2.147324">
        <ele>105.282747</ele>
        <time>2025-09-07T22:33:42.322Z</time>
      </trkpt>
      <trkpt lat="48.771031" lon="2.147232">
        <ele>105.060983</ele>
        <time>2025-09-07T22:33:43.340Z</time>
      </trkpt>
      <trkpt lat="48.770935" lon="2.147081">
        <ele>104.561995</ele>
        <time>2025-09-07T22:33:45.557Z</time>
      </trkpt>
      <trkpt lat="48.770831" lon="2.146899">
        <ele>103.989092</ele>
        <time>2025-09-07T22:33:48.090Z</time>
      </trkpt>
      <trkpt lat="48.770731" lon="2.146726">
        <ele>103.441809</ele>
        <time>2025-09-07T22:33:50.523Z</time>
      </trkpt>
      <trkpt lat="48.770590" lon="2.146477">
        <ele>102.661031</ele>
        <time>2025-09-07T22:33:54.026Z</time>
      </trkpt>
      <trkpt lat="48.770577" lon="2.146453">
        <ele>102.587146</ele>
        <time>2025-09-07T22:33:54.362Z</time>
      </trkpt>
      <trkpt lat="48.770227" lon="2.145808">
        <ele>100.600048</ele>
        <time>2025-09-07T22:34:03.635Z</time>
      </trkpt>
      <trkpt lat="48.770139" lon="2.145637">
        <ele>100.084051</ele>
        <time>2025-09-07T22:34:06.222Z</time>
      </trkpt>
      <trkpt lat="48.770031" lon="2.145433">
        <ele>99.988980</ele>
        <time>2025-09-07T22:34:09.495Z</time>
      </trkpt>
      <trkpt lat="48.769916" lon="2.145274">
        <ele>99.947728</ele>
        <time>2025-09-07T22:34:12.510Z</time>
      </trkpt>
      <trkpt lat="48.769849" lon="2.145190">
        <ele>99.924683</ele>
        <time>2025-09-07T22:34:14.227Z</time>
      </trkpt>
      <trkpt lat="48.769713" lon="2.145018">
        <ele>99.877739</ele>
        <time>2025-09-07T22:34:17.818Z</time>
      </trkpt>
      <trkpt lat="48.769755" lon="2.144971">
        <ele>99.863902</ele>
        <time>2025-09-07T22:34:19.719Z</time>
      </trkpt>
      <trkpt lat="48.769963" lon="2.144329">
        <ele>99.738889</ele>
        <time>2025-09-07T22:34:37.501Z</time>
      </trkpt>
      <trkpt lat="48.771214" lon="2.141183">
        <ele>101.305071</ele>
        <time>2025-09-07T22:36:16.950Z</time>
      </trkpt>
      <trkpt lat="48.771234" lon="2.141029">
        <ele>101.509576</ele>
        <time>2025-09-07T22:36:21.517Z</time>
      </trkpt>
      <trkpt lat="48.771183" lon="2.141064">
        <ele>101.760310</ele>
        <time>2025-09-07T22:36:24.080Z</time>
      </trkpt>
      <trkpt lat="48.771139" lon="2.141086">
        <ele>101.967832</ele>
        <time>2025-09-07T22:36:25.549Z</time>
      </trkpt>
      <trkpt lat="48.770956" lon="2.141175">
        <ele>102.828654</ele>
        <time>2025-09-07T22:36:31.949Z</time>
      </trkpt>
      <trkpt lat="48.770876" lon="2.141168">
        <ele>103.187607</ele>
        <time>2025-09-07T22:36:34.837Z</time>
      </trkpt>
      <trkpt lat="48.770781" lon="2.141099">
        <ele>103.659400</ele>
        <time>2025-09-07T22:36:38.872Z</time>
      </trkpt>
      <trkpt lat="48.770164" lon="2.140301">
        <ele>107.291094</ele>
        <time>2025-09-07T22:37:16.794Z</time>
      </trkpt>
      <trkpt lat="48.770077" lon="2.140145">
        <ele>107.894414</ele>
        <time>2025-09-07T22:37:24.366Z</time>
      </trkpt>
      <trkpt lat="48.769928" lon="2.139877">
        <ele>108.929554</ele>
        <time>2025-09-07T22:37:38.204Z</time>
      </trkpt>
      <trkpt lat="48.769577" lon="2.139249">
        <ele>111.029984</ele>
        <time>2025-09-07T22:38:11.383Z</time>
      </trkpt>
      <trkpt lat="48.769587" lon="2.139011">
        <ele>111.613016</ele>
        <time>2025-09-07T22:38:20.562Z</time>
      </trkpt>
      <trkpt lat="48.769535" lon="2.138715">
        <ele>112.361928</ele>
        <time>2025-09-07T22:38:31.426Z</time>
      </trkpt>
      <trkpt lat="48.769538" lon="2.138632">
        <ele>112.565148</ele>
        <time>2025-09-07T22:38:34.016Z</time>
      </trkpt>
      <trkpt lat="48.769760" lon="2.137917">
        <ele>114.497396</ele>
        <time>2025-09-07T22:38:53.702Z</time>
      </trkpt>
      <trkpt lat="48.769826" lon="2.137626">
        <ele>115.249760</ele>
        <time>2025-09-07T22:38:59.541Z</time>
      </trkpt>
      <trkpt lat="48.769999" lon="2.137281">
        <ele>116.138287</ele>
        <time>2025-09-07T22:39:06.611Z</time>
      </trkpt>
      <trkpt lat="48.770170" lon="2.137215">
        <ele>116.232066</ele>
        <time>2025-09-07T22:39:10.617Z</time>
      </trkpt>
      <trkpt lat="48.770383" lon="2.137220">
        <ele>116.345286</ele>
        <time>2025-09-07T22:39:15.400Z</time>
      </trkpt>
      <trkpt lat="48.770496" lon="2.137002">
        <ele>116.442438</ele>
        <time>2025-09-07T22:39:19.496Z</time>
      </trkpt>
      <trkpt lat="48.770578" lon="2.136744">
        <ele>116.542772</ele>
        <time>2025-09-07T22:39:23.581Z</time>
      </trkpt>
      <trkpt lat="48.770719" lon="2.136091">
        <ele>116.783475</ele>
        <time>2025-09-07T22:39:33.359Z</time>
      </trkpt>
      <trkpt lat="48.770747" lon="2.135446">
        <ele>117.009901</ele>
        <time>2025-09-07T22:39:47.541Z</time>
      </trkpt>
      <trkpt lat="48.770780" lon="2.135118">
        <ele>117.757009</ele>
        <time>2025-09-07T22:39:57.031Z</time>
      </trkpt>
      <trkpt lat="48.770871" lon="2.134641">
        <ele>119.743994</ele>
        <time>2025-09-07T22:40:13.682Z</time>
      </trkpt>
      <trkpt lat="48.769921" lon="2.133485">
        <ele>127.137304</ele>
        <time>2025-09-07T22:41:43.371Z</time>
      </trkpt>
      <trkpt lat="48.767993" lon="2.131220">
        <ele>141.616998</ele>
        <time>2025-09-07T22:44:32.665Z</time>
      </trkpt>
      <trkpt lat="48.767906" lon="2.131088">
        <ele>142.101272</ele>
        <time>2025-09-07T22:44:39.790Z</time>
      </trkpt>
      <trkpt lat="48.767938" lon="2.130823">
        <ele>142.800186</ele>
        <time>2025-09-07T22:44:47.655Z</time>
      </trkpt>
      <trkpt lat="48.768041" lon="2.130458">
        <ele>143.830215</ele>
        <time>2025-09-07T22:44:58.480Z</time>
      </trkpt>
      <trkpt lat="48.767971" lon="2.130432">
        <ele>144.113868</ele>
        <time>2025-09-07T22:45:02.253Z</time>
      </trkpt>
      <trkpt lat="48.767967" lon="2.130109">
        <ele>144.951952</ele>
        <time>2025-09-07T22:45:09.841Z</time>
      </trkpt>
      <trkpt lat="48.767923" lon="2.129733">
        <ele>145.942637</ele>
        <time>2025-09-07T22:45:18.390Z</time>
      </trkpt>
      <trkpt lat="48.767881" lon="2.129745">
        <ele>146.110853</ele>
        <time>2025-09-07T22:45:19.786Z</time>
      </trkpt>
      <trkpt lat="48.767816" lon="2.129760">
        <ele>146.369633</ele>
        <time>2025-09-07T22:45:21.897Z</time>
      </trkpt>
      <trkpt lat="48.767707" lon="2.129682">
        <ele>146.789045</ele>
        <time>2025-09-07T22:45:25.756Z</time>
      </trkpt>
      <trkpt lat="48.767398" lon="2.129618">
        <ele>147.434292</ele>
        <time>2025-09-07T22:45:35.286Z</time>
      </trkpt>
      <trkpt lat="48.767189" lon="2.129492">
        <ele>147.899598</ele>
        <time>2025-09-07T22:45:42.060Z</time>
      </trkpt>
      <trkpt lat="48.765285" lon="2.128173">
        <ele>151.889218</ele>
        <time>2025-09-07T22:46:51.161Z</time>
      </trkpt>
      <trkpt lat="48.764983" lon="2.127953">
        <ele>152.449624</ele>
        <time>2025-09-07T22:47:01.668Z</time>
      </trkpt>
      <trkpt lat="48.761041" lon="2.125067">
        <ele>156.722107</ele>
        <time>2025-09-07T22:49:00.170Z</time>
      </trkpt>
      <trkpt lat="48.760964" lon="2.125014">
        <ele>156.681112</ele>
        <time>2025-09-07T22:49:02.152Z</time>
      </trkpt>
      <trkpt lat="48.760913" lon="2.125017">
        <ele>156.656367</ele>
        <time>2025-09-07T22:49:03.297Z</time>
      </trkpt>
      <trkpt lat="48.760815" lon="2.125040">
        <ele>156.608288</ele>
        <time>2025-09-07T22:49:05.557Z</time>
      </trkpt>
      <trkpt lat="48.760767" lon="2.125107">
        <ele>156.576664</ele>
        <time>2025-09-07T22:49:07.012Z</time>
      </trkpt>
      <trkpt lat="48.760739" lon="2.125072">
        <ele>156.559074</ele>
        <time>2025-09-07T22:49:07.812Z</time>
      </trkpt>
      <trkpt lat="48.760697" lon="2.125018">
        <ele>156.532381</ele>
        <time>2025-09-07T22:49:09.022Z</time>
      </trkpt>
      <trkpt lat="48.760678" lon="2.124995">
        <ele>156.520596</ele>
        <time>2025-09-07T22:49:09.550Z</time>
      </trkpt>
      <trkpt lat="48.760653" lon="2.124952">
        <ele>156.502271</ele>
        <time>2025-09-07T22:49:10.372Z</time>
      </trkpt>
      <trkpt lat="48.760624" lon="2.124774">
        <ele>156.443671</ele>
        <time>2025-09-07T22:49:12.970Z</time>
      </trkpt>
      <trkpt lat="48.759875" lon="2.124218">
        <ele>156.039386</ele>
        <time>2025-09-07T22:49:29.796Z</time>
      </trkpt>
      <trkpt lat="48.759005" lon="2.123584">
        <ele>154.507920</ele>
        <time>2025-09-07T22:49:47.890Z</time>
      </trkpt>
      <trkpt lat="48.758830" lon="2.123353">
        <ele>154.067137</ele>
        <time>2025-09-07T22:49:52.107Z</time>
      </trkpt>
      <trkpt lat="48.757434" lon="2.122328">
        <ele>151.216147</ele>
        <time>2025-09-07T22:50:20.233Z</time>
      </trkpt>
      <trkpt lat="48.755715" lon="2.121095">
        <ele>148.366982</ele>
        <time>2025-09-07T22:50:56.506Z</time>
      </trkpt>
      <trkpt lat="48.755483" lon="2.120955">
        <ele>148.078724</ele>
        <time>2025-09-07T22:51:01.287Z</time>
      </trkpt>
      <trkpt lat="48.755127" lon="2.120796">
        <ele>147.650282</ele>
        <time>2025-09-07T22:51:08.566Z</time>
      </trkpt>
      <trkpt lat="48.754569" lon="2.120659">
        <ele>147.300093</ele>
        <time>2025-09-07T22:51:20.033Z</time>
      </trkpt>
      <trkpt lat="48.750931" lon="2.120140">
        <ele>148.826604</ele>
        <time>2025-09-07T22:52:49.426Z</time>
      </trkpt>
      <trkpt lat="48.750869" lon="2.120129">
        <ele>148.910601</ele>
        <time>2025-09-07T22:52:51.116Z</time>
      </trkpt>
      <trkpt lat="48.750846" lon="2.120125">
        <ele>148.941753</ele>
        <time>2025-09-07T22:52:51.736Z</time>
      </trkpt>
      <trkpt lat="48.750544" lon="2.120086">
        <ele>149.349597</ele>
        <time>2025-09-07T22:53:00.118Z</time>
      </trkpt>
      <trkpt lat="48.750420" lon="2.120154">
        <ele>149.527025</ele>
        <time>2025-09-07T22:53:03.834Z</time>
      </trkpt>
      <trkpt lat="48.750395" lon="2.120132">
        <ele>149.565917</ele>
        <time>2025-09-07T22:53:04.692Z</time>
      </trkpt>
      <trkpt lat="48.750350" lon="2.119985">
        <ele>149.709709</ele>
        <time>2025-09-07T22:53:07.780Z</time>
      </trkpt>
      <trkpt lat="48.750324" lon="2.119927">
        <ele>149.771935</ele>
        <time>2025-09-07T22:53:09.122Z</time>
      </trkpt>
      <trkpt lat="48.750230" lon="2.119849">
        <ele>149.916115</ele>
        <time>2025-09-07T22:53:12.295Z</time>
      </trkpt>
      <trkpt lat="48.750140" lon="2.119794">
        <ele>150.046681</ele>
        <time>2025-09-07T22:53:15.226Z</time>
      </trkpt>
      <trkpt lat="48.749992" lon="2.119765">
        <ele>150.247487</ele>
        <time>2025-09-07T22:53:19.818Z</time>
      </trkpt>
      <trkpt lat="48.749908" lon="2.119751">
        <ele>150.361198</ele>
        <time>2025-09-07T22:53:22.472Z</time>
      </trkpt>
      <trkpt lat="48.749828" lon="2.119811">
        <ele>150.481290</ele>
        <time>2025-09-07T22:53:25.346Z</time>
      </trkpt>
      <trkpt lat="48.749244" lon="2.119667">
        <ele>151.413947</ele>
        <time>2025-09-07T22:53:44.959Z</time>
      </trkpt>
      <trkpt lat="48.748929" lon="2.119518">
        <ele>152.005383</ele>
        <time>2025-09-07T22:53:55.742Z</time>
      </trkpt>
      <trkpt lat="48.748649" lon="2.119305">
        <ele>152.566855</ele>
        <time>2025-09-07T22:54:05.882Z</time>
      </trkpt>
      <trkpt lat="48.748150" lon="2.118742">
        <ele>153.681630</ele>
        <time>2025-09-07T22:54:25.305Z</time>
      </trkpt>
      <trkpt lat="48.747953" lon="2.118403">
        <ele>154.150020</ele>
        <time>2025-09-07T22:54:34.078Z</time>
      </trkpt>
      <trkpt lat="48.747698" lon="2.117860">
        <ele>154.525380</ele>
        <time>2025-09-07T22:54:45.665Z</time>
      </trkpt>
      <trkpt lat="48.747687" lon="2.117796">
        <ele>154.562620</ele>
        <time>2025-09-07T22:54:46.798Z</time>
      </trkpt>
      <trkpt lat="48.747711" lon="2.117653">
        <ele>154.645706</ele>
        <time>2025-09-07T22:54:49.318Z</time>
      </trkpt>
      <trkpt lat="48.747682" lon="2.117525">
        <ele>154.721914</ele>
        <time>2025-09-07T22:54:51.603Z</time>
      </trkpt>
      <trkpt lat="48.747617" lon="2.117442">
        <ele>154.794474</ele>
        <time>2025-09-07T22:54:53.795Z</time>
      </trkpt>
      <trkpt lat="48.747527" lon="2.117407">
        <ele>154.873815</ele>
        <time>2025-09-07T22:54:56.143Z</time>
      </trkpt>
      <trkpt lat="48.747469" lon="2.117284">
        <ele>154.958960</ele>
        <time>2025-09-07T22:54:58.710Z</time>
      </trkpt>
      <trkpt lat="48.747336" lon="2.117019">
        <ele>155.146479</ele>
        <time>2025-09-07T22:55:04.227Z</time>
      </trkpt>
      <trkpt lat="48.747226" lon="2.116921">
        <ele>155.255421</ele>
        <time>2025-09-07T22:55:07.433Z</time>
      </trkpt>
      <trkpt lat="48.747014" lon="2.116364">
        <ele>155.617550</ele>
        <time>2025-09-07T22:55:18.311Z</time>
      </trkpt>
      <trkpt lat="48.746886" lon="2.115926">
        <ele>155.965025</ele>
        <time>2025-09-07T22:55:26.386Z</time>
      </trkpt>
      <trkpt lat="48.746804" lon="2.115705">
        <ele>156.150310</ele>
        <time>2025-09-07T22:55:30.736Z</time>
      </trkpt>
      <trkpt lat="48.746762" lon="2.115594">
        <ele>156.243817</ele>
        <time>2025-09-07T22:55:33.078Z</time>
      </trkpt>
      <trkpt lat="48.746384" lon="2.114782">
        <ele>156.970071</ele>
        <time>2025-09-07T22:55:51.970Z</time>
      </trkpt>
      <trkpt lat="48.746174" lon="2.114447">
        <ele>157.307802</ele>
        <time>2025-09-07T22:56:00.937Z</time>
      </trkpt>
      <trkpt lat="48.746142" lon="2.114383">
        <ele>157.366488</ele>
        <time>2025-09-07T22:56:02.493Z</time>
      </trkpt>
      <trkpt lat="48.746136" lon="2.114249">
        <ele>157.464623</ele>
        <time>2025-09-07T22:56:05.123Z</time>
      </trkpt>
      <trkpt lat="48.746150" lon="2.114180">
        <ele>157.517372</ele>
        <time>2025-09-07T22:56:06.504Z</time>
      </trkpt>
      <trkpt lat="48.746140" lon="2.113938">
        <ele>157.655709</ele>
        <time>2025-09-07T22:56:11.112Z</time>
      </trkpt>
      <trkpt lat="48.746087" lon="2.113769">
        <ele>157.721919</ele>
        <time>2025-09-07T22:56:14.607Z</time>
      </trkpt>
      <trkpt lat="48.746060" lon="2.113657">
        <ele>157.764110</ele>
        <time>2025-09-07T22:56:16.804Z</time>
      </trkpt>
      <trkpt lat="48.746060" lon="2.113374">
        <ele>157.864235</ele>
        <time>2025-09-07T22:56:21.892Z</time>
      </trkpt>
      <trkpt lat="48.746063" lon="2.113220">
        <ele>157.918744</ele>
        <time>2025-09-07T22:56:24.536Z</time>
      </trkpt>
      <trkpt lat="48.746064" lon="2.113124">
        <ele>157.952713</ele>
        <time>2025-09-07T22:56:26.148Z</time>
      </trkpt>
      <trkpt lat="48.746044" lon="2.113102">
        <ele>157.965970</ele>
        <time>2025-09-07T22:56:26.758Z</time>
      </trkpt>
      <trkpt lat="48.745943" lon="2.113106">
        <ele>158.020180</ele>
        <time>2025-09-07T22:56:29.197Z</time>
      </trkpt>
      <trkpt lat="48.745907" lon="2.113107">
        <ele>158.039499</ele>
        <time>2025-09-07T22:56:30.111Z</time>
      </trkpt>
      <trkpt lat="48.745923" lon="2.112837">
        <ele>158.135410</ele>
        <time>2025-09-07T22:56:34.450Z</time>
      </trkpt>
      <trkpt lat="48.745940" lon="2.112570">
        <ele>158.230314</ele>
        <time>2025-09-07T22:56:38.538Z</time>
      </trkpt>
      <trkpt lat="48.745955" lon="2.112278">
        <ele>158.333937</ele>
        <time>2025-09-07T22:56:43.021Z</time>
      </trkpt>
      <trkpt lat="48.745962" lon="2.112140">
        <ele>158.382906</ele>
        <time>2025-09-07T22:56:45.159Z</time>
      </trkpt>
      <trkpt lat="48.746004" lon="2.111914">
        <ele>158.465979</ele>
        <time>2025-09-07T22:56:48.661Z</time>
      </trkpt>
      <trkpt lat="48.746026" lon="2.111818">
        <ele>158.501937</ele>
        <time>2025-09-07T22:56:50.130Z</time>
      </trkpt>
      <trkpt lat="48.746016" lon="2.111782">
        <ele>158.515758</ele>
        <time>2025-09-07T22:56:50.720Z</time>
      </trkpt>
      <trkpt lat="48.746069" lon="2.111648">
        <ele>158.571042</ele>
        <time>2025-09-07T22:56:53.063Z</time>
      </trkpt>
      <trkpt lat="48.746065" lon="2.111569">
        <ele>158.592713</ele>
        <time>2025-09-07T22:56:54.246Z</time>
      </trkpt>
      <trkpt lat="48.746097" lon="2.111037">
        <ele>158.700244</ele>
        <time>2025-09-07T22:57:02.065Z</time>
      </trkpt>
      <trkpt lat="48.746098" lon="2.110484">
        <ele>158.811558</ele>
        <time>2025-09-07T22:57:10.380Z</time>
      </trkpt>
      <trkpt lat="48.746076" lon="2.109085">
        <ele>159.093243</ele>
        <time>2025-09-07T22:57:33.312Z</time>
      </trkpt>
      <trkpt lat="48.746070" lon="2.108658">
        <ele>159.184321</ele>
        <time>2025-09-07T22:57:40.217Z</time>
      </trkpt>
      <trkpt lat="48.746044" lon="2.108082">
        <ele>159.313486</ele>
        <time>2025-09-07T22:57:49.434Z</time>
      </trkpt>
      <trkpt lat="48.746016" lon="2.107975">
        <ele>159.339240</ele>
        <time>2025-09-07T22:57:51.260Z</time>
      </trkpt>
      <trkpt lat="48.745936" lon="2.107663">
        <ele>159.414133</ele>
        <time>2025-09-07T22:57:56.552Z</time>
      </trkpt>
      <trkpt lat="48.745723" lon="2.107287">
        <ele>159.525032</ele>
        <time>2025-09-07T22:58:04.340Z</time>
      </trkpt>
      <trkpt lat="48.745072" lon="2.106413">
        <ele>159.795971</ele>
        <time>2025-09-07T22:58:24.805Z</time>
      </trkpt>
      <trkpt lat="48.745082" lon="2.106342">
        <ele>159.807101</ele>
        <time>2025-09-07T22:58:25.940Z</time>
      </trkpt>
      <trkpt lat="48.745488" lon="2.101263">
        <ele>160.558527</ele>
        <time>2025-09-07T22:59:44.494Z</time>
      </trkpt>
      <trkpt lat="48.745559" lon="2.100947">
        <ele>160.571730</ele>
        <time>2025-09-07T22:59:49.812Z</time>
      </trkpt>
      <trkpt lat="48.746231" lon="2.098947">
        <ele>160.660507</ele>
        <time>2025-09-07T23:00:23.733Z</time>
      </trkpt>
      <trkpt lat="48.746255" lon="2.098826">
        <ele>160.643004</ele>
        <time>2025-09-07T23:00:25.498Z</time>
      </trkpt>
      <trkpt lat="48.746184" lon="2.098794">
        <ele>160.598947</ele>
        <time>2025-09-07T23:00:27.067Z</time>
      </trkpt>
      <trkpt lat="48.745903" lon="2.098540">
        <ele>160.404368</ele>
        <time>2025-09-07T23:00:33.880Z</time>
      </trkpt>
      <trkpt lat="48.745619" lon="2.098354">
        <ele>160.220362</ele>
        <time>2025-09-07T23:00:40.231Z</time>
      </trkpt>
      <trkpt lat="48.745252" lon="2.098221">
        <ele>159.995921</ele>
        <time>2025-09-07T23:00:47.816Z</time>
      </trkpt>
      <trkpt lat="48.742728" lon="2.097869">
        <ele>158.196223</ele>
        <time>2025-09-07T23:01:39.481Z</time>
      </trkpt>
      <trkpt lat="48.742455" lon="2.097901">
        <ele>158.019796</ele>
        <time>2025-09-07T23:01:45.022Z</time>
      </trkpt>
      <trkpt lat="48.742019" lon="2.098052">
        <ele>157.731635</ele>
        <time>2025-09-07T23:01:54.136Z</time>
      </trkpt>
      <trkpt lat="48.741731" lon="2.098035">
        <ele>157.545927</ele>
        <time>2025-09-07T23:02:00.002Z</time>
      </trkpt>
      <trkpt lat="48.741394" lon="2.097959">
        <ele>157.326400</ele>
        <time>2025-09-07T23:02:06.933Z</time>
      </trkpt>
      <trkpt lat="48.740820" lon="2.097768">
        <ele>157.061908</ele>
        <time>2025-09-07T23:02:19.467Z</time>
      </trkpt>
      <trkpt lat="48.740668" lon="2.097415">
        <ele>157.042582</ele>
        <time>2025-09-07T23:02:25.769Z</time>
      </trkpt>
      <trkpt lat="48.740604" lon="2.097194">
        <ele>157.031517</ele>
        <time>2025-09-07T23:02:29.397Z</time>
      </trkpt>
      <trkpt lat="48.740638" lon="2.097100">
        <ele>157.026602</ele>
        <time>2025-09-07T23:02:30.958Z</time>
      </trkpt>
      <trkpt lat="48.740666" lon="2.096891">
        <ele>157.016826</ele>
        <time>2025-09-07T23:02:34.056Z</time>
      </trkpt>
      <trkpt lat="48.740627" lon="2.096692">
        <ele>157.007309</ele>
        <time>2025-09-07T23:02:37.084Z</time>
      </trkpt>
      <trkpt lat="48.740568" lon="2.096544">
        <ele>156.999381</ele>
        <time>2025-09-07T23:02:39.601Z</time>
      </trkpt>
      <trkpt lat="48.740547" lon="2.096489">
        <ele>156.996468</ele>
        <time>2025-09-07T23:02:40.571Z</time>
      </trkpt>
      <trkpt lat="48.740445" lon="2.096393">
        <ele>156.988123</ele>
        <time>2025-09-07T23:02:43.267Z</time>
      </trkpt>
      <trkpt lat="48.740242" lon="2.096364">
        <ele>156.973949</ele>
        <time>2025-09-07T23:02:47.946Z</time>
      </trkpt>
      <trkpt lat="48.740124" lon="2.096452">
        <ele>156.964808</ele>
        <time>2025-09-07T23:02:51.003Z</time>
      </trkpt>
      <trkpt lat="48.739989" lon="2.096373">
        <ele>156.954750</ele>
        <time>2025-09-07T23:02:54.423Z</time>
      </trkpt>
      <trkpt lat="48.739725" lon="2.095948">
        <ele>156.807478</ele>
        <time>2025-09-07T23:03:03.219Z</time>
      </trkpt>
      <trkpt lat="48.739702" lon="2.095912">
        <ele>156.792982</ele>
        <time>2025-09-07T23:03:03.940Z</time>
      </trkpt>
      <trkpt lat="48.739505" lon="2.095604">
        <ele>156.668889</ele>
        <time>2025-09-07T23:03:10.161Z</time>
      </trkpt>
      <trkpt lat="48.739142" lon="2.094965">
        <ele>156.424969</ele>
        <time>2025-09-07T23:03:21.966Z</time>
      </trkpt>
      <trkpt lat="48.739006" lon="2.094787">
        <ele>156.346181</ele>
        <time>2025-09-07T23:03:25.691Z</time>
      </trkpt>
      <trkpt lat="48.738829" lon="2.094614">
        <ele>156.253829</ele>
        <time>2025-09-07T23:03:29.980Z</time>
      </trkpt>
      <trkpt lat="48.738667" lon="2.094473">
        <ele>156.171912</ele>
        <time>2025-09-07T23:03:33.719Z</time>
      </trkpt>
      <trkpt lat="48.738316" lon="2.094161">
        <ele>155.471186</ele>
        <time>2025-09-07T23:03:41.583Z</time>
      </trkpt>
      <trkpt lat="48.738156" lon="2.094019">
        <ele>155.137731</ele>
        <time>2025-09-07T23:03:45.115Z</time>
      </trkpt>
      <trkpt lat="48.738135" lon="2.093999">
        <ele>155.093127</ele>
        <time>2025-09-07T23:03:45.575Z</time>
      </trkpt>
      <trkpt lat="48.738112" lon="2.093976">
        <ele>155.043572</ele>
        <time>2025-09-07T23:03:46.099Z</time>
      </trkpt>
      <trkpt lat="48.738097" lon="2.093963">
        <ele>155.012496</ele>
        <time>2025-09-07T23:03:46.427Z</time>
      </trkpt>
      <trkpt lat="48.738005" lon="2.093883">
        <ele>154.821741</ele>
        <time>2025-09-07T23:03:48.413Z</time>
      </trkpt>
      <trkpt lat="48.737851" lon="2.093752">
        <ele>154.504137</ele>
        <time>2025-09-07T23:03:51.688Z</time>
      </trkpt>
      <trkpt lat="48.737709" lon="2.093596">
        <ele>154.188738</ele>
        <time>2025-09-07T23:03:54.887Z</time>
      </trkpt>
      <trkpt lat="48.737328" lon="2.092888">
        <ele>153.104783</ele>
        <time>2025-09-07T23:04:05.583Z</time>
      </trkpt>
      <trkpt lat="48.737074" lon="2.092501">
        <ele>152.576714</ele>
        <time>2025-09-07T23:04:11.993Z</time>
      </trkpt>
      <trkpt lat="48.736798" lon="2.092064">
        <ele>152.041736</ele>
        <time>2025-09-07T23:04:19.885Z</time>
      </trkpt>
      <trkpt lat="48.736488" lon="2.091575">
        <ele>151.442024</ele>
        <time>2025-09-07T23:04:29.180Z</time>
      </trkpt>
      <trkpt lat="48.736437" lon="2.091458">
        <ele>151.318022</ele>
        <time>2025-09-07T23:04:31.101Z</time>
      </trkpt>
      <trkpt lat="48.736373" lon="2.091328">
        <ele>151.174587</ele>
        <time>2025-09-07T23:04:33.266Z</time>
      </trkpt>
      <trkpt lat="48.736393" lon="2.091146">
        <ele>151.011448</ele>
        <time>2025-09-07T23:04:35.729Z</time>
      </trkpt>
      <trkpt lat="48.736439" lon="2.090495">
        <ele>150.320173</ele>
        <time>2025-09-07T23:04:43.992Z</time>
      </trkpt>
      <trkpt lat="48.736375" lon="2.089554">
        <ele>148.349807</ele>
        <time>2025-09-07T23:04:55.500Z</time>
      </trkpt>
      <trkpt lat="48.736559" lon="2.089019">
        <ele>147.093066</ele>
        <time>2025-09-07T23:05:02.101Z</time>
      </trkpt>
      <trkpt lat="48.736724" lon="2.088595">
        <ele>146.067663</ele>
        <time>2025-09-07T23:05:07.315Z</time>
      </trkpt>
      <trkpt lat="48.736941" lon="2.088214">
        <ele>145.019142</ele>
        <time>2025-09-07T23:05:12.722Z</time>
      </trkpt>
      <trkpt lat="48.737611" lon="2.087221">
        <ele>138.941362</ele>
        <time>2025-09-07T23:05:28.285Z</time>
      </trkpt>
      <trkpt lat="48.737814" lon="2.087007">
        <ele>137.282902</ele>
        <time>2025-09-07T23:05:32.043Z</time>
      </trkpt>
      <trkpt lat="48.737888" lon="2.086696">
        <ele>135.820270</ele>
        <time>2025-09-07T23:05:37.796Z</time>
      </trkpt>
      <trkpt lat="48.738022" lon="2.086412">
        <ele>134.275463</ele>
        <time>2025-09-07T23:05:43.694Z</time>
      </trkpt>
      <trkpt lat="48.738369" lon="2.086012">
        <ele>130.891343</ele>
        <time>2025-09-07T23:05:54.661Z</time>
      </trkpt>
      <trkpt lat="48.738580" lon="2.085707">
        <ele>128.301443</ele>
        <time>2025-09-07T23:06:02.073Z</time>
      </trkpt>
      <trkpt lat="48.738635" lon="2.085052">
        <ele>124.432723</ele>
        <time>2025-09-07T23:06:13.139Z</time>
      </trkpt>
      <trkpt lat="48.738758" lon="2.084904">
        <ele>123.037700</ele>
        <time>2025-09-07T23:06:17.217Z</time>
      </trkpt>
      <trkpt lat="48.738802" lon="2.084851">
        <ele>122.538460</ele>
        <time>2025-09-07T23:06:18.715Z</time>
      </trkpt>
      <trkpt lat="48.739137" lon="2.084686">
        <ele>119.409151</ele>
        <time>2025-09-07T23:06:28.020Z</time>
      </trkpt>
      <trkpt lat="48.739482" lon="2.083898">
        <ele>115.910303</ele>
        <time>2025-09-07T23:06:45.863Z</time>
      </trkpt>
      <trkpt lat="48.739576" lon="2.083581">
        <ele>115.297151</ele>
        <time>2025-09-07T23:06:53.131Z</time>
      </trkpt>
      <trkpt lat="48.739588" lon="2.083542">
        <ele>115.221231</ele>
        <time>2025-09-07T23:06:54.026Z</time>
      </trkpt>
      <trkpt lat="48.739438" lon="2.082712">
        <ele>113.703038</ele>
        <time>2025-09-07T23:07:11.671Z</time>
      </trkpt>
      <trkpt lat="48.739414" lon="2.082567">
        <ele>113.439308</ele>
        <time>2025-09-07T23:07:14.905Z</time>
      </trkpt>
      <trkpt lat="48.739375" lon="2.082329">
        <ele>113.006683</ele>
        <time>2025-09-07T23:07:20.337Z</time>
      </trkpt>
      <trkpt lat="48.739213" lon="2.081802">
        <ele>111.980958</ele>
        <time>2025-09-07T23:07:33.869Z</time>
      </trkpt>
      <trkpt lat="48.738905" lon="2.081529">
        <ele>112.660087</ele>
        <time>2025-09-07T23:07:47.932Z</time>
      </trkpt>
      <trkpt lat="48.738881" lon="2.081465">
        <ele>112.752960</ele>
        <time>2025-09-07T23:07:50.040Z</time>
      </trkpt>
      <trkpt lat="48.738937" lon="2.080971">
        <ele>113.385269</ele>
        <time>2025-09-07T23:08:05.368Z</time>
      </trkpt>
      <trkpt lat="48.739293" lon="2.081305">
        <ele>114.186034</ele>
        <time>2025-09-07T23:08:21.211Z</time>
      </trkpt>
      <trkpt lat="48.739498" lon="2.081386">
        <ele>114.591253</ele>
        <time>2025-09-07T23:08:29.514Z</time>
      </trkpt>
      <trkpt lat="48.739588" lon="2.081378">
        <ele>114.763701</ele>
        <time>2025-09-07T23:08:32.994Z</time>
      </trkpt>
      <trkpt lat="48.739877" lon="2.081043">
        <ele>115.461785</ele>
        <time>2025-09-07T23:08:47.185Z</time>
      </trkpt>
      <trkpt lat="48.740061" lon="2.080075">
        <ele>116.804382</ele>
        <time>2025-09-07T23:09:14.804Z</time>
      </trkpt>
      <trkpt lat="48.740468" lon="2.078805">
        <ele>118.686197</ele>
        <time>2025-09-07T23:09:47.701Z</time>
      </trkpt>
      <trkpt lat="48.740627" lon="2.078307">
        <ele>118.835253</ele>
        <time>2025-09-07T23:09:56.497Z</time>
      </trkpt>
      <trkpt lat="48.740944" lon="2.078133">
        <ele>118.431022</ele>
        <time>2025-09-07T23:10:03.971Z</time>
      </trkpt>
      <trkpt lat="48.741236" lon="2.077813">
        <ele>117.999039</ele>
        <time>2025-09-07T23:10:11.554Z</time>
      </trkpt>
      <trkpt lat="48.741371" lon="2.077308">
        <ele>117.568164</ele>
        <time>2025-09-07T23:10:18.851Z</time>
      </trkpt>
      <trkpt lat="48.741534" lon="2.076847">
        <ele>117.154553</ele>
        <time>2025-09-07T23:10:25.881Z</time>
      </trkpt>
      <trkpt lat="48.741673" lon="2.076193">
        <ele>116.796623</ele>
        <time>2025-09-07T23:10:35.825Z</time>
      </trkpt>
      <trkpt lat="48.741755" lon="2.075972">
        <ele>116.725882</ele>
        <time>2025-09-07T23:10:39.655Z</time>
      </trkpt>
      <trkpt lat="48.742106" lon="2.075270">
        <ele>116.480120</ele>
        <time>2025-09-07T23:10:53.415Z</time>
      </trkpt>
      <trkpt lat="48.742365" lon="2.074598">
        <ele>116.262984</ele>
        <time>2025-09-07T23:11:05.793Z</time>
      </trkpt>
      <trkpt lat="48.742680" lon="2.073964">
        <ele>116.329666</ele>
        <time>2025-09-07T23:11:19.499Z</time>
      </trkpt>
      <trkpt lat="48.743461" lon="2.072556">
        <ele>117.368725</ele>
        <time>2025-09-07T23:11:54.220Z</time>
      </trkpt>
      <trkpt lat="48.743639" lon="2.072385">
        <ele>117.549179</ele>
        <time>2025-09-07T23:12:00.700Z</time>
      </trkpt>
      <trkpt lat="48.744045" lon="2.071906">
        <ele>118.251749</ele>
        <time>2025-09-07T23:12:17.726Z</time>
      </trkpt>
      <trkpt lat="48.744115" lon="2.071525">
        <ele>118.662373</ele>
        <time>2025-09-07T23:12:26.759Z</time>
      </trkpt>
      <trkpt lat="48.743972" lon="2.070592">
        <ele>119.656842</ele>
        <time>2025-09-07T23:12:47.877Z</time>
      </trkpt>
      <trkpt lat="48.743988" lon="2.070084">
        <ele>120.184854</ele>
        <time>2025-09-07T23:12:59.186Z</time>
      </trkpt>
      <trkpt lat="48.744030" lon="2.069901">
        <ele>120.386025</ele>
        <time>2025-09-07T23:13:03.331Z</time>
      </trkpt>
      <trkpt lat="48.744244" lon="2.069584">
        <ele>121.007088</ele>
        <time>2025-09-07T23:13:12.261Z</time>
      </trkpt>
      <trkpt lat="48.744349" lon="2.069339">
        <ele>121.441258</ele>
        <time>2025-09-07T23:13:17.634Z</time>
      </trkpt>
      <trkpt lat="48.744375" lon="2.069119">
        <ele>121.773359</ele>
        <time>2025-09-07T23:13:21.875Z</time>
      </trkpt>
      <trkpt lat="48.744378" lon="2.068711">
        <ele>122.379635</ele>
        <time>2025-09-07T23:13:29.979Z</time>
      </trkpt>
      <trkpt lat="48.744211" lon="2.067909">
        <ele>123.629312</ele>
        <time>2025-09-07T23:13:50.466Z</time>
      </trkpt>
      <trkpt lat="48.743687" lon="2.067945">
        <ele>125.127632</ele>
        <time>2025-09-07T23:14:19.189Z</time>
      </trkpt>
      <trkpt lat="48.743476" lon="2.067910">
        <ele>126.212717</ele>
        <time>2025-09-07T23:14:31.860Z</time>
      </trkpt>
      <trkpt lat="48.742962" lon="2.067512">
        <ele>129.163055</ele>
        <time>2025-09-07T23:15:08.764Z</time>
      </trkpt>
      <trkpt lat="48.742793" lon="2.067278">
        <ele>130.332955</ele>
        <time>2025-09-07T23:15:23.854Z</time>
      </trkpt>
      <trkpt lat="48.742550" lon="2.066754">
        <ele>132.492485</ele>
        <time>2025-09-07T23:15:51.407Z</time>
      </trkpt>
      <trkpt lat="48.742499" lon="2.066545">
        <ele>133.243742</ele>
        <time>2025-09-07T23:16:01.006Z</time>
      </trkpt>
      <trkpt lat="48.742454" lon="2.066174">
        <ele>134.424807</ele>
        <time>2025-09-07T23:16:17.728Z</time>
      </trkpt>
      <trkpt lat="48.742440" lon="2.065794">
        <ele>135.554612</ele>
        <time>2025-09-07T23:16:34.455Z</time>
      </trkpt>
      <trkpt lat="48.742239" lon="2.064673">
        <ele>139.003172</ele>
        <time>2025-09-07T23:17:19.301Z</time>
      </trkpt>
      <trkpt lat="48.742221" lon="2.064513">
        <ele>139.485003</ele>
        <time>2025-09-07T23:17:25.123Z</time>
      </trkpt>
      <trkpt lat="48.742290" lon="2.064419">
        <ele>139.902548</ele>
        <time>2025-09-07T23:17:30.281Z</time>
      </trkpt>
      <trkpt lat="48.742408" lon="2.064470">
        <ele>140.454887</ele>
        <time>2025-09-07T23:17:37.126Z</time>
      </trkpt>
      <trkpt lat="48.742624" lon="2.064687">
        <ele>141.621251</ele>
        <time>2025-09-07T23:17:51.778Z</time>
      </trkpt>
      <trkpt lat="48.742792" lon="2.064794">
        <ele>142.345075</ele>
        <time>2025-09-07T23:18:02.049Z</time>
      </trkpt>
      <trkpt lat="48.742841" lon="2.064812">
        <ele>142.534814</ele>
        <time>2025-09-07T23:18:04.894Z</time>
      </trkpt>
      <trkpt lat="48.742944" lon="2.064751">
        <ele>142.950954</ele>
        <time>2025-09-07T23:18:11.020Z</time>
      </trkpt>
      <trkpt lat="48.743063" lon="2.064489">
        <ele>143.740467</ele>
        <time>2025-09-07T23:18:22.646Z</time>
      </trkpt>
      <trkpt lat="48.743073" lon="2.064368">
        <ele>144.043103</ele>
        <time>2025-09-07T23:18:27.034Z</time>
      </trkpt>
      <trkpt lat="48.743059" lon="2.064226">
        <ele>144.399422</ele>
        <time>2025-09-07T23:18:32.246Z</time>
      </trkpt>
      <trkpt lat="48.742874" lon="2.063826">
        <ele>145.611919</ele>
        <time>2025-09-07T23:18:50.756Z</time>
      </trkpt>
      <trkpt lat="48.743114" lon="2.063515">
        <ele>146.799976</ele>
        <time>2025-09-07T23:19:10.933Z</time>
      </trkpt>
      <trkpt lat="48.743294" lon="2.063082">
        <ele>148.070249</ele>
        <time>2025-09-07T23:19:32.002Z</time>
      </trkpt>
      <trkpt lat="48.743564" lon="2.062174">
        <ele>146.434256</ele>
        <time>2025-09-07T23:19:52.255Z</time>
      </trkpt>
      <trkpt lat="48.743589" lon="2.062106">
        <ele>146.214031</ele>
        <time>2025-09-07T23:19:53.219Z</time>
      </trkpt>
      <trkpt lat="48.743650" lon="2.061991">
        <ele>145.796552</ele>
        <time>2025-09-07T23:19:54.994Z</time>
      </trkpt>
      <trkpt lat="48.743698" lon="2.061956">
        <ele>145.568086</ele>
        <time>2025-09-07T23:19:55.916Z</time>
      </trkpt>
      <trkpt lat="48.743686" lon="2.062094">
        <ele>145.174348</ele>
        <time>2025-09-07T23:19:58.714Z</time>
      </trkpt>
      <trkpt lat="48.744003" lon="2.062494">
        <ele>143.405369</ele>
        <time>2025-09-07T23:20:10.287Z</time>
      </trkpt>
      <trkpt lat="48.744003" lon="2.062494">
        <ele>143.405369</ele>
        <time>2025-09-07T23:20:10.290Z</time>
      </trkpt>
      <trkpt lat="48.744161" lon="2.062794">
        <ele>142.319334</ele>
        <time>2025-09-07T23:20:17.006Z</time>
      </trkpt>
      <trkpt lat="48.744267" lon="2.063099">
        <ele>141.344106</ele>
        <time>2025-09-07T23:20:22.844Z</time>
      </trkpt>
      <trkpt lat="48.744411" lon="2.063401">
        <ele>139.562275</ele>
        <time>2025-09-07T23:20:29.019Z</time>
      </trkpt>
      <trkpt lat="48.744530" lon="2.063651">
        <ele>137.661612</ele>
        <time>2025-09-07T23:20:34.087Z</time>
      </trkpt>
      <trkpt lat="48.744666" lon="2.063880">
        <ele>135.761848</ele>
        <time>2025-09-07T23:20:39.153Z</time>
      </trkpt>
      <trkpt lat="48.745474" lon="2.064612">
        <ele>126.963305</ele>
        <time>2025-09-07T23:21:03.285Z</time>
      </trkpt>
      <trkpt lat="48.745609" lon="2.064774">
        <ele>125.353987</ele>
        <time>2025-09-07T23:21:07.946Z</time>
      </trkpt>
      <trkpt lat="48.745650" lon="2.064864">
        <ele>124.679682</ele>
        <time>2025-09-07T23:21:09.940Z</time>
      </trkpt>
      <trkpt lat="48.745803" lon="2.065044">
        <ele>124.218378</ele>
        <time>2025-09-07T23:21:15.418Z</time>
      </trkpt>
      <trkpt lat="48.745853" lon="2.065095">
        <ele>124.276207</ele>
        <time>2025-09-07T23:21:16.381Z</time>
      </trkpt>
      <trkpt lat="48.745895" lon="2.065138">
        <ele>124.324840</ele>
        <time>2025-09-07T23:21:17.865Z</time>
      </trkpt>
      <trkpt lat="48.746081" lon="2.065296">
        <ele>124.529441</ele>
        <time>2025-09-07T23:21:24.310Z</time>
      </trkpt>
      <trkpt lat="48.746035" lon="2.065409">
        <ele>124.613480</ele>
        <time>2025-09-07T23:21:27.048Z</time>
      </trkpt>
      <trkpt lat="48.745928" lon="2.065805">
        <ele>124.884304</ele>
        <time>2025-09-07T23:21:36.837Z</time>
      </trkpt>
      <trkpt lat="48.745857" lon="2.065940">
        <ele>124.993581</ele>
        <time>2025-09-07T23:21:41.719Z</time>
      </trkpt>
      <trkpt lat="48.745590" lon="2.066290">
        <ele>125.332282</ele>
        <time>2025-09-07T23:22:00.443Z</time>
      </trkpt>
      <trkpt lat="48.745590" lon="2.066290">
        <ele>125.332282</ele>
        <time>2025-09-07T23:22:00.473Z</time>
      </trkpt>
      <trkpt lat="48.745438" lon="2.066538">
        <ele>125.546549</ele>
        <time>2025-09-07T23:22:14.761Z</time>
      </trkpt>
      <trkpt lat="48.745363" lon="2.066825">
        <ele>125.741916</ele>
        <time>2025-09-07T23:22:28.819Z</time>
      </trkpt>
      <trkpt lat="48.745678" lon="2.067426">
        <ele>130.351634</ele>
        <time>2025-09-07T23:23:09.620Z</time>
      </trkpt>
      <trkpt lat="48.746077" lon="2.067646">
        <ele>134.869306</ele>
        <time>2025-09-07T23:23:48.774Z</time>
      </trkpt>
      <trkpt lat="48.746259" lon="2.068184">
        <ele>139.112050</ele>
        <time>2025-09-07T23:24:29.636Z</time>
      </trkpt>
      <trkpt lat="48.746375" lon="2.068433">
        <ele>141.251236</ele>
        <time>2025-09-07T23:24:49.829Z</time>
      </trkpt>
      <trkpt lat="48.746387" lon="2.068614">
        <ele>142.527644</ele>
        <time>2025-09-07T23:25:01.815Z</time>
      </trkpt>
      <trkpt lat="48.746896" lon="2.069044">
        <ele>147.770845</ele>
        <time>2025-09-07T23:25:57.082Z</time>
      </trkpt>
      <trkpt lat="48.747552" lon="2.069601">
        <ele>153.740329</ele>
        <time>2025-09-07T23:26:59.405Z</time>
      </trkpt>
      <trkpt lat="48.747797" lon="2.069808">
        <ele>155.967161</ele>
        <time>2025-09-07T23:27:18.807Z</time>
      </trkpt>
      <trkpt lat="48.748240" lon="2.070227">
        <ele>159.452817</ele>
        <time>2025-09-07T23:27:43.162Z</time>
      </trkpt>
      <trkpt lat="48.749181" lon="2.071317">
        <ele>161.748292</ele>
        <time>2025-09-07T23:28:24.061Z</time>
      </trkpt>
      <trkpt lat="48.750177" lon="2.068834">
        <ele>163.319775</ele>
        <time>2025-09-07T23:29:09.123Z</time>
      </trkpt>
      <trkpt lat="48.750261" lon="2.068596">
        <ele>163.394564</ele>
        <time>2025-09-07T23:29:13.616Z</time>
      </trkpt>
      <trkpt lat="48.750487" lon="2.067666">
        <ele>163.703497</ele>
        <time>2025-09-07T23:29:30.788Z</time>
      </trkpt>
      <trkpt lat="48.750527" lon="2.067742">
        <ele>163.735391</ele>
        <time>2025-09-07T23:29:32.494Z</time>
      </trkpt>
      <trkpt lat="48.750672" lon="2.067876">
        <ele>163.819852</ele>
        <time>2025-09-07T23:29:37.051Z</time>
      </trkpt>
      <trkpt lat="48.750876" lon="2.067911">
        <ele>163.921974</ele>
        <time>2025-09-07T23:29:42.565Z</time>
      </trkpt>
      <trkpt lat="48.750949" lon="2.067824">
        <ele>163.968155</ele>
        <time>2025-09-07T23:29:45.005Z</time>
      </trkpt>
      <trkpt lat="48.751112" lon="2.067649">
        <ele>164.067494</ele>
        <time>2025-09-07T23:29:50.116Z</time>
      </trkpt>
      <trkpt lat="48.751212" lon="2.067644">
        <ele>164.117264</ele>
        <time>2025-09-07T23:29:52.600Z</time>
      </trkpt>
      <trkpt lat="48.751492" lon="2.067807">
        <ele>164.266450</ele>
        <time>2025-09-07T23:29:59.816Z</time>
      </trkpt>
      <trkpt lat="48.753764" lon="2.069593">
        <ele>163.988917</ele>
        <time>2025-09-07T23:30:55.008Z</time>
      </trkpt>
      <trkpt lat="48.755189" lon="2.070717">
        <ele>163.847644</ele>
        <time>2025-09-07T23:31:30.666Z</time>
      </trkpt>
      <trkpt lat="48.755598" lon="2.071006">
        <ele>163.803103</ele>
        <time>2025-09-07T23:31:40.437Z</time>
      </trkpt>
      <trkpt lat="48.755572" lon="2.071186">
        <ele>163.791111</ele>
        <time>2025-09-07T23:31:43.057Z</time>
      </trkpt>
      <trkpt lat="48.755646" lon="2.071246">
        <ele>163.782828</ele>
        <time>2025-09-07T23:31:44.867Z</time>
      </trkpt>
      <trkpt lat="48.755679" lon="2.071445">
        <ele>163.769474</ele>
        <time>2025-09-07T23:31:47.793Z</time>
      </trkpt>
      <trkpt lat="48.755739" lon="2.071579">
        <ele>163.758932</ele>
        <time>2025-09-07T23:31:50.114Z</time>
      </trkpt>
      <trkpt lat="48.755876" lon="2.071727">
        <ele>163.742329</ele>
        <time>2025-09-07T23:31:53.772Z</time>
      </trkpt>
      <trkpt lat="48.755952" lon="2.071761">
        <ele>163.734507</ele>
        <time>2025-09-07T23:31:55.461Z</time>
      </trkpt>
      <trkpt lat="48.756015" lon="2.071781">
        <ele>163.728153</ele>
        <time>2025-09-07T23:31:56.882Z</time>
      </trkpt>
      <trkpt lat="48.756296" lon="2.071676">
        <ele>163.715919</ele>
        <time>2025-09-07T23:32:03.173Z</time>
      </trkpt>
      <trkpt lat="48.757138" lon="2.072276">
        <ele>163.949082</ele>
        <time>2025-09-07T23:32:24.694Z</time>
      </trkpt>
      <trkpt lat="48.757942" lon="2.072914">
        <ele>164.179522</ele>
        <time>2025-09-07T23:32:47.084Z</time>
      </trkpt>
      <trkpt lat="48.758618" lon="2.073405">
        <ele>164.393764</ele>
        <time>2025-09-07T23:33:05.168Z</time>
      </trkpt>
      <trkpt lat="48.759226" lon="2.073707">
        <ele>164.576640</ele>
        <time>2025-09-07T23:33:20.125Z</time>
      </trkpt>
      <trkpt lat="48.759263" lon="2.073673">
        <ele>164.589005</ele>
        <time>2025-09-07T23:33:21.105Z</time>
      </trkpt>
      <trkpt lat="48.759314" lon="2.073641">
        <ele>164.604782</ele>
        <time>2025-09-07T23:33:22.370Z</time>
      </trkpt>
      <trkpt lat="48.759394" lon="2.073643">
        <ele>164.627653</ele>
        <time>2025-09-07T23:33:24.195Z</time>
      </trkpt>
      <trkpt lat="48.759465" lon="2.073700">
        <ele>164.650615</ele>
        <time>2025-09-07T23:33:25.999Z</time>
      </trkpt>
      <trkpt lat="48.759496" lon="2.073739">
        <ele>164.662127</ele>
        <time>2025-09-07T23:33:26.927Z</time>
      </trkpt>
      <trkpt lat="48.759565" lon="2.073699">
        <ele>164.667077</ele>
        <time>2025-09-07T23:33:28.568Z</time>
      </trkpt>
      <trkpt lat="48.760077" lon="2.073629">
        <ele>164.645530</ele>
        <time>2025-09-07T23:33:39.974Z</time>
      </trkpt>
      <trkpt lat="48.761525" lon="2.072885">
        <ele>164.461581</ele>
        <time>2025-09-07T23:34:13.700Z</time>
      </trkpt>
      <trkpt lat="48.761739" lon="2.073025">
        <ele>164.356650</ele>
        <time>2025-09-07T23:34:18.696Z</time>
      </trkpt>
      <trkpt lat="48.761939" lon="2.073034">
        <ele>164.266560</ele>
        <time>2025-09-07T23:34:22.944Z</time>
      </trkpt>
      <trkpt lat="48.762126" lon="2.073459">
        <ele>164.114901</ele>
        <time>2025-09-07T23:34:30.008Z</time>
      </trkpt>
      <trkpt lat="48.762401" lon="2.073734">
        <ele>163.966601</ele>
        <time>2025-09-07T23:34:36.819Z</time>
      </trkpt>
      <trkpt lat="48.762610" lon="2.074063">
        <ele>163.830992</ele>
        <time>2025-09-07T23:34:42.977Z</time>
      </trkpt>
      <trkpt lat="48.763434" lon="2.075680">
        <ele>162.893825</ele>
        <time>2025-09-07T23:35:10.250Z</time>
      </trkpt>
      <trkpt lat="48.765320" lon="2.079263">
        <ele>161.229926</ele>
        <time>2025-09-07T23:36:13.031Z</time>
      </trkpt>
      <trkpt lat="48.765667" lon="2.079951">
        <ele>161.014908</ele>
        <time>2025-09-07T23:36:25.348Z</time>
      </trkpt>
      <trkpt lat="48.765687" lon="2.080063">
        <ele>160.986108</ele>
        <time>2025-09-07T23:36:27.080Z</time>
      </trkpt>
      <trkpt lat="48.765632" lon="2.080607">
        <ele>160.849508</ele>
        <time>2025-09-07T23:36:35.172Z</time>
      </trkpt>
      <trkpt lat="48.765682" lon="2.080709">
        <ele>160.817958</ele>
        <time>2025-09-07T23:36:37.062Z</time>
      </trkpt>
      <trkpt lat="48.765700" lon="2.080745">
        <ele>160.806743</ele>
        <time>2025-09-07T23:36:37.734Z</time>
      </trkpt>
      <trkpt lat="48.765774" lon="2.080877">
        <ele>160.781061</ele>
        <time>2025-09-07T23:36:40.296Z</time>
      </trkpt>
      <trkpt lat="48.766103" lon="2.080865">
        <ele>160.710322</ele>
        <time>2025-09-07T23:36:47.693Z</time>
      </trkpt>
      <trkpt lat="48.766310" lon="2.080747">
        <ele>160.662790</ele>
        <time>2025-09-07T23:36:52.644Z</time>
      </trkpt>
      <trkpt lat="48.766397" lon="2.080697">
        <ele>160.642793</ele>
        <time>2025-09-07T23:36:54.706Z</time>
      </trkpt>
      <trkpt lat="48.770238" lon="2.082400">
        <ele>160.055657</ele>
        <time>2025-09-07T23:39:20.668Z</time>
      </trkpt>
      <trkpt lat="48.770286" lon="2.082422">
        <ele>160.056733</ele>
        <time>2025-09-07T23:39:22.584Z</time>
      </trkpt>
      <trkpt lat="48.770452" lon="2.082518">
        <ele>160.060545</ele>
        <time>2025-09-07T23:39:29.362Z</time>
      </trkpt>
      <trkpt lat="48.770508" lon="2.082559">
        <ele>160.061880</ele>
        <time>2025-09-07T23:39:31.713Z</time>
      </trkpt>
      <trkpt lat="48.770593" lon="2.082642">
        <ele>160.064049</ele>
        <time>2025-09-07T23:39:34.231Z</time>
      </trkpt>
      <trkpt lat="48.770699" lon="2.082903">
        <ele>160.068385</ele>
        <time>2025-09-07T23:39:39.301Z</time>
      </trkpt>
      <trkpt lat="48.770710" lon="2.082982">
        <ele>160.071675</ele>
        <time>2025-09-07T23:39:40.675Z</time>
      </trkpt>
      <trkpt lat="48.770769" lon="2.083029">
        <ele>160.129821</ele>
        <time>2025-09-07T23:39:42.377Z</time>
      </trkpt>
      <trkpt lat="48.770883" lon="2.083079">
        <ele>160.233366</ele>
        <time>2025-09-07T23:39:45.467Z</time>
      </trkpt>
      <trkpt lat="48.770939" lon="2.083111">
        <ele>160.285580</ele>
        <time>2025-09-07T23:39:47.027Z</time>
      </trkpt>
      <trkpt lat="48.771165" lon="2.082951">
        <ele>160.503190</ele>
        <time>2025-09-07T23:39:53.748Z</time>
      </trkpt>
      <trkpt lat="48.771227" lon="2.082877">
        <ele>160.572021</ele>
        <time>2025-09-07T23:39:55.894Z</time>
      </trkpt>
      <trkpt lat="48.771300" lon="2.082852">
        <ele>160.637321</ele>
        <time>2025-09-07T23:39:57.965Z</time>
      </trkpt>
      <trkpt lat="48.772001" lon="2.083138">
        <ele>161.270715</ele>
        <time>2025-09-07T23:40:17.798Z</time>
      </trkpt>
      <trkpt lat="48.772295" lon="2.083299">
        <ele>161.543446</ele>
        <time>2025-09-07T23:40:26.551Z</time>
      </trkpt>
      <trkpt lat="48.772501" lon="2.083454">
        <ele>161.715506</ele>
        <time>2025-09-07T23:40:32.981Z</time>
      </trkpt>
      <trkpt lat="48.772854" lon="2.083836">
        <ele>161.991042</ele>
        <time>2025-09-07T23:40:44.881Z</time>
      </trkpt>
      <trkpt lat="48.773016" lon="2.084084">
        <ele>162.137286</ele>
        <time>2025-09-07T23:40:51.029Z</time>
      </trkpt>
      <trkpt lat="48.773231" lon="2.084550">
        <ele>162.375527</ele>
        <time>2025-09-07T23:41:00.618Z</time>
      </trkpt>
      <trkpt lat="48.773332" lon="2.084844">
        <ele>162.514384</ele>
        <time>2025-09-07T23:41:05.971Z</time>
      </trkpt>
      <trkpt lat="48.773523" lon="2.085584">
        <ele>162.763203</ele>
        <time>2025-09-07T23:41:18.072Z</time>
      </trkpt>
      <trkpt lat="48.774320" lon="2.089438">
        <ele>161.828007</ele>
        <time>2025-09-07T23:42:15.388Z</time>
      </trkpt>
      <trkpt lat="48.774603" lon="2.090442">
        <ele>161.361684</ele>
        <time>2025-09-07T23:42:30.030Z</time>
      </trkpt>
      <trkpt lat="48.774632" lon="2.090431">
        <ele>161.342313</ele>
        <time>2025-09-07T23:42:32.122Z</time>
      </trkpt>
      <trkpt lat="48.774665" lon="2.090422">
        <ele>161.320587</ele>
        <time>2025-09-07T23:42:34.404Z</time>
      </trkpt>
      <trkpt lat="48.774697" lon="2.090632">
        <ele>161.002668</ele>
        <time>2025-09-07T23:42:44.293Z</time>
      </trkpt>
      <trkpt lat="48.774761" lon="2.090521">
        <ele>160.702568</ele>
        <time>2025-09-07T23:42:46.139Z</time>
      </trkpt>
      <trkpt lat="48.774840" lon="2.090709">
        <ele>160.248882</ele>
        <time>2025-09-07T23:42:48.878Z</time>
      </trkpt>
      <trkpt lat="48.775207" lon="2.091598">
        <ele>158.114372</ele>
        <time>2025-09-07T23:43:01.070Z</time>
      </trkpt>
      <trkpt lat="48.775237" lon="2.091675">
        <ele>157.932364</ele>
        <time>2025-09-07T23:43:02.079Z</time>
      </trkpt>
      <trkpt lat="48.775303" lon="2.091833">
        <ele>157.551729</ele>
        <time>2025-09-07T23:43:04.191Z</time>
      </trkpt>
      <trkpt lat="48.775381" lon="2.092124">
        <ele>156.912514</ele>
        <time>2025-09-07T23:43:07.659Z</time>
      </trkpt>
      <trkpt lat="48.775523" lon="2.093013">
        <ele>154.119498</ele>
        <time>2025-09-07T23:43:17.288Z</time>
      </trkpt>
      <trkpt lat="48.775665" lon="2.093431">
        <ele>151.858872</ele>
        <time>2025-09-07T23:43:22.048Z</time>
      </trkpt>
      <trkpt lat="48.775859" lon="2.093746">
        <ele>149.786329</ele>
        <time>2025-09-07T23:43:26.346Z</time>
      </trkpt>
      <trkpt lat="48.776501" lon="2.094649">
        <ele>143.400979</ele>
        <time>2025-09-07T23:43:39.134Z</time>
      </trkpt>
      <trkpt lat="48.776766" lon="2.094925">
        <ele>140.892959</ele>
        <time>2025-09-07T23:43:43.685Z</time>
      </trkpt>
      <trkpt lat="48.777356" lon="2.095378">
        <ele>135.563760</ele>
        <time>2025-09-07T23:43:53.115Z</time>
      </trkpt>
      <trkpt lat="48.777581" lon="2.095599">
        <ele>133.403623</ele>
        <time>2025-09-07T23:43:56.982Z</time>
      </trkpt>
      <trkpt lat="48.778004" lon="2.096025">
        <ele>129.311944</ele>
        <time>2025-09-07T23:44:04.894Z</time>
      </trkpt>
      <trkpt lat="48.778267" lon="2.096218">
        <ele>127.783463</ele>
        <time>2025-09-07T23:44:09.734Z</time>
      </trkpt>
      <trkpt lat="48.778298" lon="2.096277">
        <ele>127.667769</ele>
        <time>2025-09-07T23:44:10.590Z</time>
      </trkpt>
      <trkpt lat="48.778298" lon="2.096417">
        <ele>127.453118</ele>
        <time>2025-09-07T23:44:12.217Z</time>
      </trkpt>
      <trkpt lat="48.778265" lon="2.096497">
        <ele>127.308412</ele>
        <time>2025-09-07T23:44:13.332Z</time>
      </trkpt>
      <trkpt lat="48.778150" lon="2.096619">
        <ele>126.981944</ele>
        <time>2025-09-07T23:44:15.928Z</time>
      </trkpt>
      <trkpt lat="48.778007" lon="2.096699">
        <ele>126.627341</ele>
        <time>2025-09-07T23:44:18.769Z</time>
      </trkpt>
      <trkpt lat="48.777836" lon="2.096796">
        <ele>126.202592</ele>
        <time>2025-09-07T23:44:22.335Z</time>
      </trkpt>
      <trkpt lat="48.777799" lon="2.096819">
        <ele>126.109563</ele>
        <time>2025-09-07T23:44:23.120Z</time>
      </trkpt>
      <trkpt lat="48.777700" lon="2.096878">
        <ele>125.862096</ele>
        <time>2025-09-07T23:44:25.238Z</time>
      </trkpt>
      <trkpt lat="48.777388" lon="2.097082">
        <ele>125.071657</ele>
        <time>2025-09-07T23:44:32.020Z</time>
      </trkpt>
      <trkpt lat="48.777300" lon="2.097132">
        <ele>124.853028</ele>
        <time>2025-09-07T23:44:33.873Z</time>
      </trkpt>
      <trkpt lat="48.776890" lon="2.097360">
        <ele>123.819887</ele>
        <time>2025-09-07T23:44:42.598Z</time>
      </trkpt>
      <trkpt lat="48.776709" lon="2.097548">
        <ele>123.219032</ele>
        <time>2025-09-07T23:44:46.803Z</time>
      </trkpt>
      <trkpt lat="48.776326" lon="2.098249">
        <ele>121.575191</ele>
        <time>2025-09-07T23:44:57.736Z</time>
      </trkpt>
      <trkpt lat="48.775712" lon="2.099602">
        <ele>118.714839</ele>
        <time>2025-09-07T23:45:15.669Z</time>
      </trkpt>
      <trkpt lat="48.775643" lon="2.099732">
        <ele>118.493383</ele>
        <time>2025-09-07T23:45:19.054Z</time>
      </trkpt>
      <trkpt lat="48.775963" lon="2.100204">
        <ele>117.594965</ele>
        <time>2025-09-07T23:45:32.982Z</time>
      </trkpt>
      <trkpt lat="48.776054" lon="2.100342">
        <ele>117.335962</ele>
        <time>2025-09-07T23:45:37.063Z</time>
      </trkpt>
      <trkpt lat="48.776158" lon="2.100548">
        <ele>116.991681</ele>
        <time>2025-09-07T23:45:42.548Z</time>
      </trkpt>
      <trkpt lat="48.776205" lon="2.100695">
        <ele>116.774916</ele>
        <time>2025-09-07T23:45:46.047Z</time>
      </trkpt>
      <trkpt lat="48.776230" lon="2.101079">
        <ele>116.262984</ele>
        <time>2025-09-07T23:45:54.397Z</time>
      </trkpt>
      <trkpt lat="48.776161" lon="2.102078">
        <ele>115.382402</ele>
        <time>2025-09-07T23:46:18.381Z</time>
      </trkpt>
      <trkpt lat="48.776189" lon="2.102487">
        <ele>115.378476</ele>
        <time>2025-09-07T23:46:29.719Z</time>
      </trkpt>
      <trkpt lat="48.776258" lon="2.103000">
        <ele>115.373477</ele>
        <time>2025-09-07T23:46:43.988Z</time>
      </trkpt>
      <trkpt lat="48.776272" lon="2.103311">
        <ele>115.370501</ele>
        <time>2025-09-07T23:46:52.246Z</time>
      </trkpt>
      <trkpt lat="48.776251" lon="2.103687">
        <ele>115.366898</ele>
        <time>2025-09-07T23:47:01.935Z</time>
      </trkpt>
      <trkpt lat="48.776154" lon="2.104561">
        <ele>115.228138</ele>
        <time>2025-09-07T23:47:22.955Z</time>
      </trkpt>
      <trkpt lat="48.776059" lon="2.105057">
        <ele>114.680509</ele>
        <time>2025-09-07T23:47:34.407Z</time>
      </trkpt>
      <trkpt lat="48.775975" lon="2.105375">
        <ele>114.317282</ele>
        <time>2025-09-07T23:47:41.783Z</time>
      </trkpt>
      <trkpt lat="48.775821" lon="2.105727">
        <ele>113.869329</ele>
        <time>2025-09-07T23:47:50.744Z</time>
      </trkpt>
      <trkpt lat="48.775440" lon="2.106471">
        <ele>112.870357</ele>
        <time>2025-09-07T23:48:10.631Z</time>
      </trkpt>
      <trkpt lat="48.775367" lon="2.106667">
        <ele>112.631659</ele>
        <time>2025-09-07T23:48:15.463Z</time>
      </trkpt>
      <trkpt lat="48.775361" lon="2.106998">
        <ele>112.434570</ele>
        <time>2025-09-07T23:48:22.750Z</time>
      </trkpt>
      <trkpt lat="48.775658" lon="2.107919">
        <ele>112.250678</ele>
        <time>2025-09-07T23:48:46.668Z</time>
      </trkpt>
      <trkpt lat="48.775789" lon="2.108146">
        <ele>112.196564</ele>
        <time>2025-09-07T23:48:54.349Z</time>
      </trkpt>
      <trkpt lat="48.775881" lon="2.108340">
        <ele>112.153699</ele>
        <time>2025-09-07T23:49:00.595Z</time>
      </trkpt>
      <trkpt lat="48.776167" lon="2.109244">
        <ele>111.972105</ele>
        <time>2025-09-07T23:49:26.849Z</time>
      </trkpt>
      <trkpt lat="48.776462" lon="2.109939">
        <ele>111.722868</ele>
        <time>2025-09-07T23:49:47.122Z</time>
      </trkpt>
      <trkpt lat="48.776681" lon="2.110447">
        <ele>111.539852</ele>
        <time>2025-09-07T23:50:01.235Z</time>
      </trkpt>
      <trkpt lat="48.776877" lon="2.110987">
        <ele>111.353990</ele>
        <time>2025-09-07T23:50:15.294Z</time>
      </trkpt>
      <trkpt lat="48.776961" lon="2.111312">
        <ele>111.248741</ele>
        <time>2025-09-07T23:50:23.230Z</time>
      </trkpt>
      <trkpt lat="48.777080" lon="2.112136">
        <ele>111.003552</ele>
        <time>2025-09-07T23:50:42.666Z</time>
      </trkpt>
      <trkpt lat="48.777098" lon="2.112373">
        <ele>110.935753</ele>
        <time>2025-09-07T23:50:48.393Z</time>
      </trkpt>
      <trkpt lat="48.777109" lon="2.112807">
        <ele>110.812324</ele>
        <time>2025-09-07T23:50:58.705Z</time>
      </trkpt>
      <trkpt lat="48.777039" lon="2.113300">
        <ele>110.669004</ele>
        <time>2025-09-07T23:51:10.599Z</time>
      </trkpt>
      <trkpt lat="48.777027" lon="2.113541">
        <ele>110.600319</ele>
        <time>2025-09-07T23:51:16.341Z</time>
      </trkpt>
      <trkpt lat="48.777062" lon="2.113771">
        <ele>110.533236</ele>
        <time>2025-09-07T23:51:22.077Z</time>
      </trkpt>
      <trkpt lat="48.777070" lon="2.113908">
        <ele>110.494149</ele>
        <time>2025-09-07T23:51:25.496Z</time>
      </trkpt>
      <trkpt lat="48.777037" lon="2.114040">
        <ele>110.454028</ele>
        <time>2025-09-07T23:51:28.928Z</time>
      </trkpt>
      <trkpt lat="48.776949" lon="2.114254">
        <ele>110.382342</ele>
        <time>2025-09-07T23:51:35.046Z</time>
      </trkpt>
      <trkpt lat="48.776873" lon="2.114562">
        <ele>110.270056</ele>
        <time>2025-09-07T23:51:42.951Z</time>
      </trkpt>
      <trkpt lat="48.776864" lon="2.114833">
        <ele>110.176640</ele>
        <time>2025-09-07T23:51:49.439Z</time>
      </trkpt>
      <trkpt lat="48.776894" lon="2.115092">
        <ele>110.086107</ele>
        <time>2025-09-07T23:51:55.632Z</time>
      </trkpt>
      <trkpt lat="48.776953" lon="2.115327">
        <ele>109.999531</ele>
        <time>2025-09-07T23:52:01.466Z</time>
      </trkpt>
      <trkpt lat="48.777320" lon="2.116437">
        <ele>109.571993</ele>
        <time>2025-09-07T23:52:30.068Z</time>
      </trkpt>
      <trkpt lat="48.777386" lon="2.117007">
        <ele>109.412559</ele>
        <time>2025-09-07T23:52:43.721Z</time>
      </trkpt>
      <trkpt lat="48.777455" lon="2.117613">
        <ele>109.329490</ele>
        <time>2025-09-07T23:52:58.355Z</time>
      </trkpt>
      <trkpt lat="48.777536" lon="2.117809">
        <ele>109.298239</ele>
        <time>2025-09-07T23:53:03.907Z</time>
      </trkpt>
      <trkpt lat="48.777604" lon="2.118059">
        <ele>109.261707</ele>
        <time>2025-09-07T23:53:10.362Z</time>
      </trkpt>
      <trkpt lat="48.777626" lon="2.118261">
        <ele>109.234052</ele>
        <time>2025-09-07T23:53:15.248Z</time>
      </trkpt>
      <trkpt lat="48.777659" lon="2.118938">
        <ele>109.142356</ele>
        <time>2025-09-07T23:53:31.726Z</time>
      </trkpt>
      <trkpt lat="48.777683" lon="2.119074">
        <ele>109.123338</ele>
        <time>2025-09-07T23:53:35.204Z</time>
      </trkpt>
      <trkpt lat="48.777679" lon="2.119359">
        <ele>109.084833</ele>
        <time>2025-09-07T23:53:42.181Z</time>
      </trkpt>
      <trkpt lat="48.777613" lon="2.119803">
        <ele>109.170118</ele>
        <time>2025-09-07T23:53:53.558Z</time>
      </trkpt>
      <trkpt lat="48.777635" lon="2.120520">
        <ele>109.380963</ele>
        <time>2025-09-07T23:54:11.386Z</time>
      </trkpt>
      <trkpt lat="48.777683" lon="2.121373">
        <ele>109.632442</ele>
        <time>2025-09-07T23:54:33.804Z</time>
      </trkpt>
      <trkpt lat="48.777656" lon="2.121943">
        <ele>109.800310</ele>
        <time>2025-09-07T23:54:49.262Z</time>
      </trkpt>
      <trkpt lat="48.777430" lon="2.122653">
        <ele>109.708154</ele>
        <time>2025-09-07T23:55:03.359Z</time>
      </trkpt>
      <trkpt lat="48.777182" lon="2.123292">
        <ele>109.486776</ele>
        <time>2025-09-07T23:55:14.899Z</time>
      </trkpt>
      <trkpt lat="48.777127" lon="2.123457">
        <ele>109.431577</ele>
        <time>2025-09-07T23:55:17.694Z</time>
      </trkpt>
      <trkpt lat="48.777022" lon="2.123870">
        <ele>109.299431</ele>
        <time>2025-09-07T23:55:23.977Z</time>
      </trkpt>
      <trkpt lat="48.776915" lon="2.124130">
        <ele>109.207923</ele>
        <time>2025-09-07T23:55:27.978Z</time>
      </trkpt>
      <trkpt lat="48.776659" lon="2.124507">
        <ele>109.027604</ele>
        <time>2025-09-07T23:55:34.768Z</time>
      </trkpt>
      <trkpt lat="48.776317" lon="2.124813">
        <ele>108.518943</ele>
        <time>2025-09-07T23:55:42.284Z</time>
      </trkpt>
      <trkpt lat="48.775921" lon="2.125047">
        <ele>107.974484</ele>
        <time>2025-09-07T23:55:50.304Z</time>
      </trkpt>
      <trkpt lat="48.775872" lon="2.125105">
        <ele>107.894866</ele>
        <time>2025-09-07T23:55:51.505Z</time>
      </trkpt>
      <trkpt lat="48.775823" lon="2.125163">
        <ele>107.815247</ele>
        <time>2025-09-07T23:55:52.715Z</time>
      </trkpt>
      <trkpt lat="48.775769" lon="2.125361">
        <ele>107.634324</ele>
        <time>2025-09-07T23:55:55.486Z</time>
      </trkpt>
      <trkpt lat="48.775799" lon="2.125841">
        <ele>107.227237</ele>
        <time>2025-09-07T23:56:01.997Z</time>
      </trkpt>
      <trkpt lat="48.775851" lon="2.126179">
        <ele>106.934187</ele>
        <time>2025-09-07T23:56:07.041Z</time>
      </trkpt>
      <trkpt lat="48.775961" lon="2.126552">
        <ele>106.886597</ele>
        <time>2025-09-07T23:56:14.061Z</time>
      </trkpt>
      <trkpt lat="48.775971" lon="2.126708">
        <ele>106.995729</ele>
        <time>2025-09-07T23:56:17.099Z</time>
      </trkpt>
      <trkpt lat="48.775931" lon="2.126961">
        <ele>107.176885</ele>
        <time>2025-09-07T23:56:22.283Z</time>
      </trkpt>
      <trkpt lat="48.775894" lon="2.127021">
        <ele>107.234100</ele>
        <time>2025-09-07T23:56:23.855Z</time>
      </trkpt>
      <trkpt lat="48.776048" lon="2.127327">
        <ele>107.502184</ele>
        <time>2025-09-07T23:56:31.175Z</time>
      </trkpt>
      <trkpt lat="48.776218" lon="2.127606">
        <ele>107.766756</ele>
        <time>2025-09-07T23:56:37.989Z</time>
      </trkpt>
      <trkpt lat="48.776374" lon="2.127801">
        <ele>107.980300</ele>
        <time>2025-09-07T23:56:43.486Z</time>
      </trkpt>
      <trkpt lat="48.776708" lon="2.127963">
        <ele>108.350778</ele>
        <time>2025-09-07T23:56:53.204Z</time>
      </trkpt>
      <trkpt lat="48.776642" lon="2.128901">
        <ele>109.782436</ele>
        <time>2025-09-07T23:57:12.653Z</time>
      </trkpt>
      <trkpt lat="48.776608" lon="2.129646">
        <ele>111.437145</ele>
        <time>2025-09-07T23:57:29.046Z</time>
      </trkpt>
      <trkpt lat="48.777986" lon="2.129558">
        <ele>116.900404</ele>
        <time>2025-09-07T23:58:31.769Z</time>
      </trkpt>
      <trkpt lat="48.778234" lon="2.129671">
        <ele>118.294203</ele>
        <time>2025-09-07T23:58:45.570Z</time>
      </trkpt>
      <trkpt lat="48.778312" lon="2.129735">
        <ele>118.771501</ele>
        <time>2025-09-07T23:58:50.185Z</time>
      </trkpt>
      <trkpt lat="48.778830" lon="2.130487">
        <ele>122.630187</ele>
        <time>2025-09-07T23:59:27.305Z</time>
      </trkpt>
      <trkpt lat="48.778923" lon="2.130586">
        <ele>123.241668</ele>
        <time>2025-09-07T23:59:33.225Z</time>
      </trkpt>
      <trkpt lat="48.779249" lon="2.130819">
        <ele>125.001138</ele>
        <time>2025-09-07T23:59:50.756Z</time>
      </trkpt>
      <trkpt lat="48.780324" lon="2.131596">
        <ele>129.965838</ele>
        <time>2025-09-08T00:00:41.977Z</time>
      </trkpt>
      <trkpt lat="48.780746" lon="2.131533">
        <ele>131.733881</ele>
        <time>2025-09-08T00:00:59.067Z</time>
      </trkpt>
      <trkpt lat="48.781719" lon="2.132068">
        <ele>135.286231</ele>
        <time>2025-09-08T00:01:38.157Z</time>
      </trkpt>
      <trkpt lat="48.782765" lon="2.132303">
        <ele>139.084473</ele>
        <time>2025-09-08T00:02:19.937Z</time>
      </trkpt>
      <trkpt lat="48.784340" lon="2.132610">
        <ele>145.648786</ele>
        <time>2025-09-08T00:03:31.036Z</time>
      </trkpt>
      <trkpt lat="48.785260" lon="2.132805">
        <ele>148.514724</ele>
        <time>2025-09-08T00:04:07.841Z</time>
      </trkpt>
      <trkpt lat="48.785652" lon="2.132854">
        <ele>149.728220</ele>
        <time>2025-09-08T00:04:21.472Z</time>
      </trkpt>
      <trkpt lat="48.785874" lon="2.132823">
        <ele>150.416029</ele>
        <time>2025-09-08T00:04:28.915Z</time>
      </trkpt>
      <trkpt lat="48.786179" lon="2.132890">
        <ele>151.346058</ele>
        <time>2025-09-08T00:04:39.051Z</time>
      </trkpt>
      <trkpt lat="48.786287" lon="2.132932">
        <ele>151.667392</ele>
        <time>2025-09-08T00:04:42.846Z</time>
      </trkpt>
      <trkpt lat="48.786351" lon="2.132942">
        <ele>151.852829</ele>
        <time>2025-09-08T00:04:45.040Z</time>
      </trkpt>
      <trkpt lat="48.786687" lon="2.132996">
        <ele>152.826666</ele>
        <time>2025-09-08T00:04:56.587Z</time>
      </trkpt>
      <trkpt lat="48.786947" lon="2.133176">
        <ele>153.650318</ele>
        <time>2025-09-08T00:05:06.761Z</time>
      </trkpt>
      <trkpt lat="48.787044" lon="2.133178">
        <ele>153.929919</ele>
        <time>2025-09-08T00:05:10.363Z</time>
      </trkpt>
      <trkpt lat="48.787123" lon="2.133120">
        <ele>154.182853</ele>
        <time>2025-09-08T00:05:13.690Z</time>
      </trkpt>
      <trkpt lat="48.787458" lon="2.133202">
        <ele>155.160870</ele>
        <time>2025-09-08T00:05:26.735Z</time>
      </trkpt>
      <trkpt lat="48.787602" lon="2.133245">
        <ele>155.583865</ele>
        <time>2025-09-08T00:05:32.551Z</time>
      </trkpt>
      <trkpt lat="48.787679" lon="2.133268">
        <ele>155.810052</ele>
        <time>2025-09-08T00:05:35.632Z</time>
      </trkpt>
      <trkpt lat="48.787787" lon="2.133467">
        <ele>156.323710</ele>
        <time>2025-09-08T00:05:42.570Z</time>
      </trkpt>
      <trkpt lat="48.787797" lon="2.133477">
        <ele>156.371138</ele>
        <time>2025-09-08T00:05:43.051Z</time>
      </trkpt>
      <trkpt lat="48.788417" lon="2.133794">
        <ele>158.962173</ele>
        <time>2025-09-08T00:06:10.840Z</time>
      </trkpt>
      <trkpt lat="48.788681" lon="2.133996">
        <ele>160.133064</ele>
        <time>2025-09-08T00:06:23.593Z</time>
      </trkpt>
      <trkpt lat="48.788728" lon="2.134032">
        <ele>160.341562</ele>
        <time>2025-09-08T00:06:25.864Z</time>
      </trkpt>
      <trkpt lat="48.788697" lon="2.134211">
        <ele>160.824489</ele>
        <time>2025-09-08T00:06:32.984Z</time>
      </trkpt>
      <trkpt lat="48.788762" lon="2.134381">
        <ele>161.337352</ele>
        <time>2025-09-08T00:06:40.491Z</time>
      </trkpt>
      <trkpt lat="48.788793" lon="2.134780">
        <ele>162.385665</ele>
        <time>2025-09-08T00:06:55.492Z</time>
      </trkpt>
      <trkpt lat="48.788833" lon="2.134929">
        <ele>162.805483</ele>
        <time>2025-09-08T00:07:01.479Z</time>
      </trkpt>
      <trkpt lat="48.789454" lon="2.135984">
        <ele>166.086332</ele>
        <time>2025-09-08T00:07:54.338Z</time>
      </trkpt>
      <trkpt lat="48.789475" lon="2.136115">
        <ele>166.392093</ele>
        <time>2025-09-08T00:07:59.412Z</time>
      </trkpt>
      <trkpt lat="48.789389" lon="2.136335">
        <ele>166.972243</ele>
        <time>2025-09-08T00:08:08.868Z</time>
      </trkpt>
      <trkpt lat="48.789075" lon="2.136698">
        <ele>168.330935</ele>
        <time>2025-09-08T00:08:30.438Z</time>
      </trkpt>
      <trkpt lat="48.788878" lon="2.136983">
        <ele>169.267758</ele>
        <time>2025-09-08T00:08:44.506Z</time>
      </trkpt>
      <trkpt lat="48.788768" lon="2.137289">
        <ele>169.522593</ele>
        <time>2025-09-08T00:08:55.730Z</time>
      </trkpt>
      <trkpt lat="48.788557" lon="2.137725">
        <ele>169.456052</ele>
        <time>2025-09-08T00:09:11.725Z</time>
      </trkpt>
      <trkpt lat="48.788505" lon="2.137940">
        <ele>169.427882</ele>
        <time>2025-09-08T00:09:17.875Z</time>
      </trkpt>
      <trkpt lat="48.788505" lon="2.137940">
        <ele>169.427882</ele>
        <time>2025-09-08T00:09:17.878Z</time>
      </trkpt>
      <trkpt lat="48.788619" lon="2.138406">
        <ele>169.366740</ele>
        <time>2025-09-08T00:09:30.269Z</time>
      </trkpt>
      <trkpt lat="48.788636" lon="2.138572">
        <ele>169.346076</ele>
        <time>2025-09-08T00:09:34.248Z</time>
      </trkpt>
      <trkpt lat="48.788581" lon="2.138761">
        <ele>169.320663</ele>
        <time>2025-09-08T00:09:38.982Z</time>
      </trkpt>
      <trkpt lat="48.788473" lon="2.139000">
        <ele>169.285015</ele>
        <time>2025-09-08T00:09:45.397Z</time>
      </trkpt>
      <trkpt lat="48.788514" lon="2.139053">
        <ele>169.274961</ele>
        <time>2025-09-08T00:09:47.147Z</time>
      </trkpt>
      <trkpt lat="48.788772" lon="2.139155">
        <ele>169.225187</ele>
        <time>2025-09-08T00:09:55.645Z</time>
      </trkpt>
      <trkpt lat="48.788854" lon="2.139273">
        <ele>169.057191</ele>
        <time>2025-09-08T00:09:59.177Z</time>
      </trkpt>
      <trkpt lat="48.788753" lon="2.139783">
        <ele>168.054607</ele>
        <time>2025-09-08T00:10:09.802Z</time>
      </trkpt>
      <trkpt lat="48.788745" lon="2.140088">
        <ele>167.479946</ele>
        <time>2025-09-08T00:10:15.760Z</time>
      </trkpt>
      <trkpt lat="48.788822" lon="2.140312">
        <ele>167.004286</ele>
        <time>2025-09-08T00:10:20.760Z</time>
      </trkpt>
      <trkpt lat="48.789223" lon="2.141024">
        <ele>165.240833</ele>
        <time>2025-09-08T00:10:39.758Z</time>
      </trkpt>
      <trkpt lat="48.789275" lon="2.141153">
        <ele>164.956123</ele>
        <time>2025-09-08T00:10:42.918Z</time>
      </trkpt>
      <trkpt lat="48.789322" lon="2.141421">
        <ele>164.434012</ele>
        <time>2025-09-08T00:10:48.762Z</time>
      </trkpt>
      <trkpt lat="48.789334" lon="2.141641">
        <ele>164.019812</ele>
        <time>2025-09-08T00:10:53.571Z</time>
      </trkpt>
      <trkpt lat="48.789311" lon="2.143805">
        <ele>160.046097</ele>
        <time>2025-09-08T00:11:41.801Z</time>
      </trkpt>
      <trkpt lat="48.790213" lon="2.145612">
        <ele>150.928934</ele>
        <time>2025-09-08T00:12:22.793Z</time>
      </trkpt>
      <trkpt lat="48.790465" lon="2.146264">
        <ele>147.377643</ele>
        <time>2025-09-08T00:12:35.813Z</time>
      </trkpt>
      <trkpt lat="48.790634" lon="2.146721">
        <ele>145.013972</ele>
        <time>2025-09-08T00:12:45.077Z</time>
      </trkpt>
      <trkpt lat="48.790874" lon="2.147144">
        <ele>142.586786</ele>
        <time>2025-09-08T00:12:51.224Z</time>
      </trkpt>
      <trkpt lat="48.790677" lon="2.147330">
        <ele>141.055671</ele>
        <time>2025-09-08T00:12:54.656Z</time>
      </trkpt>
      <trkpt lat="48.790237" lon="2.147774">
        <ele>137.568711</ele>
        <time>2025-09-08T00:13:02.583Z</time>
      </trkpt>
      <trkpt lat="48.790277" lon="2.147851">
        <ele>137.142364</ele>
        <time>2025-09-08T00:13:03.554Z</time>
      </trkpt>
      <trkpt lat="48.790307" lon="2.147904">
        <ele>136.838552</ele>
        <time>2025-09-08T00:13:04.269Z</time>
      </trkpt>
      <trkpt lat="48.790387" lon="2.148044">
        <ele>136.032776</ele>
        <time>2025-09-08T00:13:06.168Z</time>
      </trkpt>
      <trkpt lat="48.790815" lon="2.148780">
        <ele>133.094287</ele>
        <time>2025-09-08T00:13:16.893Z</time>
      </trkpt>
      <trkpt lat="48.790863" lon="2.148861">
        <ele>132.862750</ele>
        <time>2025-09-08T00:13:18.100Z</time>
      </trkpt>
      <trkpt lat="48.790910" lon="2.148942">
        <ele>132.633357</ele>
        <time>2025-09-08T00:13:19.287Z</time>
      </trkpt>
      <trkpt lat="48.791333" lon="2.149668">
        <ele>130.573608</ele>
        <time>2025-09-08T00:13:30.370Z</time>
      </trkpt>
      <trkpt lat="48.791672" lon="2.150255">
        <ele>128.914648</ele>
        <time>2025-09-08T00:13:39.649Z</time>
      </trkpt>
      <trkpt lat="48.791803" lon="2.150482">
        <ele>128.283328</ele>
        <time>2025-09-08T00:13:43.232Z</time>
      </trkpt>
      <trkpt lat="48.791951" lon="2.150735">
        <ele>127.589082</ele>
        <time>2025-09-08T00:13:47.097Z</time>
      </trkpt>
      <trkpt lat="48.792287" lon="2.151309">
        <ele>126.013541</ele>
        <time>2025-09-08T00:13:55.619Z</time>
      </trkpt>
      <trkpt lat="48.792467" lon="2.151628">
        <ele>125.151722</ele>
        <time>2025-09-08T00:14:00.244Z</time>
      </trkpt>
      <trkpt lat="48.792512" lon="2.151708">
        <ele>124.935878</ele>
        <time>2025-09-08T00:14:01.397Z</time>
      </trkpt>
      <trkpt lat="48.792720" lon="2.152059">
        <ele>123.967177</ele>
        <time>2025-09-08T00:14:06.657Z</time>
      </trkpt>
      <trkpt lat="48.793114" lon="2.152721">
        <ele>122.325112</ele>
        <time>2025-09-08T00:14:16.866Z</time>
      </trkpt>
      <trkpt lat="48.793579" lon="2.153513">
        <ele>120.645675</ele>
        <time>2025-09-08T00:14:29.421Z</time>
      </trkpt>
      <trkpt lat="48.794057" lon="2.154328">
        <ele>118.918281</ele>
        <time>2025-09-08T00:14:42.626Z</time>
      </trkpt>
      <trkpt lat="48.794397" lon="2.154890">
        <ele>117.842692</ele>
        <time>2025-09-08T00:14:51.565Z</time>
      </trkpt>
      <trkpt lat="48.794741" lon="2.155477">
        <ele>116.776100</ele>
        <time>2025-09-08T00:15:00.758Z</time>
      </trkpt>
      <trkpt lat="48.795034" lon="2.155977">
        <ele>115.867613</ele>
        <time>2025-09-08T00:15:08.725Z</time>
      </trkpt>
      <trkpt lat="48.795386" lon="2.155522">
        <ele>114.933510</ele>
        <time>2025-09-08T00:15:17.339Z</time>
      </trkpt>
      <trkpt lat="48.795612" lon="2.155235">
        <ele>114.956863</ele>
        <time>2025-09-08T00:15:23.017Z</time>
      </trkpt>
      <trkpt lat="48.795743" lon="2.155055">
        <ele>114.970867</ele>
        <time>2025-09-08T00:15:26.647Z</time>
      </trkpt>
      <trkpt lat="48.796089" lon="2.154603">
        <ele>115.007046</ele>
        <time>2025-09-08T00:15:37.178Z</time>
      </trkpt>
      <trkpt lat="48.796211" lon="2.154513">
        <ele>115.017796</ele>
        <time>2025-09-08T00:15:40.582Z</time>
      </trkpt>
      <trkpt lat="48.796412" lon="2.154383">
        <ele>115.035113</ele>
        <time>2025-09-08T00:15:45.996Z</time>
      </trkpt>
      <trkpt lat="48.796974" lon="2.154024">
        <ele>115.204805</ele>
        <time>2025-09-08T00:16:02.672Z</time>
      </trkpt>
      <trkpt lat="48.797140" lon="2.153926">
        <ele>115.431363</ele>
        <time>2025-09-08T00:16:07.943Z</time>
      </trkpt>
      <trkpt lat="48.797242" lon="2.153866">
        <ele>115.570508</ele>
        <time>2025-09-08T00:16:11.404Z</time>
      </trkpt>
      <trkpt lat="48.797452" lon="2.153743">
        <ele>115.856822</ele>
        <time>2025-09-08T00:16:18.704Z</time>
      </trkpt>
      <trkpt lat="48.797738" lon="2.153607">
        <ele>116.238046</ele>
        <time>2025-09-08T00:16:28.171Z</time>
      </trkpt>
      <trkpt lat="48.798017" lon="2.153526">
        <ele>116.599368</ele>
        <time>2025-09-08T00:16:36.489Z</time>
      </trkpt>
      <trkpt lat="48.798076" lon="2.153514">
        <ele>116.675087</ele>
        <time>2025-09-08T00:16:38.183Z</time>
      </trkpt>
      <trkpt lat="48.798172" lon="2.153569">
        <ele>116.805606</ele>
        <time>2025-09-08T00:16:40.929Z</time>
      </trkpt>
      <trkpt lat="48.798346" lon="2.153719">
        <ele>117.060131</ele>
        <time>2025-09-08T00:16:46.380Z</time>
      </trkpt>
      <trkpt lat="48.798350" lon="2.153822">
        <ele>117.146583</ele>
        <time>2025-09-08T00:16:48.191Z</time>
      </trkpt>
      <trkpt lat="48.798357" lon="2.153982">
        <ele>117.280940</ele>
        <time>2025-09-08T00:16:51.075Z</time>
      </trkpt>
      <trkpt lat="48.798387" lon="2.155377">
        <ele>117.269615</ele>
        <time>2025-09-08T00:17:13.341Z</time>
      </trkpt>
      <trkpt lat="48.798440" lon="2.157834">
        <ele>116.444546</ele>
        <time>2025-09-08T00:17:46.612Z</time>
      </trkpt>
      <trkpt lat="48.798461" lon="2.158049">
        <ele>116.291561</ele>
        <time>2025-09-08T00:17:49.546Z</time>
      </trkpt>
      <trkpt lat="48.798619" lon="2.158530">
        <ele>115.913245</ele>
        <time>2025-09-08T00:17:56.895Z</time>
      </trkpt>
      <trkpt lat="48.798787" lon="2.158845">
        <ele>115.627968</ele>
        <time>2025-09-08T00:18:02.256Z</time>
      </trkpt>
      <trkpt lat="48.798908" lon="2.159029">
        <ele>115.444966</ele>
        <time>2025-09-08T00:18:05.475Z</time>
      </trkpt>
      <trkpt lat="48.798974" lon="2.158948">
        <ele>115.354280</ele>
        <time>2025-09-08T00:18:11.416Z</time>
      </trkpt>
      <trkpt lat="48.798911" lon="2.158826">
        <ele>115.245168</ele>
        <time>2025-09-08T00:18:13.314Z</time>
      </trkpt>
      <trkpt lat="48.798928" lon="2.158809">
        <ele>115.201820</ele>
        <time>2025-09-08T00:18:13.686Z</time>
      </trkpt>
      <trkpt lat="48.798969" lon="2.158792">
        <ele>115.109346</ele>
        <time>2025-09-08T00:18:14.480Z</time>
      </trkpt>
      <trkpt lat="48.798991" lon="2.158790">
        <ele>115.061394</ele>
        <time>2025-09-08T00:18:14.887Z</time>
      </trkpt>
      <trkpt lat="48.799440" lon="2.159208">
        <ele>113.915422</ele>
        <time>2025-09-08T00:18:24.659Z</time>
      </trkpt>
      <trkpt lat="48.800666" lon="2.160405">
        <ele>110.699442</ele>
        <time>2025-09-08T00:18:50.730Z</time>
      </trkpt>
      <trkpt lat="48.801457" lon="2.161175">
        <ele>108.500056</ele>
        <time>2025-09-08T00:19:07.299Z</time>
      </trkpt>
      <trkpt lat="48.801609" lon="2.161324">
        <ele>108.076556</ele>
        <time>2025-09-08T00:19:10.518Z</time>
      </trkpt>
      <trkpt lat="48.801904" lon="2.161625">
        <ele>107.244604</ele>
        <time>2025-09-08T00:19:17.013Z</time>
      </trkpt>
      <trkpt lat="48.802213" lon="2.161945">
        <ele>106.750703</ele>
        <time>2025-09-08T00:19:23.988Z</time>
      </trkpt>
      <trkpt lat="48.802234" lon="2.161967">
        <ele>106.721301</ele>
        <time>2025-09-08T00:19:24.478Z</time>
      </trkpt>
      <trkpt lat="48.802756" lon="2.162503">
        <ele>105.995093</ele>
        <time>2025-09-08T00:19:36.573Z</time>
      </trkpt>
      <trkpt lat="48.803010" lon="2.162765">
        <ele>105.641222</ele>
        <time>2025-09-08T00:19:42.544Z</time>
      </trkpt>
      <trkpt lat="48.803354" lon="2.163107">
        <ele>105.167372</ele>
        <time>2025-09-08T00:19:50.910Z</time>
      </trkpt>
      <trkpt lat="48.803964" lon="2.163746">
        <ele>106.455502</ele>
        <time>2025-09-08T00:20:08.218Z</time>
      </trkpt>
      <trkpt lat="48.804151" lon="2.163943">
        <ele>106.957962</ele>
        <time>2025-09-08T00:20:14.902Z</time>
      </trkpt>
      <trkpt lat="48.804467" lon="2.164269">
        <ele>107.801362</ele>
        <time>2025-09-08T00:20:28.262Z</time>
      </trkpt>
      <trkpt lat="48.805078" lon="2.164888">
        <ele>110.128253</ele>
        <time>2025-09-08T00:21:01.939Z</time>
      </trkpt>
      <trkpt lat="48.805130" lon="2.164941">
        <ele>110.507796</ele>
        <time>2025-09-08T00:21:04.870Z</time>
      </trkpt>
      <trkpt lat="48.805157" lon="2.164948">
        <ele>110.673787</ele>
        <time>2025-09-08T00:21:06.207Z</time>
      </trkpt>
      <trkpt lat="48.805248" lon="2.164826">
        <ele>111.409468</ele>
        <time>2025-09-08T00:21:11.914Z</time>
      </trkpt>
      <trkpt lat="48.805371" lon="2.164815">
        <ele>112.156151</ele>
        <time>2025-09-08T00:21:17.856Z</time>
      </trkpt>
      <trkpt lat="48.805514" lon="2.164818">
        <ele>113.022826</ele>
        <time>2025-09-08T00:21:25.071Z</time>
      </trkpt>
      <trkpt lat="48.805569" lon="2.164818">
        <ele>113.356131</ele>
        <time>2025-09-08T00:21:27.993Z</time>
      </trkpt>
      <trkpt lat="48.805625" lon="2.164818">
        <ele>113.695496</ele>
        <time>2025-09-08T00:21:30.937Z</time>
      </trkpt>
      <trkpt lat="48.805666" lon="2.164965">
        <ele>114.332654</ele>
        <time>2025-09-08T00:21:36.466Z</time>
      </trkpt>
      <trkpt lat="48.805695" lon="2.165075">
        <ele>114.805561</ele>
        <time>2025-09-08T00:21:40.522Z</time>
      </trkpt>
      <trkpt lat="48.805761" lon="2.165321">
        <ele>115.865751</ele>
        <time>2025-09-08T00:21:50.036Z</time>
      </trkpt>
      <trkpt lat="48.805777" lon="2.165375">
        <ele>116.102085</ele>
        <time>2025-09-08T00:21:52.343Z</time>
      </trkpt>
      <trkpt lat="48.805878" lon="2.165484">
        <ele>116.853014</ele>
        <time>2025-09-08T00:21:59.202Z</time>
      </trkpt>
      <trkpt lat="48.805995" lon="2.165529">
        <ele>117.584439</ele>
        <time>2025-09-08T00:22:06.164Z</time>
      </trkpt>
      <trkpt lat="48.807448" lon="2.165760">
        <ele>127.210689</ele>
        <time>2025-09-08T00:23:31.662Z</time>
      </trkpt>
      <trkpt lat="48.807569" lon="2.165648">
        <ele>128.171268</ele>
        <time>2025-09-08T00:23:40.178Z</time>
      </trkpt>
      <trkpt lat="48.809401" lon="2.164697">
        <ele>139.598605</ele>
        <time>2025-09-08T00:25:19.716Z</time>
      </trkpt>
      <trkpt lat="48.809513" lon="2.164635">
        <ele>140.257411</ele>
        <time>2025-09-08T00:25:27.275Z</time>
      </trkpt>
      <trkpt lat="48.809464" lon="2.164355">
        <ele>141.311836</ele>
        <time>2025-09-08T00:25:39.145Z</time>
      </trkpt>
      <trkpt lat="48.810238" lon="2.164261">
        <ele>145.218093</ele>
        <time>2025-09-08T00:26:25.250Z</time>
      </trkpt>
      <trkpt lat="48.810384" lon="2.164271">
        <ele>145.938266</ele>
        <time>2025-09-08T00:26:33.434Z</time>
      </trkpt>
      <trkpt lat="48.810432" lon="2.164194">
        <ele>146.282336</ele>
        <time>2025-09-08T00:26:37.481Z</time>
      </trkpt>
      <trkpt lat="48.810591" lon="2.163884">
        <ele>147.557441</ele>
        <time>2025-09-08T00:26:53.116Z</time>
      </trkpt>
      <trkpt lat="48.810810" lon="2.163561">
        <ele>149.061855</ele>
        <time>2025-09-08T00:27:11.533Z</time>
      </trkpt>
      <trkpt lat="48.811073" lon="2.162974">
        <ele>151.482591</ele>
        <time>2025-09-08T00:27:42.259Z</time>
      </trkpt>
      <trkpt lat="48.811284" lon="2.162656">
        <ele>153.326112</ele>
        <time>2025-09-08T00:28:02.523Z</time>
      </trkpt>
      <trkpt lat="48.811370" lon="2.162423">
        <ele>154.416897</ele>
        <time>2025-09-08T00:28:12.313Z</time>
      </trkpt>
      <trkpt lat="48.811425" lon="2.162338">
        <ele>154.903540</ele>
        <time>2025-09-08T00:28:16.852Z</time>
      </trkpt>
      <trkpt lat="48.811604" lon="2.162253">
        <ele>156.066575</ele>
        <time>2025-09-08T00:28:30.266Z</time>
      </trkpt>
      <trkpt lat="48.812087" lon="2.162128">
        <ele>159.104973</ele>
        <time>2025-09-08T00:29:05.553Z</time>
      </trkpt>
      <trkpt lat="48.812154" lon="2.162059">
        <ele>159.606995</ele>
        <time>2025-09-08T00:29:10.192Z</time>
      </trkpt>
      <trkpt lat="48.812194" lon="2.161986">
        <ele>159.994809</ele>
        <time>2025-09-08T00:29:13.704Z</time>
      </trkpt>
      <trkpt lat="48.812347" lon="2.161706">
        <ele>161.480628</ele>
        <time>2025-09-08T00:29:26.331Z</time>
      </trkpt>
      <trkpt lat="48.812499" lon="2.161432">
        <ele>162.526216</ele>
        <time>2025-09-08T00:29:39.188Z</time>
      </trkpt>
      <trkpt lat="48.812534" lon="2.161272">
        <ele>162.886588</ele>
        <time>2025-09-08T00:29:44.790Z</time>
      </trkpt>
      <trkpt lat="48.812753" lon="2.161400">
        <ele>163.648266</ele>
        <time>2025-09-08T00:29:55.809Z</time>
      </trkpt>
      <trkpt lat="48.812933" lon="2.160910">
        <ele>164.847563</ele>
        <time>2025-09-08T00:30:09.146Z</time>
      </trkpt>
      <trkpt lat="48.813193" lon="2.160343">
        <ele>166.324384</ele>
        <time>2025-09-08T00:30:24.156Z</time>
      </trkpt>
      <trkpt lat="48.813667" lon="2.159539">
        <ele>168.261125</ele>
        <time>2025-09-08T00:30:47.776Z</time>
      </trkpt>
      <trkpt lat="48.813873" lon="2.158847">
        <ele>169.056389</ele>
        <time>2025-09-08T00:31:03.783Z</time>
      </trkpt>
      <trkpt lat="48.813898" lon="2.158754">
        <ele>169.161580</ele>
        <time>2025-09-08T00:31:05.864Z</time>
      </trkpt>
      <trkpt lat="48.814538" lon="2.157538">
        <ele>170.782274</ele>
        <time>2025-09-08T00:31:35.809Z</time>
      </trkpt>
      <trkpt lat="48.814599" lon="2.157405">
        <ele>170.889304</ele>
        <time>2025-09-08T00:31:38.480Z</time>
      </trkpt>
      <trkpt lat="48.814633" lon="2.157339">
        <ele>170.944639</ele>
        <time>2025-09-08T00:31:39.822Z</time>
      </trkpt>
      <trkpt lat="48.814678" lon="2.157245">
        <ele>171.021382</ele>
        <time>2025-09-08T00:31:41.709Z</time>
      </trkpt>
      <trkpt lat="48.814824" lon="2.156897">
        <ele>171.293859</ele>
        <time>2025-09-08T00:31:48.590Z</time>
      </trkpt>
      <trkpt lat="48.815444" lon="2.155620">
        <ele>172.341543</ele>
        <time>2025-09-08T00:32:16.861Z</time>
      </trkpt>
      <trkpt lat="48.815810" lon="2.154950">
        <ele>172.754785</ele>
        <time>2025-09-08T00:32:33.235Z</time>
      </trkpt>
      <trkpt lat="48.816073" lon="2.154395">
        <ele>172.995733</ele>
        <time>2025-09-08T00:32:45.418Z</time>
      </trkpt>
      <trkpt lat="48.816124" lon="2.154148">
        <ele>173.086949</ele>
        <time>2025-09-08T00:32:49.626Z</time>
      </trkpt>
      <trkpt lat="48.816073" lon="2.153459">
        <ele>173.331267</ele>
        <time>2025-09-08T00:32:59.784Z</time>
      </trkpt>
      <trkpt lat="48.816118" lon="2.153184">
        <ele>173.431118</ele>
        <time>2025-09-08T00:33:03.780Z</time>
      </trkpt>
      <trkpt lat="48.816766" lon="2.152015">
        <ele>174.122670</ele>
        <time>2025-09-08T00:33:27.322Z</time>
      </trkpt>
      <trkpt lat="48.816966" lon="2.151636">
        <ele>174.353748</ele>
        <time>2025-09-08T00:33:35.488Z</time>
      </trkpt>
      <trkpt lat="48.817102" lon="2.151479">
        <ele>174.477180</ele>
        <time>2025-09-08T00:33:40.440Z</time>
      </trkpt>
      <trkpt lat="48.817527" lon="2.151293">
        <ele>174.796756</ele>
        <time>2025-09-08T00:33:53.507Z</time>
      </trkpt>
      <trkpt lat="48.817656" lon="2.151202">
        <ele>174.886294</ele>
        <time>2025-09-08T00:33:57.927Z</time>
      </trkpt>
      <trkpt lat="48.818012" lon="2.150759">
        <ele>175.153680</ele>
        <time>2025-09-08T00:34:11.304Z</time>
      </trkpt>
      <trkpt lat="48.818313" lon="2.150744">
        <ele>175.328646</ele>
        <time>2025-09-08T00:34:19.477Z</time>
      </trkpt>
      <trkpt lat="48.818809" lon="2.150683">
        <ele>175.617750</ele>
        <time>2025-09-08T00:34:32.910Z</time>
      </trkpt>
      <trkpt lat="48.818903" lon="2.150678">
        <ele>175.672394</ele>
        <time>2025-09-08T00:34:35.131Z</time>
      </trkpt>
      <trkpt lat="48.818977" lon="2.150742">
        <ele>175.721868</ele>
        <time>2025-09-08T00:34:36.930Z</time>
      </trkpt>
      <trkpt lat="48.819120" lon="2.150686">
        <ele>175.807664</ele>
        <time>2025-09-08T00:34:39.963Z</time>
      </trkpt>
      <trkpt lat="48.819156" lon="2.150560">
        <ele>175.860205</ele>
        <time>2025-09-08T00:34:41.799Z</time>
      </trkpt>
      <trkpt lat="48.819180" lon="2.150372">
        <ele>175.626799</ele>
        <time>2025-09-08T00:34:44.275Z</time>
      </trkpt>
      <trkpt lat="48.819192" lon="2.150258">
        <ele>175.431346</ele>
        <time>2025-09-08T00:34:45.740Z</time>
      </trkpt>
      <trkpt lat="48.819098" lon="2.150106">
        <ele>175.078304</ele>
        <time>2025-09-08T00:34:48.380Z</time>
      </trkpt>
      <trkpt lat="48.819106" lon="2.149985">
        <ele>174.872420</ele>
        <time>2025-09-08T00:34:49.891Z</time>
      </trkpt>
      <trkpt lat="48.819149" lon="2.149995">
        <ele>174.760569</ele>
        <time>2025-09-08T00:34:52.926Z</time>
      </trkpt>
      <trkpt lat="48.819339" lon="2.149963">
        <ele>174.269039</ele>
        <time>2025-09-08T00:34:56.884Z</time>
      </trkpt>
      <trkpt lat="48.819466" lon="2.150021">
        <ele>173.928048</ele>
        <time>2025-09-08T00:34:59.598Z</time>
      </trkpt>
      <trkpt lat="48.819745" lon="2.150438">
        <ele>172.921556</ele>
        <time>2025-09-08T00:35:07.444Z</time>
      </trkpt>
      <trkpt lat="48.820330" lon="2.150765">
        <ele>171.318742</ele>
        <time>2025-09-08T00:35:19.067Z</time>
      </trkpt>
      <trkpt lat="48.821127" lon="2.150832">
        <ele>168.957290</ele>
        <time>2025-09-08T00:35:33.673Z</time>
      </trkpt>
      <trkpt lat="48.821298" lon="2.150864">
        <ele>168.445344</ele>
        <time>2025-09-08T00:35:36.929Z</time>
      </trkpt>
      <trkpt lat="48.821805" lon="2.150796">
        <ele>166.932997</ele>
        <time>2025-09-08T00:35:46.938Z</time>
      </trkpt>
      <trkpt lat="48.822945" lon="2.150307">
        <ele>166.748880</ele>
        <time>2025-09-08T00:36:14.974Z</time>
      </trkpt>
      <trkpt lat="48.823073" lon="2.150292">
        <ele>166.877498</ele>
        <time>2025-09-08T00:36:18.905Z</time>
      </trkpt>
      <trkpt lat="48.823437" lon="2.150098">
        <ele>167.263972</ele>
        <time>2025-09-08T00:36:32.295Z</time>
      </trkpt>
      <trkpt lat="48.824127" lon="2.149751">
        <ele>168.165119</ele>
        <time>2025-09-08T00:37:01.606Z</time>
      </trkpt>
      <trkpt lat="48.824692" lon="2.149536">
        <ele>169.106051</ele>
        <time>2025-09-08T00:37:23.589Z</time>
      </trkpt>
      <trkpt lat="48.825076" lon="2.149400">
        <ele>169.743020</ele>
        <time>2025-09-08T00:37:37.850Z</time>
      </trkpt>
      <trkpt lat="48.825947" lon="2.149045">
        <ele>169.826956</ele>
        <time>2025-09-08T00:37:59.844Z</time>
      </trkpt>
      <trkpt lat="48.827213" lon="2.148431">
        <ele>166.931193</ele>
        <time>2025-09-08T00:38:25.670Z</time>
      </trkpt>
      <trkpt lat="48.827386" lon="2.148219">
        <ele>166.563509</ele>
        <time>2025-09-08T00:38:29.975Z</time>
      </trkpt>
      <trkpt lat="48.828156" lon="2.146998">
        <ele>165.272897</ele>
        <time>2025-09-08T00:38:53.484Z</time>
      </trkpt>
      <trkpt lat="48.829261" lon="2.145093">
        <ele>165.606885</ele>
        <time>2025-09-08T00:39:39.693Z</time>
      </trkpt>
      <trkpt lat="48.830238" lon="2.143509">
        <ele>167.526199</ele>
        <time>2025-09-08T00:40:25.655Z</time>
      </trkpt>
      <trkpt lat="48.830609" lon="2.142806">
        <ele>168.571094</ele>
        <time>2025-09-08T00:40:45.530Z</time>
      </trkpt>
      <trkpt lat="48.830714" lon="2.142552">
        <ele>168.918916</ele>
        <time>2025-09-08T00:40:52.503Z</time>
      </trkpt>
      <trkpt lat="48.830896" lon="2.142323">
        <ele>169.335238</ele>
        <time>2025-09-08T00:41:08.934Z</time>
      </trkpt>
      <trkpt lat="48.830987" lon="2.142339">
        <ele>169.514053</ele>
        <time>2025-09-08T00:41:11.900Z</time>
      </trkpt>
      <trkpt lat="48.831112" lon="2.142376">
        <ele>169.782378</ele>
        <time>2025-09-08T00:41:16.074Z</time>
      </trkpt>
      <trkpt lat="48.831425" lon="2.142467">
        <ele>170.453831</ele>
        <time>2025-09-08T00:41:26.396Z</time>
      </trkpt>
      <trkpt lat="48.831505" lon="2.142495">
        <ele>170.626805</ele>
        <time>2025-09-08T00:41:29.092Z</time>
      </trkpt>
      <trkpt lat="48.831942" lon="2.142612">
        <ele>171.561743</ele>
        <time>2025-09-08T00:41:44.215Z</time>
      </trkpt>
      <trkpt lat="48.832858" lon="2.142818">
        <ele>173.288395</ele>
        <time>2025-09-08T00:42:15.457Z</time>
      </trkpt>
      <trkpt lat="48.833039" lon="2.142841">
        <ele>173.398842</ele>
        <time>2025-09-08T00:42:20.628Z</time>
      </trkpt>
      <trkpt lat="48.833572" lon="2.142881">
        <ele>173.723345</ele>
        <time>2025-09-08T00:42:34.041Z</time>
      </trkpt>
      <trkpt lat="48.833787" lon="2.142903">
        <ele>173.854378</ele>
        <time>2025-09-08T00:42:39.207Z</time>
      </trkpt>
      <trkpt lat="48.833887" lon="2.142914">
        <ele>173.915346</ele>
        <time>2025-09-08T00:42:41.581Z</time>
      </trkpt>
      <trkpt lat="48.834260" lon="2.142191">
        <ele>174.283031</ele>
        <time>2025-09-08T00:42:55.334Z</time>
      </trkpt>
      <trkpt lat="48.834486" lon="2.141892">
        <ele>174.074405</ele>
        <time>2025-09-08T00:43:01.678Z</time>
      </trkpt>
      <trkpt lat="48.835847" lon="2.140121">
        <ele>172.254369</ele>
        <time>2025-09-08T00:43:37.826Z</time>
      </trkpt>
      <trkpt lat="48.836085" lon="2.139997">
        <ele>171.646407</ele>
        <time>2025-09-08T00:43:42.522Z</time>
      </trkpt>
      <trkpt lat="48.836153" lon="2.139983">
        <ele>171.480595</ele>
        <time>2025-09-08T00:43:43.787Z</time>
      </trkpt>
      <trkpt lat="48.836286" lon="2.139956">
        <ele>171.156368</ele>
        <time>2025-09-08T00:43:46.226Z</time>
      </trkpt>
      <trkpt lat="48.836349" lon="2.139942">
        <ele>171.002520</ele>
        <time>2025-09-08T00:43:47.360Z</time>
      </trkpt>
      <trkpt lat="48.836450" lon="2.139912">
        <ele>170.753850</ele>
        <time>2025-09-08T00:43:49.213Z</time>
      </trkpt>
      <trkpt lat="48.836499" lon="2.139850">
        <ele>170.599766</ele>
        <time>2025-09-08T00:43:50.317Z</time>
      </trkpt>
      <trkpt lat="48.836514" lon="2.139761">
        <ele>170.453649</ele>
        <time>2025-09-08T00:43:51.389Z</time>
      </trkpt>
      <trkpt lat="48.836896" lon="2.139498">
        <ele>169.440260</ele>
        <time>2025-09-08T00:43:58.569Z</time>
      </trkpt>
      <trkpt lat="48.837164" lon="2.139512">
        <ele>168.792303</ele>
        <time>2025-09-08T00:44:03.077Z</time>
      </trkpt>
      <trkpt lat="48.837871" lon="2.139655">
        <ele>166.480393</ele>
        <time>2025-09-08T00:44:15.061Z</time>
      </trkpt>
      <trkpt lat="48.838891" lon="2.139861">
        <ele>163.028513</ele>
        <time>2025-09-08T00:44:32.220Z</time>
      </trkpt>
      <trkpt lat="48.838841" lon="2.140489">
        <ele>162.410517</ele>
        <time>2025-09-08T00:44:39.640Z</time>
      </trkpt>
      <trkpt lat="48.838700" lon="2.140988">
        <ele>162.227928</ele>
        <time>2025-09-08T00:44:47.235Z</time>
      </trkpt>
      <trkpt lat="48.838665" lon="2.141197">
        <ele>162.155416</ele>
        <time>2025-09-08T00:44:50.389Z</time>
      </trkpt>
      <trkpt lat="48.838633" lon="2.141406">
        <ele>162.083267</ele>
        <time>2025-09-08T00:44:53.614Z</time>
      </trkpt>
      <trkpt lat="48.838621" lon="2.141866">
        <ele>161.928478</ele>
        <time>2025-09-08T00:45:01.015Z</time>
      </trkpt>
      <trkpt lat="48.838375" lon="2.143164">
        <ele>161.683366</ele>
        <time>2025-09-08T00:45:29.802Z</time>
      </trkpt>
      <trkpt lat="48.838269" lon="2.143766">
        <ele>161.752394</ele>
        <time>2025-09-08T00:45:47.959Z</time>
      </trkpt>
      <trkpt lat="48.838204" lon="2.144861">
        <ele>161.874179</ele>
        <time>2025-09-08T00:46:14.117Z</time>
      </trkpt>
      <trkpt lat="48.838572" lon="2.145219">
        <ele>162.000692</ele>
        <time>2025-09-08T00:46:23.474Z</time>
      </trkpt>
      <trkpt lat="48.839239" lon="2.144904">
        <ele>162.581035</ele>
        <time>2025-09-08T00:46:39.292Z</time>
      </trkpt>
      <trkpt lat="48.839696" lon="2.144703">
        <ele>162.976330</ele>
        <time>2025-09-08T00:46:53.236Z</time>
      </trkpt>
      <trkpt lat="48.840341" lon="2.145358">
        <ele>164.022806</ele>
        <time>2025-09-08T00:47:33.936Z</time>
      </trkpt>
      <trkpt lat="48.840752" lon="2.145686">
        <ele>165.214986</ele>
        <time>2025-09-08T00:47:59.686Z</time>
      </trkpt>
      <trkpt lat="48.840770" lon="2.145816">
        <ele>165.439514</ele>
        <time>2025-09-08T00:48:04.298Z</time>
      </trkpt>
      <trkpt lat="48.840876" lon="2.145811">
        <ele>165.711853</ele>
        <time>2025-09-08T00:48:08.160Z</time>
      </trkpt>
      <trkpt lat="48.841796" lon="2.145715">
        <ele>168.066391</ele>
        <time>2025-09-08T00:48:37.336Z</time>
      </trkpt>
      <trkpt lat="48.842342" lon="2.145674">
        <ele>168.880999</ele>
        <time>2025-09-08T00:48:55.468Z</time>
      </trkpt>
      <trkpt lat="48.842489" lon="2.145676">
        <ele>169.100058</ele>
        <time>2025-09-08T00:49:00.269Z</time>
      </trkpt>
      <trkpt lat="48.842876" lon="2.145893">
        <ele>169.714755</ele>
        <time>2025-09-08T00:49:13.415Z</time>
      </trkpt>
      <trkpt lat="48.843216" lon="2.146135">
        <ele>170.274233</ele>
        <time>2025-09-08T00:49:24.622Z</time>
      </trkpt>
      <trkpt lat="48.843978" lon="2.146711">
        <ele>170.087394</ele>
        <time>2025-09-08T00:49:44.236Z</time>
      </trkpt>
      <trkpt lat="48.844453" lon="2.147016">
        <ele>169.483282</ele>
        <time>2025-09-08T00:49:54.016Z</time>
      </trkpt>
      <trkpt lat="48.845274" lon="2.147623">
        <ele>168.327058</ele>
        <time>2025-09-08T00:50:10.480Z</time>
      </trkpt>
      <trkpt lat="48.845834" lon="2.148031">
        <ele>167.295161</ele>
        <time>2025-09-08T00:50:21.952Z</time>
      </trkpt>
      <trkpt lat="48.845994" lon="2.148162">
        <ele>166.993177</ele>
        <time>2025-09-08T00:50:25.335Z</time>
      </trkpt>
      <trkpt lat="48.846353" lon="2.148412">
        <ele>166.337024</ele>
        <time>2025-09-08T00:50:32.785Z</time>
      </trkpt>
      <trkpt lat="48.846675" lon="2.148636">
        <ele>165.748604</ele>
        <time>2025-09-08T00:50:39.632Z</time>
      </trkpt>
      <trkpt lat="48.846905" lon="2.148810">
        <ele>165.598100</ele>
        <time>2025-09-08T00:50:44.763Z</time>
      </trkpt>
      <trkpt lat="48.846999" lon="2.148872">
        <ele>165.579422</ele>
        <time>2025-09-08T00:50:46.810Z</time>
      </trkpt>
      <trkpt lat="48.847022" lon="2.148972">
        <ele>165.566716</ele>
        <time>2025-09-08T00:50:48.232Z</time>
      </trkpt>
      <trkpt lat="48.847420" lon="2.149476">
        <ele>165.472284</ele>
        <time>2025-09-08T00:50:59.071Z</time>
      </trkpt>
      <trkpt lat="48.847606" lon="2.149769">
        <ele>165.423452</ele>
        <time>2025-09-08T00:51:05.463Z</time>
      </trkpt>
      <trkpt lat="48.847750" lon="2.150025">
        <ele>165.383056</ele>
        <time>2025-09-08T00:51:10.962Z</time>
      </trkpt>
      <trkpt lat="48.847878" lon="2.150353">
        <ele>165.337316</ele>
        <time>2025-09-08T00:51:17.250Z</time>
      </trkpt>
      <trkpt lat="48.847978" lon="2.150726">
        <ele>165.294118</ele>
        <time>2025-09-08T00:51:23.658Z</time>
      </trkpt>
      <trkpt lat="48.847997" lon="2.150980">
        <ele>165.273695</ele>
        <time>2025-09-08T00:51:27.639Z</time>
      </trkpt>
      <trkpt lat="48.848021" lon="2.151264">
        <ele>165.250821</ele>
        <time>2025-09-08T00:51:32.024Z</time>
      </trkpt>
      <trkpt lat="48.848193" lon="2.151903">
        <ele>165.195668</ele>
        <time>2025-09-08T00:51:42.698Z</time>
      </trkpt>
      <trkpt lat="48.848348" lon="2.152432">
        <ele>165.149407</ele>
        <time>2025-09-08T00:51:51.138Z</time>
      </trkpt>
      <trkpt lat="48.848600" lon="2.152710">
        <ele>165.111604</ele>
        <time>2025-09-08T00:51:57.536Z</time>
      </trkpt>
      <trkpt lat="48.848723" lon="2.152918">
        <ele>165.089264</ele>
        <time>2025-09-08T00:52:01.230Z</time>
      </trkpt>
      <trkpt lat="48.848835" lon="2.153001">
        <ele>164.986310</ele>
        <time>2025-09-08T00:52:03.722Z</time>
      </trkpt>
      <trkpt lat="48.848957" lon="2.153190">
        <ele>164.808045</ele>
        <time>2025-09-08T00:52:07.179Z</time>
      </trkpt>
      <trkpt lat="48.850900" lon="2.156188">
        <ele>161.507498</ele>
        <time>2025-09-08T00:53:01.769Z</time>
      </trkpt>
      <trkpt lat="48.850932" lon="2.156238">
        <ele>161.443267</ele>
        <time>2025-09-08T00:53:02.662Z</time>
      </trkpt>
      <trkpt lat="48.851004" lon="2.156349">
        <ele>161.299733</ele>
        <time>2025-09-08T00:53:04.622Z</time>
      </trkpt>
      <trkpt lat="48.851036" lon="2.156396">
        <ele>161.237453</ele>
        <time>2025-09-08T00:53:05.494Z</time>
      </trkpt>
      <trkpt lat="48.851054" lon="2.156423">
        <ele>161.202058</ele>
        <time>2025-09-08T00:53:05.973Z</time>
      </trkpt>
      <trkpt lat="48.851097" lon="2.156485">
        <ele>161.119105</ele>
        <time>2025-09-08T00:53:07.095Z</time>
      </trkpt>
      <trkpt lat="48.851315" lon="2.156815">
        <ele>160.570128</ele>
        <time>2025-09-08T00:53:12.945Z</time>
      </trkpt>
      <trkpt lat="48.851463" lon="2.157080">
        <ele>159.300146</ele>
        <time>2025-09-08T00:53:20.515Z</time>
      </trkpt>
      <trkpt lat="48.851882" lon="2.158066">
        <ele>155.011601</ele>
        <time>2025-09-08T00:53:43.527Z</time>
      </trkpt>
      <trkpt lat="48.852060" lon="2.158468">
        <ele>153.241219</ele>
        <time>2025-09-08T00:53:52.284Z</time>
      </trkpt>
      <trkpt lat="48.852155" lon="2.158683">
        <ele>152.294991</ele>
        <time>2025-09-08T00:53:56.855Z</time>
      </trkpt>
      <trkpt lat="48.852677" lon="2.159498">
        <ele>146.085753</ele>
        <time>2025-09-08T00:54:15.994Z</time>
      </trkpt>
      <trkpt lat="48.852921" lon="2.159831">
        <ele>142.827292</ele>
        <time>2025-09-08T00:54:24.228Z</time>
      </trkpt>
      <trkpt lat="48.852967" lon="2.160193">
        <ele>140.416851</ele>
        <time>2025-09-08T00:54:30.350Z</time>
      </trkpt>
      <trkpt lat="48.852960" lon="2.160459">
        <ele>138.676386</ele>
        <time>2025-09-08T00:54:34.807Z</time>
      </trkpt>
      <trkpt lat="48.853049" lon="2.160701">
        <ele>136.863861</ele>
        <time>2025-09-08T00:54:39.499Z</time>
      </trkpt>
      <trkpt lat="48.853287" lon="2.161178">
        <ele>132.950092</ele>
        <time>2025-09-08T00:54:49.731Z</time>
      </trkpt>
      <trkpt lat="48.853406" lon="2.161417">
        <ele>131.781721</ele>
        <time>2025-09-08T00:54:52.613Z</time>
      </trkpt>
      <trkpt lat="48.853891" lon="2.162278">
        <ele>127.491554</ele>
        <time>2025-09-08T00:55:04.092Z</time>
      </trkpt>
      <trkpt lat="48.854081" lon="2.162478">
        <ele>126.161987</ele>
        <time>2025-09-08T00:55:07.785Z</time>
      </trkpt>
      <trkpt lat="48.854399" lon="2.162634">
        <ele>124.239706</ele>
        <time>2025-09-08T00:55:13.161Z</time>
      </trkpt>
      <trkpt lat="48.855054" lon="2.162899">
        <ele>120.944751</ele>
        <time>2025-09-08T00:55:24.426Z</time>
      </trkpt>
      <trkpt lat="48.855330" lon="2.163213">
        <ele>119.510659</ele>
        <time>2025-09-08T00:55:30.255Z</time>
      </trkpt>
      <trkpt lat="48.855722" lon="2.163558">
        <ele>117.626407</ele>
        <time>2025-09-08T00:55:37.778Z</time>
      </trkpt>
      <trkpt lat="48.856189" lon="2.163909">
        <ele>115.459287</ele>
        <time>2025-09-08T00:55:46.225Z</time>
      </trkpt>
      <trkpt lat="48.857812" lon="2.165030">
        <ele>105.954395</ele>
        <time>2025-09-08T00:56:14.074Z</time>
      </trkpt>
      <trkpt lat="48.858074" lon="2.165144">
        <ele>104.496181</ele>
        <time>2025-09-08T00:56:18.315Z</time>
      </trkpt>
      <trkpt lat="48.859537" lon="2.165212">
        <ele>96.720088</ele>
        <time>2025-09-08T00:56:41.216Z</time>
      </trkpt>
      <trkpt lat="48.859883" lon="2.164883">
        <ele>94.797974</ele>
        <time>2025-09-08T00:56:52.985Z</time>
      </trkpt>
      <trkpt lat="48.860021" lon="2.164700">
        <ele>94.021710</ele>
        <time>2025-09-08T00:56:58.343Z</time>
      </trkpt>
      <trkpt lat="48.860080" lon="2.164637">
        <ele>93.716084</ele>
        <time>2025-09-08T00:57:00.484Z</time>
      </trkpt>
      <trkpt lat="48.860084" lon="2.164633">
        <ele>93.695789</ele>
        <time>2025-09-08T00:57:00.632Z</time>
      </trkpt>
      <trkpt lat="48.860110" lon="2.164605">
        <ele>93.560725</ele>
        <time>2025-09-08T00:57:01.587Z</time>
      </trkpt>
      <trkpt lat="48.860223" lon="2.164544">
        <ele>93.052441</ele>
        <time>2025-09-08T00:57:05.168Z</time>
      </trkpt>
      <trkpt lat="48.860248" lon="2.164521">
        <ele>92.928574</ele>
        <time>2025-09-08T00:57:06.029Z</time>
      </trkpt>
      <trkpt lat="48.860299" lon="2.164457">
        <ele>92.648246</ele>
        <time>2025-09-08T00:57:08.045Z</time>
      </trkpt>
      <trkpt lat="48.860699" lon="2.164168">
        <ele>90.770972</ele>
        <time>2025-09-08T00:57:15.492Z</time>
      </trkpt>
      <trkpt lat="48.861299" lon="2.163832">
        <ele>88.032194</ele>
        <time>2025-09-08T00:57:26.060Z</time>
      </trkpt>
      <trkpt lat="48.861451" lon="2.163788">
        <ele>87.156403</ele>
        <time>2025-09-08T00:57:28.555Z</time>
      </trkpt>
      <trkpt lat="48.861916" lon="2.163654">
        <ele>84.477595</ele>
        <time>2025-09-08T00:57:36.070Z</time>
      </trkpt>
      <trkpt lat="48.862507" lon="2.163420">
        <ele>81.020883</ele>
        <time>2025-09-08T00:57:45.465Z</time>
      </trkpt>
      <trkpt lat="48.862507" lon="2.163420">
        <ele>81.020883</ele>
        <time>2025-09-08T00:57:45.467Z</time>
      </trkpt>
      <trkpt lat="48.863375" lon="2.162878">
        <ele>75.325105</ele>
        <time>2025-09-08T00:57:59.662Z</time>
      </trkpt>
      <trkpt lat="48.863901" lon="2.162590">
        <ele>71.621240</ele>
        <time>2025-09-08T00:58:08.188Z</time>
      </trkpt>
      <trkpt lat="48.863962" lon="2.162416">
        <ele>70.761954</ele>
        <time>2025-09-08T00:58:10.151Z</time>
      </trkpt>
      <trkpt lat="48.864058" lon="2.162326">
        <ele>70.014735</ele>
        <time>2025-09-08T00:58:12.094Z</time>
      </trkpt>
      <trkpt lat="48.865101" lon="2.162213">
        <ele>62.959626</ele>
        <time>2025-09-08T00:58:29.886Z</time>
      </trkpt>
      <trkpt lat="48.865929" lon="2.162098">
        <ele>57.213674</ele>
        <time>2025-09-08T00:58:43.981Z</time>
      </trkpt>
      <trkpt lat="48.866609" lon="2.162007">
        <ele>52.572552</ele>
        <time>2025-09-08T00:58:55.656Z</time>
      </trkpt>
      <trkpt lat="48.867103" lon="2.162062">
        <ele>49.382292</ele>
        <time>2025-09-08T00:59:04.097Z</time>
      </trkpt>
      <trkpt lat="48.867335" lon="2.162132">
        <ele>47.858888</ele>
        <time>2025-09-08T00:59:08.138Z</time>
      </trkpt>
      <trkpt lat="48.867816" lon="2.162482">
        <ele>44.424280</ele>
        <time>2025-09-08T00:59:17.229Z</time>
      </trkpt>
      <trkpt lat="48.868278" lon="2.162504">
        <ele>41.701720</ele>
        <time>2025-09-08T00:59:25.256Z</time>
      </trkpt>
      <trkpt lat="48.868679" lon="2.162439">
        <ele>40.229932</ele>
        <time>2025-09-08T00:59:32.515Z</time>
      </trkpt>
      <trkpt lat="48.868766" lon="2.162347">
        <ele>39.843156</ele>
        <time>2025-09-08T00:59:34.494Z</time>
      </trkpt>
      <trkpt lat="48.868795" lon="2.162308">
        <ele>39.701850</ele>
        <time>2025-09-08T00:59:35.218Z</time>
      </trkpt>
      <trkpt lat="48.868904" lon="2.162079">
        <ele>39.023266</ele>
        <time>2025-09-08T00:59:38.786Z</time>
      </trkpt>
      <trkpt lat="48.869179" lon="2.159988">
        <ele>33.813331</ele>
        <time>2025-09-08T01:00:07.003Z</time>
      </trkpt>
      <trkpt lat="48.869192" lon="2.159644">
        <ele>32.938170</ele>
        <time>2025-09-08T01:00:11.204Z</time>
      </trkpt>
      <trkpt lat="48.869166" lon="2.159213">
        <ele>31.838887</ele>
        <time>2025-09-08T01:00:16.370Z</time>
      </trkpt>
      <trkpt lat="48.869193" lon="2.159200">
        <ele>31.729528</ele>
        <time>2025-09-08T01:00:16.891Z</time>
      </trkpt>
      <trkpt lat="48.869318" lon="2.159118">
        <ele>31.203849</ele>
        <time>2025-09-08T01:00:19.365Z</time>
      </trkpt>
      <trkpt lat="48.869333" lon="2.158925">
        <ele>30.710243</ele>
        <time>2025-09-08T01:00:21.689Z</time>
      </trkpt>
      <trkpt lat="48.869412" lon="2.158698">
        <ele>30.057969</ele>
        <time>2025-09-08T01:00:24.769Z</time>
      </trkpt>
      <trkpt lat="48.869501" lon="2.158595">
        <ele>29.626070</ele>
        <time>2025-09-08T01:00:26.801Z</time>
      </trkpt>
      <trkpt lat="48.869689" lon="2.158550">
        <ele>28.891204</ele>
        <time>2025-09-08T01:00:30.247Z</time>
      </trkpt>
      <trkpt lat="48.869870" lon="2.158670">
        <ele>28.310235</ele>
        <time>2025-09-08T01:00:33.862Z</time>
      </trkpt>
      <trkpt lat="48.870059" lon="2.159034">
        <ele>27.671718</ele>
        <time>2025-09-08T01:00:39.667Z</time>
      </trkpt>
      <trkpt lat="48.870097" lon="2.159079">
        <ele>27.570891</ele>
        <time>2025-09-08T01:00:40.809Z</time>
      </trkpt>
      <trkpt lat="48.870392" lon="2.159293">
        <ele>26.886685</ele>
        <time>2025-09-08T01:00:51.056Z</time>
      </trkpt>
      <trkpt lat="48.870611" lon="2.159335">
        <ele>26.424630</ele>
        <time>2025-09-08T01:00:58.240Z</time>
      </trkpt>
      <trkpt lat="48.870816" lon="2.159290">
        <ele>25.991063</ele>
        <time>2025-09-08T01:01:05.376Z</time>
      </trkpt>
      <trkpt lat="48.870939" lon="2.159211">
        <ele>25.711559</ele>
        <time>2025-09-08T01:01:10.059Z</time>
      </trkpt>
      <trkpt lat="48.871194" lon="2.158921">
        <ele>25.044963</ele>
        <time>2025-09-08T01:01:21.208Z</time>
      </trkpt>
      <trkpt lat="48.871408" lon="2.158664">
        <ele>24.811048</ele>
        <time>2025-09-08T01:01:27.557Z</time>
      </trkpt>
      <trkpt lat="48.871714" lon="2.158350">
        <ele>24.948736</ele>
        <time>2025-09-08T01:01:36.448Z</time>
      </trkpt>
      <trkpt lat="48.871871" lon="2.158229">
        <ele>25.014384</ele>
        <time>2025-09-08T01:01:40.920Z</time>
      </trkpt>
      <trkpt lat="48.872152" lon="2.158096">
        <ele>25.124146</ele>
        <time>2025-09-08T01:01:48.923Z</time>
      </trkpt>
      <trkpt lat="48.872252" lon="2.158060">
        <ele>25.162473</ele>
        <time>2025-09-08T01:01:51.816Z</time>
      </trkpt>
      <trkpt lat="48.872481" lon="2.157930">
        <ele>25.253640</ele>
        <time>2025-09-08T01:01:58.972Z</time>
      </trkpt>
      <trkpt lat="48.872618" lon="2.157898">
        <ele>25.305334</ele>
        <time>2025-09-08T01:02:03.191Z</time>
      </trkpt>
      <trkpt lat="48.872722" lon="2.157793">
        <ele>25.351895</ele>
        <time>2025-09-08T01:02:06.988Z</time>
      </trkpt>
      <trkpt lat="48.872793" lon="2.157654">
        <ele>25.395067</ele>
        <time>2025-09-08T01:02:10.535Z</time>
      </trkpt>
      <trkpt lat="48.872865" lon="2.157428">
        <ele>25.443868</ele>
        <time>2025-09-08T01:02:15.559Z</time>
      </trkpt>
      <trkpt lat="48.872922" lon="2.157060">
        <ele>25.490521</ele>
        <time>2025-09-08T01:02:22.815Z</time>
      </trkpt>
      <trkpt lat="48.872911" lon="2.156689">
        <ele>25.536348</ele>
        <time>2025-09-08T01:02:29.649Z</time>
      </trkpt>
      <trkpt lat="48.872862" lon="2.156414">
        <ele>25.571506</ele>
        <time>2025-09-08T01:02:34.765Z</time>
      </trkpt>
      <trkpt lat="48.872856" lon="2.156193">
        <ele>25.598801</ele>
        <time>2025-09-08T01:02:38.583Z</time>
      </trkpt>
      <trkpt lat="48.872889" lon="2.156003">
        <ele>25.623050</ele>
        <time>2025-09-08T01:02:41.849Z</time>
      </trkpt>
      <trkpt lat="48.872827" lon="2.155957">
        <ele>25.635993</ele>
        <time>2025-09-08T01:02:43.592Z</time>
      </trkpt>
      <trkpt lat="48.872794" lon="2.155864">
        <ele>25.649033</ele>
        <time>2025-09-08T01:02:45.252Z</time>
      </trkpt>
      <trkpt lat="48.872805" lon="2.155760">
        <ele>25.662031</ele>
        <time>2025-09-08T01:02:46.915Z</time>
      </trkpt>
      <trkpt lat="48.872886" lon="2.155668">
        <ele>25.681000</ele>
        <time>2025-09-08T01:02:49.288Z</time>
      </trkpt>
      <trkpt lat="48.872771" lon="2.155504">
        <ele>25.710582</ele>
        <time>2025-09-08T01:02:52.970Z</time>
      </trkpt>
      <trkpt lat="48.872547" lon="2.155379">
        <ele>25.755348</ele>
        <time>2025-09-08T01:02:58.604Z</time>
      </trkpt>
      <trkpt lat="48.872384" lon="2.155283">
        <ele>25.710398</ele>
        <time>2025-09-08T01:03:03.479Z</time>
      </trkpt>
      <trkpt lat="48.871882" lon="2.154692">
        <ele>25.361404</ele>
        <time>2025-09-08T01:03:20.929Z</time>
      </trkpt>
      <trkpt lat="48.871882" lon="2.154692">
        <ele>25.361404</ele>
        <time>2025-09-08T01:03:20.939Z</time>
      </trkpt>
      <trkpt lat="48.871781" lon="2.154491">
        <ele>25.269954</ele>
        <time>2025-09-08T01:03:25.611Z</time>
      </trkpt>
      <trkpt lat="48.871744" lon="2.154393">
        <ele>25.229100</ele>
        <time>2025-09-08T01:03:27.722Z</time>
      </trkpt>
      <trkpt lat="48.871746" lon="2.154233">
        <ele>25.171242</ele>
        <time>2025-09-08T01:03:30.643Z</time>
      </trkpt>
      <trkpt lat="48.871827" lon="2.154047">
        <ele>25.090591</ele>
        <time>2025-09-08T01:03:34.722Z</time>
      </trkpt>
      <trkpt lat="48.871925" lon="2.153909">
        <ele>25.017167</ele>
        <time>2025-09-08T01:03:38.394Z</time>
      </trkpt>
      <trkpt lat="48.872073" lon="2.153763">
        <ele>24.920190</ele>
        <time>2025-09-08T01:03:43.261Z</time>
      </trkpt>
      <trkpt lat="48.872309" lon="2.153537">
        <ele>24.771270</ele>
        <time>2025-09-08T01:03:51.013Z</time>
      </trkpt>
      <trkpt lat="48.872500" lon="2.153262">
        <ele>24.676236</ele>
        <time>2025-09-08T01:03:58.358Z</time>
      </trkpt>
      <trkpt lat="48.872697" lon="2.153175">
        <ele>24.602123</ele>
        <time>2025-09-08T01:04:03.969Z</time>
      </trkpt>
      <trkpt lat="48.872831" lon="2.153289">
        <ele>24.546649</ele>
        <time>2025-09-08T01:04:07.133Z</time>
      </trkpt>
      <trkpt lat="48.874316" lon="2.154337">
        <ele>24.126619</ele>
        <time>2025-09-08T01:04:42.597Z</time>
      </trkpt>
      <trkpt lat="48.875002" lon="2.154814">
        <ele>24.121515</ele>
        <time>2025-09-08T01:04:59.189Z</time>
      </trkpt>
      <trkpt lat="48.876346" lon="2.155861">
        <ele>24.618292</ele>
        <time>2025-09-08T01:05:34.572Z</time>
      </trkpt>
      <trkpt lat="48.876842" lon="2.156208">
        <ele>24.906155</ele>
        <time>2025-09-08T01:05:49.577Z</time>
      </trkpt>
      <trkpt lat="48.876880" lon="2.156235">
        <ele>24.928269</ele>
        <time>2025-09-08T01:05:50.691Z</time>
      </trkpt>
      <trkpt lat="48.877690" lon="2.156801">
        <ele>25.154062</ele>
        <time>2025-09-08T01:06:13.671Z</time>
      </trkpt>
      <trkpt lat="48.878547" lon="2.157398">
        <ele>25.285749</ele>
        <time>2025-09-08T01:06:34.080Z</time>
      </trkpt>
      <trkpt lat="48.879396" lon="2.157903">
        <ele>25.317499</ele>
        <time>2025-09-08T01:06:53.435Z</time>
      </trkpt>
      <trkpt lat="48.879908" lon="2.158316">
        <ele>25.317668</ele>
        <time>2025-09-08T01:07:06.877Z</time>
      </trkpt>
      <trkpt lat="48.880263" lon="2.158822">
        <ele>25.317811</ele>
        <time>2025-09-08T01:07:18.455Z</time>
      </trkpt>
      <trkpt lat="48.880472" lon="2.159277">
        <ele>25.349895</ele>
        <time>2025-09-08T01:07:27.133Z</time>
      </trkpt>
      <trkpt lat="48.881012" lon="2.160901">
        <ele>25.470471</ele>
        <time>2025-09-08T01:07:54.463Z</time>
      </trkpt>
      <trkpt lat="48.880992" lon="2.161041">
        <ele>25.479964</ele>
        <time>2025-09-08T01:07:57.938Z</time>
      </trkpt>
      <trkpt lat="48.881009" lon="2.161095">
        <ele>25.483931</ele>
        <time>2025-09-08T01:07:58.791Z</time>
      </trkpt>
      <trkpt lat="48.881304" lon="2.162021">
        <ele>25.384554</ele>
        <time>2025-09-08T01:08:13.428Z</time>
      </trkpt>
      <trkpt lat="48.881348" lon="2.162175">
        <ele>25.360550</ele>
        <time>2025-09-08T01:08:15.794Z</time>
      </trkpt>
      <trkpt lat="48.881444" lon="2.162325">
        <ele>25.330627</ele>
        <time>2025-09-08T01:08:18.798Z</time>
      </trkpt>
      <trkpt lat="48.881511" lon="2.162432">
        <ele>25.309504</ele>
        <time>2025-09-08T01:08:20.923Z</time>
      </trkpt>
      <trkpt lat="48.882037" lon="2.163231">
        <ele>25.147879</ele>
        <time>2025-09-08T01:08:36.871Z</time>
      </trkpt>
      <trkpt lat="48.882289" lon="2.163537">
        <ele>25.082279</ele>
        <time>2025-09-08T01:08:43.862Z</time>
      </trkpt>
      <trkpt lat="48.882309" lon="2.163556">
        <ele>25.077916</ele>
        <time>2025-09-08T01:08:44.377Z</time>
      </trkpt>
      <trkpt lat="48.882366" lon="2.163612">
        <ele>25.065360</ele>
        <time>2025-09-08T01:08:45.869Z</time>
      </trkpt>
      <trkpt lat="48.882574" lon="2.163815">
        <ele>25.019632</ele>
        <time>2025-09-08T01:08:51.292Z</time>
      </trkpt>
      <trkpt lat="48.882802" lon="2.163975">
        <ele>24.973173</ele>
        <time>2025-09-08T01:08:56.805Z</time>
      </trkpt>
      <trkpt lat="48.883045" lon="2.164133">
        <ele>24.924276</ele>
        <time>2025-09-08T01:09:02.639Z</time>
      </trkpt>
      <trkpt lat="48.883429" lon="2.164294">
        <ele>24.850578</ele>
        <time>2025-09-08T01:09:11.289Z</time>
      </trkpt>
      <trkpt lat="48.884075" lon="2.164446">
        <ele>24.725832</ele>
        <time>2025-09-08T01:09:25.141Z</time>
      </trkpt>
      <trkpt lat="48.884224" lon="2.164477">
        <ele>24.695689</ele>
        <time>2025-09-08T01:09:28.351Z</time>
      </trkpt>
      <trkpt lat="48.884526" lon="2.164438">
        <ele>24.634939</ele>
        <time>2025-09-08T01:09:34.906Z</time>
      </trkpt>
      <trkpt lat="48.884879" lon="2.164338">
        <ele>24.562967</ele>
        <time>2025-09-08T01:09:42.966Z</time>
      </trkpt>
      <trkpt lat="48.885109" lon="2.164235">
        <ele>24.514908</ele>
        <time>2025-09-08T01:09:48.739Z</time>
      </trkpt>
      <trkpt lat="48.885445" lon="2.164085">
        <ele>24.444719</ele>
        <time>2025-09-08T01:09:56.203Z</time>
      </trkpt>
      <trkpt lat="48.885505" lon="2.164059">
        <ele>24.432214</ele>
        <time>2025-09-08T01:09:57.548Z</time>
      </trkpt>
      <trkpt lat="48.885554" lon="2.164039">
        <ele>24.422045</ele>
        <time>2025-09-08T01:09:58.694Z</time>
      </trkpt>
      <trkpt lat="48.885626" lon="2.163925">
        <ele>24.428760</ele>
        <time>2025-09-08T01:10:00.841Z</time>
      </trkpt>
      <trkpt lat="48.885805" lon="2.163874">
        <ele>24.466627</ele>
        <time>2025-09-08T01:10:04.685Z</time>
      </trkpt>
      <trkpt lat="48.885997" lon="2.163985">
        <ele>24.509337</ele>
        <time>2025-09-08T01:10:08.980Z</time>
      </trkpt>
      <trkpt lat="48.886457" lon="2.163890">
        <ele>24.605862</ele>
        <time>2025-09-08T01:10:18.644Z</time>
      </trkpt>
      <trkpt lat="48.887083" lon="2.163822">
        <ele>24.736357</ele>
        <time>2025-09-08T01:10:33.260Z</time>
      </trkpt>
      <trkpt lat="48.887382" lon="2.163805">
        <ele>24.889301</ele>
        <time>2025-09-08T01:10:41.996Z</time>
      </trkpt>
      <trkpt lat="48.887820" lon="2.163872">
        <ele>25.824118</ele>
        <time>2025-09-08T01:10:56.744Z</time>
      </trkpt>
      <trkpt lat="48.887847" lon="2.163963">
        <ele>25.963520</ele>
        <time>2025-09-08T01:10:59.082Z</time>
      </trkpt>
      <trkpt lat="48.887947" lon="2.163955">
        <ele>26.176171</ele>
        <time>2025-09-08T01:11:02.556Z</time>
      </trkpt>
      <trkpt lat="48.888220" lon="2.164065">
        <ele>26.775907</ele>
        <time>2025-09-08T01:11:12.732Z</time>
      </trkpt>
      <trkpt lat="48.888307" lon="2.164162">
        <ele>27.004986</ele>
        <time>2025-09-08T01:11:16.782Z</time>
      </trkpt>
      <trkpt lat="48.888465" lon="2.164208">
        <ele>27.346603</ele>
        <time>2025-09-08T01:11:22.978Z</time>
      </trkpt>
      <trkpt lat="48.889110" lon="2.164735">
        <ele>28.560882</ele>
        <time>2025-09-08T01:11:48.434Z</time>
      </trkpt>
      <trkpt lat="48.889351" lon="2.164981">
        <ele>28.461263</ele>
        <time>2025-09-08T01:11:54.773Z</time>
      </trkpt>
      <trkpt lat="48.889554" lon="2.165100">
        <ele>28.386593</ele>
        <time>2025-09-08T01:11:59.297Z</time>
      </trkpt>
      <trkpt lat="48.889869" lon="2.165243">
        <ele>28.273766</ele>
        <time>2025-09-08T01:12:05.928Z</time>
      </trkpt>
      <trkpt lat="48.890035" lon="2.165414">
        <ele>28.204953</ele>
        <time>2025-09-08T01:12:09.950Z</time>
      </trkpt>
      <trkpt lat="48.890062" lon="2.165451">
        <ele>28.192479</ele>
        <time>2025-09-08T01:12:10.653Z</time>
      </trkpt>
      <trkpt lat="48.890194" lon="2.165595">
        <ele>28.136725</ele>
        <time>2025-09-08T01:12:13.912Z</time>
      </trkpt>
      <trkpt lat="48.890670" lon="2.166275">
        <ele>27.844985</ele>
        <time>2025-09-08T01:12:26.426Z</time>
      </trkpt>
      <trkpt lat="48.890706" lon="2.166415">
        <ele>27.781794</ele>
        <time>2025-09-08T01:12:28.231Z</time>
      </trkpt>
      <trkpt lat="48.890699" lon="2.166534">
        <ele>27.731571</ele>
        <time>2025-09-08T01:12:29.734Z</time>
      </trkpt>
      <trkpt lat="48.890735" lon="2.166577">
        <ele>27.702306</ele>
        <time>2025-09-08T01:12:30.588Z</time>
      </trkpt>
      <trkpt lat="48.890881" lon="2.166753">
        <ele>27.583198</ele>
        <time>2025-09-08T01:12:34.288Z</time>
      </trkpt>
      <trkpt lat="48.891012" lon="2.166879">
        <ele>27.484103</ele>
        <time>2025-09-08T01:12:37.659Z</time>
      </trkpt>
      <trkpt lat="48.891173" lon="2.166869">
        <ele>27.381084</ele>
        <time>2025-09-08T01:12:41.192Z</time>
      </trkpt>
      <trkpt lat="48.891407" lon="2.167134">
        <ele>27.194562</ele>
        <time>2025-09-08T01:12:47.721Z</time>
      </trkpt>
      <trkpt lat="48.891489" lon="2.167031">
        <ele>27.126569</ele>
        <time>2025-09-08T01:12:50.118Z</time>
      </trkpt>
      <trkpt lat="48.891522" lon="2.167028">
        <ele>27.105434</ele>
        <time>2025-09-08T01:12:50.955Z</time>
      </trkpt>
      <trkpt lat="48.891543" lon="2.167032">
        <ele>27.091903</ele>
        <time>2025-09-08T01:12:51.505Z</time>
      </trkpt>
      <trkpt lat="48.891761" lon="2.167131">
        <ele>26.946447</ele>
        <time>2025-09-08T01:12:57.327Z</time>
      </trkpt>
      <trkpt lat="48.891961" lon="2.167340">
        <ele>26.811308</ele>
        <time>2025-09-08T01:13:03.332Z</time>
      </trkpt>
      <trkpt lat="48.892183" lon="2.167449">
        <ele>26.722192</ele>
        <time>2025-09-08T01:13:08.843Z</time>
      </trkpt>
      <trkpt lat="48.892462" lon="2.167548">
        <ele>26.612748</ele>
        <time>2025-09-08T01:13:15.542Z</time>
      </trkpt>
      <trkpt lat="48.892491" lon="2.167558">
        <ele>26.601388</ele>
        <time>2025-09-08T01:13:16.232Z</time>
      </trkpt>
      <trkpt lat="48.892814" lon="2.167673">
        <ele>26.474662</ele>
        <time>2025-09-08T01:13:24.200Z</time>
      </trkpt>
      <trkpt lat="48.893076" lon="2.167765">
        <ele>26.371942</ele>
        <time>2025-09-08T01:13:30.482Z</time>
      </trkpt>
      <trkpt lat="48.893570" lon="2.167973">
        <ele>26.176130</ele>
        <time>2025-09-08T01:13:42.555Z</time>
      </trkpt>
      <trkpt lat="48.894061" lon="2.168249">
        <ele>26.090309</ele>
        <time>2025-09-08T01:13:54.484Z</time>
      </trkpt>
      <trkpt lat="48.894132" lon="2.168290">
        <ele>26.079930</ele>
        <time>2025-09-08T01:13:57.249Z</time>
      </trkpt>
      <trkpt lat="48.894249" lon="2.168360">
        <ele>26.062747</ele>
        <time>2025-09-08T01:14:01.837Z</time>
      </trkpt>
      <trkpt lat="48.894412" lon="2.168519">
        <ele>26.036282</ele>
        <time>2025-09-08T01:14:08.967Z</time>
      </trkpt>
      <trkpt lat="48.894569" lon="2.168718">
        <ele>26.008352</ele>
        <time>2025-09-08T01:14:16.547Z</time>
      </trkpt>
      <trkpt lat="48.894727" lon="2.168918">
        <ele>25.980258</ele>
        <time>2025-09-08T01:14:24.425Z</time>
      </trkpt>
      <trkpt lat="48.895067" lon="2.169263">
        <ele>25.924400</ele>
        <time>2025-09-08T01:14:39.886Z</time>
      </trkpt>
      <trkpt lat="48.895525" lon="2.169843">
        <ele>25.938173</ele>
        <time>2025-09-08T01:15:02.281Z</time>
      </trkpt>
      <trkpt lat="48.896015" lon="2.170424">
        <ele>25.977414</ele>
        <time>2025-09-08T01:15:25.752Z</time>
      </trkpt>
      <trkpt lat="48.896485" lon="2.171066">
        <ele>26.017313</ele>
        <time>2025-09-08T01:15:48.949Z</time>
      </trkpt>
      <trkpt lat="48.896730" lon="2.171449">
        <ele>26.074802</ele>
        <time>2025-09-08T01:16:01.952Z</time>
      </trkpt>
      <trkpt lat="48.897700" lon="2.173119">
        <ele>26.350603</ele>
        <time>2025-09-08T01:16:57.875Z</time>
      </trkpt>
      <trkpt lat="48.899558" lon="2.176164">
        <ele>27.080541</ele>
        <time>2025-09-08T01:18:44.704Z</time>
      </trkpt>
      <trkpt lat="48.899926" lon="2.176941">
        <ele>27.105856</ele>
        <time>2025-09-08T01:19:07.879Z</time>
      </trkpt>
      <trkpt lat="48.900214" lon="2.177659">
        <ele>26.909272</ele>
        <time>2025-09-08T01:19:27.539Z</time>
      </trkpt>
      <trkpt lat="48.900607" lon="2.178668">
        <ele>26.303339</ele>
        <time>2025-09-08T01:19:53.903Z</time>
      </trkpt>
      <trkpt lat="48.900613" lon="2.178768">
        <ele>26.251460</ele>
        <time>2025-09-08T01:19:56.222Z</time>
      </trkpt>
      <trkpt lat="48.900670" lon="2.178948">
        <ele>26.148235</ele>
        <time>2025-09-08T01:20:00.766Z</time>
      </trkpt>
      <trkpt lat="48.900658" lon="2.179095">
        <ele>26.071705</ele>
        <time>2025-09-08T01:20:04.148Z</time>
      </trkpt>
      <trkpt lat="48.900691" lon="2.179120">
        <ele>26.042731</ele>
        <time>2025-09-08T01:20:05.426Z</time>
      </trkpt>
      <trkpt lat="48.900714" lon="2.179122">
        <ele>26.024625</ele>
        <time>2025-09-08T01:20:06.244Z</time>
      </trkpt>
      <trkpt lat="48.900734" lon="2.179124">
        <ele>26.008872</ele>
        <time>2025-09-08T01:20:06.963Z</time>
      </trkpt>
      <trkpt lat="48.900749" lon="2.179272">
        <ele>25.931505</ele>
        <time>2025-09-08T01:20:10.405Z</time>
      </trkpt>
      <trkpt lat="48.900841" lon="2.179480">
        <ele>25.801982</ele>
        <time>2025-09-08T01:20:16.287Z</time>
      </trkpt>
      <trkpt lat="48.900851" lon="2.179627">
        <ele>25.725630</ele>
        <time>2025-09-08T01:20:19.796Z</time>
      </trkpt>
      <trkpt lat="48.900866" lon="2.179626">
        <ele>25.713830</ele>
        <time>2025-09-08T01:20:20.329Z</time>
      </trkpt>
      <trkpt lat="48.900878" lon="2.179627">
        <ele>25.704384</ele>
        <time>2025-09-08T01:20:20.735Z</time>
      </trkpt>
      <trkpt lat="48.900878" lon="2.179653">
        <ele>25.703868</ele>
        <time>2025-09-08T01:20:21.355Z</time>
      </trkpt>
      <trkpt lat="48.900784" lon="2.179706">
        <ele>25.704128</ele>
        <time>2025-09-08T01:20:24.957Z</time>
      </trkpt>
      <trkpt lat="48.900690" lon="2.179818">
        <ele>25.704438</ele>
        <time>2025-09-08T01:20:29.223Z</time>
      </trkpt>
      <trkpt lat="48.900623" lon="2.179963">
        <ele>25.704741</ele>
        <time>2025-09-08T01:20:33.337Z</time>
      </trkpt>
      <trkpt lat="48.900608" lon="2.180042">
        <ele>25.704881</ele>
        <time>2025-09-08T01:20:35.234Z</time>
      </trkpt>
      <trkpt lat="48.900625" lon="2.180245">
        <ele>25.705230</ele>
        <time>2025-09-08T01:20:39.962Z</time>
      </trkpt>
      <trkpt lat="48.900799" lon="2.180816">
        <ele>25.706305</ele>
        <time>2025-09-08T01:20:55.148Z</time>
      </trkpt>
      <trkpt lat="48.900813" lon="2.180864">
        <ele>25.706395</ele>
        <time>2025-09-08T01:20:55.970Z</time>
      </trkpt>
      <trkpt lat="48.900825" lon="2.180903">
        <ele>25.706468</ele>
        <time>2025-09-08T01:20:56.636Z</time>
      </trkpt>
      <trkpt lat="48.900837" lon="2.180942">
        <ele>25.706542</ele>
        <time>2025-09-08T01:20:57.725Z</time>
      </trkpt>
      <trkpt lat="48.900931" lon="2.180909">
        <ele>25.706792</ele>
        <time>2025-09-08T01:21:01.548Z</time>
      </trkpt>
      <trkpt lat="48.901118" lon="2.180932">
        <ele>25.707279</ele>
        <time>2025-09-08T01:21:08.930Z</time>
      </trkpt>
      <trkpt lat="48.901300" lon="2.180825">
        <ele>25.707786</ele>
        <time>2025-09-08T01:21:16.606Z</time>
      </trkpt>
      <trkpt lat="48.901388" lon="2.180757">
        <ele>25.708042</ele>
        <time>2025-09-08T01:21:20.468Z</time>
      </trkpt>
      <trkpt lat="48.901404" lon="2.180807">
        <ele>25.708137</ele>
        <time>2025-09-08T01:21:21.664Z</time>
      </trkpt>
      <trkpt lat="48.901404" lon="2.180807">
        <ele>25.708137</ele>
        <time>2025-09-08T01:21:21.664Z</time>
      </trkpt>
      <trkpt lat="48.902122" lon="2.183000">
        <ele>26.286701</ele>
        <time>2025-09-08T01:22:12.972Z</time>
      </trkpt>
      <trkpt lat="48.902344" lon="2.183872">
        <ele>26.361305</ele>
        <time>2025-09-08T01:22:31.220Z</time>
      </trkpt>
      <trkpt lat="48.902455" lon="2.184374">
        <ele>26.296617</ele>
        <time>2025-09-08T01:22:41.147Z</time>
      </trkpt>
      <trkpt lat="48.902527" lon="2.184958">
        <ele>26.224046</ele>
        <time>2025-09-08T01:22:52.060Z</time>
      </trkpt>
      <trkpt lat="48.902773" lon="2.186226">
        <ele>26.087468</ele>
        <time>2025-09-08T01:23:16.970Z</time>
      </trkpt>
      <trkpt lat="48.902800" lon="2.186361">
        <ele>26.093924</ele>
        <time>2025-09-08T01:23:19.667Z</time>
      </trkpt>
      <trkpt lat="48.903053" lon="2.187647">
        <ele>26.155341</ele>
        <time>2025-09-08T01:23:45.877Z</time>
      </trkpt>
      <trkpt lat="48.903558" lon="2.189572">
        <ele>26.289059</ele>
        <time>2025-09-08T01:24:26.746Z</time>
      </trkpt>
      <trkpt lat="48.903912" lon="2.191069">
        <ele>26.425754</ele>
        <time>2025-09-08T01:24:57.929Z</time>
      </trkpt>
      <trkpt lat="48.904426" lon="2.193217">
        <ele>26.762435</ele>
        <time>2025-09-08T01:25:43.313Z</time>
      </trkpt>
      <trkpt lat="48.904510" lon="2.193462">
        <ele>26.804559</ele>
        <time>2025-09-08T01:25:48.826Z</time>
      </trkpt>
      <trkpt lat="48.904461" lon="2.193582">
        <ele>26.826095</ele>
        <time>2025-09-08T01:25:51.016Z</time>
      </trkpt>
      <trkpt lat="48.904269" lon="2.193886">
        <ele>26.900116</ele>
        <time>2025-09-08T01:25:57.611Z</time>
      </trkpt>
      <trkpt lat="48.904235" lon="2.193874">
        <ele>26.910659</ele>
        <time>2025-09-08T01:25:58.440Z</time>
      </trkpt>
      <trkpt lat="48.904187" lon="2.193840">
        <ele>26.926652</ele>
        <time>2025-09-08T01:25:59.703Z</time>
      </trkpt>
      <trkpt lat="48.904158" lon="2.193796">
        <ele>26.939024</ele>
        <time>2025-09-08T01:26:00.680Z</time>
      </trkpt>
      <trkpt lat="48.904107" lon="2.193800">
        <ele>26.954449</ele>
        <time>2025-09-08T01:26:01.907Z</time>
      </trkpt>
      <trkpt lat="48.904095" lon="2.193820">
        <ele>26.959826</ele>
        <time>2025-09-08T01:26:02.571Z</time>
      </trkpt>
      <trkpt lat="48.903761" lon="2.194362">
        <ele>27.107338</ele>
        <time>2025-09-08T01:26:21.752Z</time>
      </trkpt>
      <trkpt lat="48.903052" lon="2.195529">
        <ele>27.415541</ele>
        <time>2025-09-08T01:27:01.918Z</time>
      </trkpt>
      <trkpt lat="48.901797" lon="2.197598">
        <ele>27.764581</ele>
        <time>2025-09-08T01:28:12.734Z</time>
      </trkpt>
      <trkpt lat="48.901251" lon="2.198501">
        <ele>27.799995</ele>
        <time>2025-09-08T01:28:41.865Z</time>
      </trkpt>
      <trkpt lat="48.900878" lon="2.199118">
        <ele>27.824191</ele>
        <time>2025-09-08T01:29:01.937Z</time>
      </trkpt>
      <trkpt lat="48.900466" lon="2.199788">
        <ele>28.102755</ele>
        <time>2025-09-08T01:29:17.767Z</time>
      </trkpt>
      <trkpt lat="48.900334" lon="2.199997">
        <ele>28.279672</ele>
        <time>2025-09-08T01:29:23.142Z</time>
      </trkpt>
      <trkpt lat="48.900222" lon="2.200047">
        <ele>28.388058</ele>
        <time>2025-09-08T01:29:26.445Z</time>
      </trkpt>
      <trkpt lat="48.900177" lon="2.200080">
        <ele>28.434446</ele>
        <time>2025-09-08T01:29:27.875Z</time>
      </trkpt>
      <trkpt lat="48.900133" lon="2.200158">
        <ele>28.497186</ele>
        <time>2025-09-08T01:29:29.792Z</time>
      </trkpt>
      <trkpt lat="48.900120" lon="2.200181">
        <ele>28.515701</ele>
        <time>2025-09-08T01:29:30.348Z</time>
      </trkpt>
      <trkpt lat="48.900026" lon="2.200343">
        <ele>28.647601</ele>
        <time>2025-09-08T01:29:34.465Z</time>
      </trkpt>
      <trkpt lat="48.899748" lon="2.200781">
        <ele>29.019248</ele>
        <time>2025-09-08T01:29:51.902Z</time>
      </trkpt>
      <trkpt lat="48.899706" lon="2.200848">
        <ele>29.075761</ele>
        <time>2025-09-08T01:29:53.651Z</time>
      </trkpt>
      <trkpt lat="48.899620" lon="2.200967">
        <ele>29.183714</ele>
        <time>2025-09-08T01:29:57.000Z</time>
      </trkpt>
      <trkpt lat="48.899566" lon="2.201030">
        <ele>29.246906</ele>
        <time>2025-09-08T01:29:58.971Z</time>
      </trkpt>
      <trkpt lat="48.899619" lon="2.201107">
        <ele>29.314959</ele>
        <time>2025-09-08T01:30:01.031Z</time>
      </trkpt>
      <trkpt lat="48.899694" lon="2.201234">
        <ele>29.419171</ele>
        <time>2025-09-08T01:30:04.123Z</time>
      </trkpt>
      <trkpt lat="48.900085" lon="2.201902">
        <ele>29.569801</ele>
        <time>2025-09-08T01:30:27.348Z</time>
      </trkpt>
      <trkpt lat="48.900161" lon="2.202033">
        <ele>29.584152</ele>
        <time>2025-09-08T01:30:31.533Z</time>
      </trkpt>
      <trkpt lat="48.901081" lon="2.203459">
        <ele>29.767534</ele>
        <time>2025-09-08T01:32:02.805Z</time>
      </trkpt>
      <trkpt lat="48.901081" lon="2.203459">
        <ele>29.767534</ele>
        <time>2025-09-08T01:32:02.831Z</time>
      </trkpt>
      <trkpt lat="48.901978" lon="2.204798">
        <ele>30.123636</ele>
        <time>2025-09-08T01:33:30.158Z</time>
      </trkpt>
      <trkpt lat="48.902061" lon="2.204879">
        <ele>30.151578</ele>
        <time>2025-09-08T01:33:37.017Z</time>
      </trkpt>
      <trkpt lat="48.902152" lon="2.205010">
        <ele>30.187078</ele>
        <time>2025-09-08T01:33:39.862Z</time>
      </trkpt>
      <trkpt lat="48.902862" lon="2.206085">
        <ele>31.012966</ele>
        <time>2025-09-08T01:34:04.768Z</time>
      </trkpt>
      <trkpt lat="48.902865" lon="2.206106">
        <ele>31.026477</ele>
        <time>2025-09-08T01:34:05.107Z</time>
      </trkpt>
      <trkpt lat="48.902893" lon="2.206298">
        <ele>31.150123</ele>
        <time>2025-09-08T01:34:08.603Z</time>
      </trkpt>
      <trkpt lat="48.902913" lon="2.206331">
        <ele>31.178343</ele>
        <time>2025-09-08T01:34:09.350Z</time>
      </trkpt>
      <trkpt lat="48.902257" lon="2.207328">
        <ele>32.031940</ele>
        <time>2025-09-08T01:34:36.627Z</time>
      </trkpt>
      <trkpt lat="48.902067" lon="2.207704">
        <ele>32.232988</ele>
        <time>2025-09-08T01:34:46.100Z</time>
      </trkpt>
      <trkpt lat="48.901842" lon="2.208360">
        <ele>32.546660</ele>
        <time>2025-09-08T01:34:59.561Z</time>
      </trkpt>
      <trkpt lat="48.901520" lon="2.209440">
        <ele>33.049390</ele>
        <time>2025-09-08T01:35:16.866Z</time>
      </trkpt>
      <trkpt lat="48.901512" lon="2.209465">
        <ele>33.061177</ele>
        <time>2025-09-08T01:35:17.258Z</time>
      </trkpt>
      <trkpt lat="48.901401" lon="2.209814">
        <ele>33.181033</ele>
        <time>2025-09-08T01:35:22.770Z</time>
      </trkpt>
      <trkpt lat="48.901356" lon="2.209955">
        <ele>33.218650</ele>
        <time>2025-09-08T01:35:24.999Z</time>
      </trkpt>
      <trkpt lat="48.901292" lon="2.210190">
        <ele>33.279697</ele>
        <time>2025-09-08T01:35:28.695Z</time>
      </trkpt>
      <trkpt lat="48.901252" lon="2.210351">
        <ele>33.321004</ele>
        <time>2025-09-08T01:35:31.245Z</time>
      </trkpt>
      <trkpt lat="48.901234" lon="2.210422">
        <ele>33.339267</ele>
        <time>2025-09-08T01:35:32.413Z</time>
      </trkpt>
      <trkpt lat="48.901180" lon="2.210738">
        <ele>33.417626</ele>
        <time>2025-09-08T01:35:37.505Z</time>
      </trkpt>
      <trkpt lat="48.901194" lon="2.211462">
        <ele>33.591458</ele>
        <time>2025-09-08T01:35:49.074Z</time>
      </trkpt>
      <trkpt lat="48.901258" lon="2.212223">
        <ele>33.775583</ele>
        <time>2025-09-08T01:36:01.740Z</time>
      </trkpt>
      <trkpt lat="48.901247" lon="2.212356">
        <ele>33.907916</ele>
        <time>2025-09-08T01:36:04.099Z</time>
      </trkpt>
      <trkpt lat="48.901205" lon="2.212486">
        <ele>34.066510</ele>
        <time>2025-09-08T01:36:06.738Z</time>
      </trkpt>
      <trkpt lat="48.901008" lon="2.212749">
        <ele>34.503058</ele>
        <time>2025-09-08T01:36:14.263Z</time>
      </trkpt>
      <trkpt lat="48.900962" lon="2.212809">
        <ele>34.603980</ele>
        <time>2025-09-08T01:36:16.066Z</time>
      </trkpt>
      <trkpt lat="48.900899" lon="2.212888">
        <ele>34.739964</ele>
        <time>2025-09-08T01:36:18.520Z</time>
      </trkpt>
      <trkpt lat="48.900718" lon="2.213116">
        <ele>35.131368</ele>
        <time>2025-09-08T01:36:25.856Z</time>
      </trkpt>
      <trkpt lat="48.900692" lon="2.213147">
        <ele>35.186389</ele>
        <time>2025-09-08T01:36:26.842Z</time>
      </trkpt>
      <trkpt lat="48.900663" lon="2.213188">
        <ele>35.252329</ele>
        <time>2025-09-08T01:36:28.088Z</time>
      </trkpt>
      <trkpt lat="48.900382" lon="2.213530">
        <ele>35.851708</ele>
        <time>2025-09-08T01:36:39.029Z</time>
      </trkpt>
      <trkpt lat="48.900103" lon="2.213866">
        <ele>36.444391</ele>
        <time>2025-09-08T01:36:49.766Z</time>
      </trkpt>
      <trkpt lat="48.900037" lon="2.213992">
        <ele>36.620787</ele>
        <time>2025-09-08T01:36:53.100Z</time>
      </trkpt>
      <trkpt lat="48.899948" lon="2.214119">
        <ele>36.860542</ele>
        <time>2025-09-08T01:36:57.182Z</time>
      </trkpt>
      <trkpt lat="48.899799" lon="2.213958">
        <ele>37.393317</ele>
        <time>2025-09-08T01:37:03.940Z</time>
      </trkpt>
      <trkpt lat="48.899404" lon="2.213796">
        <ele>38.585896</ele>
        <time>2025-09-08T01:37:19.585Z</time>
      </trkpt>
      <trkpt lat="48.899180" lon="2.213775">
        <ele>39.240117</ele>
        <time>2025-09-08T01:37:28.865Z</time>
      </trkpt>
      <trkpt lat="48.899088" lon="2.213817">
        <ele>39.520123</ele>
        <time>2025-09-08T01:37:32.454Z</time>
      </trkpt>
      <trkpt lat="48.898914" lon="2.213798">
        <ele>40.028656</ele>
        <time>2025-09-08T01:37:39.259Z</time>
      </trkpt>
      <trkpt lat="48.898826" lon="2.214057">
        <ele>40.587366</ele>
        <time>2025-09-08T01:37:46.463Z</time>
      </trkpt>
      <trkpt lat="48.898857" lon="2.214065">
        <ele>40.679025</ele>
        <time>2025-09-08T01:37:47.539Z</time>
      </trkpt>
      <trkpt lat="48.898908" lon="2.214078">
        <ele>40.829768</ele>
        <time>2025-09-08T01:37:49.199Z</time>
      </trkpt>
      <trkpt lat="48.898763" lon="2.214580">
        <ele>41.880545</ele>
        <time>2025-09-08T01:38:02.943Z</time>
      </trkpt>
      <trkpt lat="48.898755" lon="2.214605">
        <ele>41.933829</ele>
        <time>2025-09-08T01:38:03.644Z</time>
      </trkpt>
      <trkpt lat="48.898747" lon="2.214637">
        <ele>41.999437</ele>
        <time>2025-09-08T01:38:04.438Z</time>
      </trkpt>
      <trkpt lat="48.898660" lon="2.214951">
        <ele>42.511965</ele>
        <time>2025-09-08T01:38:12.312Z</time>
      </trkpt>
      <trkpt lat="48.898585" lon="2.215213">
        <ele>42.938226</ele>
        <time>2025-09-08T01:38:19.014Z</time>
      </trkpt>
      <trkpt lat="48.898564" lon="2.215289">
        <ele>43.061200</ele>
        <time>2025-09-08T01:38:20.852Z</time>
      </trkpt>
      <trkpt lat="48.898494" lon="2.215517">
        <ele>43.436562</ele>
        <time>2025-09-08T01:38:26.209Z</time>
      </trkpt>
      <trkpt lat="48.898474" lon="2.215586">
        <ele>43.549047</ele>
        <time>2025-09-08T01:38:27.706Z</time>
      </trkpt>
      <trkpt lat="48.898414" lon="2.215798">
        <ele>43.893342</ele>
        <time>2025-09-08T01:38:32.884Z</time>
      </trkpt>
      <trkpt lat="48.898344" lon="2.216045">
        <ele>44.294564</ele>
        <time>2025-09-08T01:38:41.314Z</time>
      </trkpt>
      <trkpt lat="48.898330" lon="2.216095">
        <ele>44.375631</ele>
        <time>2025-09-08T01:38:42.470Z</time>
      </trkpt>
      <trkpt lat="48.898285" lon="2.216263">
        <ele>44.646236</ele>
        <time>2025-09-08T01:38:46.149Z</time>
      </trkpt>
      <trkpt lat="48.898180" lon="2.216637">
        <ele>45.252867</ele>
        <time>2025-09-08T01:38:54.424Z</time>
      </trkpt>
      <trkpt lat="48.898170" lon="2.216675">
        <ele>45.313924</ele>
        <time>2025-09-08T01:38:55.278Z</time>
      </trkpt>
      <trkpt lat="48.898157" lon="2.216733">
        <ele>45.405332</ele>
        <time>2025-09-08T01:38:56.553Z</time>
      </trkpt>
      <trkpt lat="48.898136" lon="2.216809">
        <ele>45.528306</ele>
        <time>2025-09-08T01:38:58.269Z</time>
      </trkpt>
      <trkpt lat="48.897923" lon="2.217580">
        <ele>46.877787</ele>
        <time>2025-09-08T01:39:16.145Z</time>
      </trkpt>
      <trkpt lat="48.897796" lon="2.218040">
        <ele>47.734278</ele>
        <time>2025-09-08T01:39:27.892Z</time>
      </trkpt>
      <trkpt lat="48.897774" lon="2.218143">
        <ele>47.920196</ele>
        <time>2025-09-08T01:39:30.618Z</time>
      </trkpt>
      <trkpt lat="48.897803" lon="2.218216">
        <ele>48.066619</ele>
        <time>2025-09-08T01:39:32.738Z</time>
      </trkpt>
      <trkpt lat="48.897789" lon="2.218267">
        <ele>48.161497</ele>
        <time>2025-09-08T01:39:34.111Z</time>
      </trkpt>
      <trkpt lat="48.897776" lon="2.218312">
        <ele>48.245878</ele>
        <time>2025-09-08T01:39:35.384Z</time>
      </trkpt>
      <trkpt lat="48.897745" lon="2.218426">
        <ele>48.457663</ele>
        <time>2025-09-08T01:39:38.526Z</time>
      </trkpt>
      <trkpt lat="48.897731" lon="2.218475">
        <ele>48.549382</ele>
        <time>2025-09-08T01:39:39.862Z</time>
      </trkpt>
      <trkpt lat="48.897530" lon="2.219098">
        <ele>49.740741</ele>
        <time>2025-09-08T01:39:57.271Z</time>
      </trkpt>
      <trkpt lat="48.897509" lon="2.219158">
        <ele>49.857432</ele>
        <time>2025-09-08T01:39:58.939Z</time>
      </trkpt>
      <trkpt lat="48.897491" lon="2.219226">
        <ele>49.983275</ele>
        <time>2025-09-08T01:40:00.672Z</time>
      </trkpt>
      <trkpt lat="48.897483" lon="2.219251">
        <ele>50.031007</ele>
        <time>2025-09-08T01:40:01.321Z</time>
      </trkpt>
      <trkpt lat="48.897474" lon="2.219279">
        <ele>50.084513</ele>
        <time>2025-09-08T01:40:02.046Z</time>
      </trkpt>
      <trkpt lat="48.897464" lon="2.219312">
        <ele>50.146893</ele>
        <time>2025-09-08T01:40:02.888Z</time>
      </trkpt>
      <trkpt lat="48.897456" lon="2.219338">
        <ele>50.196174</ele>
        <time>2025-09-08T01:40:03.596Z</time>
      </trkpt>
      <trkpt lat="48.897450" lon="2.219356">
        <ele>50.230820</ele>
        <time>2025-09-08T01:40:04.093Z</time>
      </trkpt>
      <trkpt lat="48.897388" lon="2.219525">
        <ele>50.563061</ele>
        <time>2025-09-08T01:40:08.402Z</time>
      </trkpt>
      <trkpt lat="48.897346" lon="2.219557">
        <ele>50.685726</ele>
        <time>2025-09-08T01:40:10.043Z</time>
      </trkpt>
      <trkpt lat="48.897214" lon="2.219974">
        <ele>51.167834</ele>
        <time>2025-09-08T01:40:19.833Z</time>
      </trkpt>
      <trkpt lat="48.897149" lon="2.220181">
        <ele>51.381664</ele>
        <time>2025-09-08T01:40:24.839Z</time>
      </trkpt>
      <trkpt lat="48.897088" lon="2.220373">
        <ele>51.580436</ele>
        <time>2025-09-08T01:40:29.247Z</time>
      </trkpt>
      <trkpt lat="48.896963" lon="2.220771">
        <ele>51.991584</ele>
        <time>2025-09-08T01:40:38.006Z</time>
      </trkpt>
      <trkpt lat="48.896820" lon="2.221223">
        <ele>52.459154</ele>
        <time>2025-09-08T01:40:47.381Z</time>
      </trkpt>
      <trkpt lat="48.896685" lon="2.221651">
        <ele>52.901649</ele>
        <time>2025-09-08T01:40:55.820Z</time>
      </trkpt>
      <trkpt lat="48.896555" lon="2.222063">
        <ele>53.327631</ele>
        <time>2025-09-08T01:41:03.314Z</time>
      </trkpt>
      <trkpt lat="48.896431" lon="2.222452">
        <ele>53.452093</ele>
        <time>2025-09-08T01:41:10.421Z</time>
      </trkpt>
      <trkpt lat="48.896332" lon="2.222769">
        <ele>53.541777</ele>
        <time>2025-09-08T01:41:16.202Z</time>
      </trkpt>
      <trkpt lat="48.896162" lon="2.223308">
        <ele>53.694546</ele>
        <time>2025-09-08T01:41:25.595Z</time>
      </trkpt>
      <trkpt lat="48.896158" lon="2.223336">
        <ele>53.701869</ele>
        <time>2025-09-08T01:41:26.043Z</time>
      </trkpt>
      <trkpt lat="48.896161" lon="2.223354">
        <ele>53.706614</ele>
        <time>2025-09-08T01:41:26.350Z</time>
      </trkpt>
      <trkpt lat="48.896149" lon="2.223397">
        <ele>53.718551</ele>
        <time>2025-09-08T01:41:27.090Z</time>
      </trkpt>
      <trkpt lat="48.896145" lon="2.223410">
        <ele>53.722219</ele>
        <time>2025-09-08T01:41:27.326Z</time>
      </trkpt>
      <trkpt lat="48.896124" lon="2.223483">
        <ele>53.742582</ele>
        <time>2025-09-08T01:41:28.574Z</time>
      </trkpt>
      <trkpt lat="48.896101" lon="2.223557">
        <ele>53.763499</ele>
        <time>2025-09-08T01:41:29.856Z</time>
      </trkpt>
      <trkpt lat="48.896087" lon="2.223586">
        <ele>53.772693</ele>
        <time>2025-09-08T01:41:30.437Z</time>
      </trkpt>
      <trkpt lat="48.896078" lon="2.223604">
        <ele>53.778472</ele>
        <time>2025-09-08T01:41:30.816Z</time>
      </trkpt>
      <trkpt lat="48.896067" lon="2.223626">
        <ele>53.785536</ele>
        <time>2025-09-08T01:41:31.254Z</time>
      </trkpt>
      <trkpt lat="48.895991" lon="2.223861">
        <ele>53.852462</ele>
        <time>2025-09-08T01:41:35.373Z</time>
      </trkpt>
      <trkpt lat="48.895790" lon="2.224500">
        <ele>54.033485</ele>
        <time>2025-09-08T01:41:46.366Z</time>
      </trkpt>
      <trkpt lat="48.895665" lon="2.224886">
        <ele>53.952328</ele>
        <time>2025-09-08T01:41:53.188Z</time>
      </trkpt>
      <trkpt lat="48.895545" lon="2.225274">
        <ele>53.846895</ele>
        <time>2025-09-08T01:41:59.376Z</time>
      </trkpt>
      <trkpt lat="48.895473" lon="2.225492">
        <ele>53.786908</ele>
        <time>2025-09-08T01:42:02.593Z</time>
      </trkpt>
      <trkpt lat="48.895406" lon="2.225706">
        <ele>53.728626</ele>
        <time>2025-09-08T01:42:05.663Z</time>
      </trkpt>
      <trkpt lat="48.895244" lon="2.226224">
        <ele>53.587580</ele>
        <time>2025-09-08T01:42:13.081Z</time>
      </trkpt>
      <trkpt lat="48.895126" lon="2.226584">
        <ele>53.488668</ele>
        <time>2025-09-08T01:42:18.802Z</time>
      </trkpt>
      <trkpt lat="48.894993" lon="2.227007">
        <ele>53.373375</ele>
        <time>2025-09-08T01:42:26.123Z</time>
      </trkpt>
      <trkpt lat="48.894850" lon="2.227494">
        <ele>53.438674</ele>
        <time>2025-09-08T01:42:33.609Z</time>
      </trkpt>
      <trkpt lat="48.894848" lon="2.227547">
        <ele>53.445179</ele>
        <time>2025-09-08T01:42:34.301Z</time>
      </trkpt>
      <trkpt lat="48.894838" lon="2.227585">
        <ele>53.450194</ele>
        <time>2025-09-08T01:42:34.867Z</time>
      </trkpt>
      <trkpt lat="48.894818" lon="2.227652">
        <ele>53.459211</ele>
        <time>2025-09-08T01:42:35.859Z</time>
      </trkpt>
      <trkpt lat="48.894799" lon="2.227716">
        <ele>53.467815</ele>
        <time>2025-09-08T01:42:36.751Z</time>
      </trkpt>
      <trkpt lat="48.894786" lon="2.227761">
        <ele>53.473838</ele>
        <time>2025-09-08T01:42:37.361Z</time>
      </trkpt>
      <trkpt lat="48.894556" lon="2.227630">
        <ele>53.519613</ele>
        <time>2025-09-08T01:42:42.357Z</time>
      </trkpt>
      <trkpt lat="48.894526" lon="2.227707">
        <ele>53.530580</ele>
        <time>2025-09-08T01:42:43.501Z</time>
      </trkpt>
      <trkpt lat="48.894531" lon="2.227963">
        <ele>53.561963</ele>
        <time>2025-09-08T01:42:47.082Z</time>
      </trkpt>
      <trkpt lat="48.894686" lon="2.228702">
        <ele>53.657014</ele>
        <time>2025-09-08T01:43:00.296Z</time>
      </trkpt>
      <trkpt lat="48.894716" lon="2.228848">
        <ele>53.675757</ele>
        <time>2025-09-08T01:43:03.331Z</time>
      </trkpt>
      <trkpt lat="48.894687" lon="2.228964">
        <ele>53.690965</ele>
        <time>2025-09-08T01:43:06.006Z</time>
      </trkpt>
      <trkpt lat="48.894542" lon="2.229509">
        <ele>54.234787</ele>
        <time>2025-09-08T01:43:17.075Z</time>
      </trkpt>
      <trkpt lat="48.894438" lon="2.229727">
        <ele>54.553824</ele>
        <time>2025-09-08T01:43:22.246Z</time>
      </trkpt>
      <trkpt lat="48.894368" lon="2.229820">
        <ele>54.721275</ele>
        <time>2025-09-08T01:43:25.142Z</time>
      </trkpt>
      <trkpt lat="48.894314" lon="2.229902">
        <ele>54.858748</ele>
        <time>2025-09-08T01:43:28.112Z</time>
      </trkpt>
      <trkpt lat="48.894264" lon="2.229978">
        <ele>54.986101</ele>
        <time>2025-09-08T01:43:30.901Z</time>
      </trkpt>
      <trkpt lat="48.893937" lon="2.230977">
        <ele>56.307960</ele>
        <time>2025-09-08T01:44:01.071Z</time>
      </trkpt>
      <trkpt lat="48.893813" lon="2.231361">
        <ele>56.814711</ele>
        <time>2025-09-08T01:44:12.503Z</time>
      </trkpt>
      <trkpt lat="48.893464" lon="2.232272">
        <ele>57.935118</ele>
        <time>2025-09-08T01:44:36.095Z</time>
      </trkpt>
      <trkpt lat="48.893108" lon="2.233401">
        <ele>59.247279</ele>
        <time>2025-09-08T01:45:06.547Z</time>
      </trkpt>
      <trkpt lat="48.893023" lon="2.233583">
        <ele>59.481228</ele>
        <time>2025-09-08T01:45:13.149Z</time>
      </trkpt>
      <trkpt lat="48.892962" lon="2.233650">
        <ele>59.601158</ele>
        <time>2025-09-08T01:45:16.460Z</time>
      </trkpt>
      <trkpt lat="48.892908" lon="2.233688">
        <ele>59.695996</ele>
        <time>2025-09-08T01:45:18.882Z</time>
      </trkpt>
      <trkpt lat="48.892762" lon="2.233774">
        <ele>59.589601</ele>
        <time>2025-09-08T01:45:25.328Z</time>
      </trkpt>
      <trkpt lat="48.892665" lon="2.233817">
        <ele>59.308260</ele>
        <time>2025-09-08T01:45:29.414Z</time>
      </trkpt>
      <trkpt lat="48.892650" lon="2.233823">
        <ele>59.265072</ele>
        <time>2025-09-08T01:45:29.991Z</time>
      </trkpt>
      <trkpt lat="48.892542" lon="2.233871">
        <ele>58.951763</ele>
        <time>2025-09-08T01:45:34.377Z</time>
      </trkpt>
      <trkpt lat="48.892328" lon="2.234612">
        <ele>57.470051</ele>
        <time>2025-09-08T01:45:50.036Z</time>
      </trkpt>
      <trkpt lat="48.892005" lon="2.235740">
        <ele>55.217565</ele>
        <time>2025-09-08T01:46:07.322Z</time>
      </trkpt>
      <trkpt lat="48.891792" lon="2.236244">
        <ele>54.577488</ele>
        <time>2025-09-08T01:46:15.258Z</time>
      </trkpt>
      <trkpt lat="48.891702" lon="2.236344">
        <ele>54.473540</ele>
        <time>2025-09-08T01:46:16.949Z</time>
      </trkpt>
      <trkpt lat="48.891586" lon="2.236721">
        <ele>54.218306</ele>
        <time>2025-09-08T01:46:21.236Z</time>
      </trkpt>
      <trkpt lat="48.891804" lon="2.236897">
        <ele>53.988126</ele>
        <time>2025-09-08T01:46:25.381Z</time>
      </trkpt>
      <trkpt lat="48.891752" lon="2.237056">
        <ele>53.879234</ele>
        <time>2025-09-08T01:46:27.562Z</time>
      </trkpt>
      <trkpt lat="48.891367" lon="2.238252">
        <ele>53.448680</ele>
        <time>2025-09-08T01:47:08.393Z</time>
      </trkpt>
      <trkpt lat="48.891071" lon="2.239168">
        <ele>56.406909</ele>
        <time>2025-09-08T01:47:55.252Z</time>
      </trkpt>
      <trkpt lat="48.890985" lon="2.239444">
        <ele>57.292147</ele>
        <time>2025-09-08T01:48:07.119Z</time>
      </trkpt>
      <trkpt lat="48.890939" lon="2.239603">
        <ele>57.795630</ele>
        <time>2025-09-08T01:48:12.717Z</time>
      </trkpt>
      <trkpt lat="48.890713" lon="2.240347">
        <ele>60.171047</ele>
        <time>2025-09-08T01:48:33.950Z</time>
      </trkpt>
      <trkpt lat="48.890678" lon="2.240516">
        <ele>60.684601</ele>
        <time>2025-09-08T01:48:37.678Z</time>
      </trkpt>
      <trkpt lat="48.890633" lon="2.240668">
        <ele>61.018197</ele>
        <time>2025-09-08T01:48:41.011Z</time>
      </trkpt>
      <trkpt lat="48.890500" lon="2.241080">
        <ele>60.520615</ele>
        <time>2025-09-08T01:48:48.673Z</time>
      </trkpt>
      <trkpt lat="48.891120" lon="2.241559">
        <ele>59.374010</ele>
        <time>2025-09-08T01:49:05.663Z</time>
      </trkpt>
      <trkpt lat="48.891008" lon="2.241956">
        <ele>58.905678</ele>
        <time>2025-09-08T01:49:10.586Z</time>
      </trkpt>
      <trkpt lat="48.890787" lon="2.242734">
        <ele>57.889864</ele>
        <time>2025-09-08T01:49:20.568Z</time>
      </trkpt>
      <trkpt lat="48.890839" lon="2.242779">
        <ele>57.701211</ele>
        <time>2025-09-08T01:49:21.705Z</time>
      </trkpt>
      <trkpt lat="48.891422" lon="2.243214">
        <ele>55.653561</ele>
        <time>2025-09-08T01:49:32.615Z</time>
      </trkpt>
      <trkpt lat="48.891499" lon="2.243331">
        <ele>55.310354</ele>
        <time>2025-09-08T01:49:34.294Z</time>
      </trkpt>
      <trkpt lat="48.891520" lon="2.243363">
        <ele>55.216619</ele>
        <time>2025-09-08T01:49:34.783Z</time>
      </trkpt>
      <trkpt lat="48.891590" lon="2.243355">
        <ele>54.995269</ele>
        <time>2025-09-08T01:49:35.922Z</time>
      </trkpt>
      <trkpt lat="48.891682" lon="2.243591">
        <ele>54.426452</ele>
        <time>2025-09-08T01:49:39.040Z</time>
      </trkpt>
      <trkpt lat="48.891817" lon="2.243912">
        <ele>53.636450</ele>
        <time>2025-09-08T01:49:43.723Z</time>
      </trkpt>
      <trkpt lat="48.891903" lon="2.244119">
        <ele>53.128797</ele>
        <time>2025-09-08T01:49:46.716Z</time>
      </trkpt>
      <trkpt lat="48.891937" lon="2.244198">
        <ele>52.933044</ele>
        <time>2025-09-08T01:49:47.800Z</time>
      </trkpt>
      <trkpt lat="48.891962" lon="2.244260">
        <ele>52.782258</ele>
        <time>2025-09-08T01:49:48.752Z</time>
      </trkpt>
      <trkpt lat="48.892099" lon="2.244585">
        <ele>52.259337</ele>
        <time>2025-09-08T01:49:53.553Z</time>
      </trkpt>
      <trkpt lat="48.892137" lon="2.244674">
        <ele>52.178129</ele>
        <time>2025-09-08T01:49:55.003Z</time>
      </trkpt>
      <trkpt lat="48.892145" lon="2.244695">
        <ele>52.159557</ele>
        <time>2025-09-08T01:49:55.349Z</time>
      </trkpt>
      <trkpt lat="48.892163" lon="2.244737">
        <ele>52.121191</ele>
        <time>2025-09-08T01:49:55.931Z</time>
      </trkpt>
      <trkpt lat="48.892418" lon="2.245357">
        <ele>51.561559</ele>
        <time>2025-09-08T01:50:04.453Z</time>
      </trkpt>
      <trkpt lat="48.892490" lon="2.245531">
        <ele>51.404232</ele>
        <time>2025-09-08T01:50:06.862Z</time>
      </trkpt>
      <trkpt lat="48.892508" lon="2.245572">
        <ele>51.366506</ele>
        <time>2025-09-08T01:50:07.439Z</time>
      </trkpt>
      <trkpt lat="48.892575" lon="2.245746">
        <ele>51.212200</ele>
        <time>2025-09-08T01:50:10.268Z</time>
      </trkpt>
      <trkpt lat="48.892741" lon="2.246143">
        <ele>50.852170</ele>
        <time>2025-09-08T01:50:18.284Z</time>
      </trkpt>
      <trkpt lat="48.892776" lon="2.246227">
        <ele>50.776069</ele>
        <time>2025-09-08T01:50:20.037Z</time>
      </trkpt>
      <trkpt lat="48.893001" lon="2.246765">
        <ele>50.311275</ele>
        <time>2025-09-08T01:50:30.550Z</time>
      </trkpt>
      <trkpt lat="48.893037" lon="2.246853">
        <ele>50.277732</ele>
        <time>2025-09-08T01:50:32.130Z</time>
      </trkpt>
      <trkpt lat="48.893298" lon="2.247477">
        <ele>50.038383</ele>
        <time>2025-09-08T01:50:43.027Z</time>
      </trkpt>
      <trkpt lat="48.893704" lon="2.248449">
        <ele>49.665700</ele>
        <time>2025-09-08T01:50:58.560Z</time>
      </trkpt>
      <trkpt lat="48.893991" lon="2.249112">
        <ele>49.387088</ele>
        <time>2025-09-08T01:51:11.146Z</time>
      </trkpt>
      <trkpt lat="48.894168" lon="2.249322">
        <ele>49.206137</ele>
        <time>2025-09-08T01:51:15.886Z</time>
      </trkpt>
      <trkpt lat="48.894257" lon="2.249314">
        <ele>49.134269</ele>
        <time>2025-09-08T01:51:17.624Z</time>
      </trkpt>
      <trkpt lat="48.894343" lon="2.249267">
        <ele>49.060606</ele>
        <time>2025-09-08T01:51:19.411Z</time>
      </trkpt>
      <trkpt lat="48.894468" lon="2.249263">
        <ele>48.959823</ele>
        <time>2025-09-08T01:51:21.908Z</time>
      </trkpt>
      <trkpt lat="48.894664" lon="2.249382">
        <ele>48.789707</ele>
        <time>2025-09-08T01:51:26.030Z</time>
      </trkpt>
      <trkpt lat="48.894726" lon="2.249452">
        <ele>48.727465</ele>
        <time>2025-09-08T01:51:27.567Z</time>
      </trkpt>
      <trkpt lat="48.894996" lon="2.249946">
        <ele>48.387012</ele>
        <time>2025-09-08T01:51:36.305Z</time>
      </trkpt>
      <trkpt lat="48.895057" lon="2.250012">
        <ele>48.326669</ele>
        <time>2025-09-08T01:51:37.950Z</time>
      </trkpt>
      <trkpt lat="48.895106" lon="2.250092">
        <ele>48.268724</ele>
        <time>2025-09-08T01:51:39.538Z</time>
      </trkpt>
      <trkpt lat="48.895190" lon="2.250169">
        <ele>48.189667</ele>
        <time>2025-09-08T01:51:41.685Z</time>
      </trkpt>
      <trkpt lat="48.895428" lon="2.250406">
        <ele>47.999885</ele>
        <time>2025-09-08T01:51:47.500Z</time>
      </trkpt>
      <trkpt lat="48.895485" lon="2.250487">
        <ele>48.013176</ele>
        <time>2025-09-08T01:51:49.055Z</time>
      </trkpt>
      <trkpt lat="48.895876" lon="2.251088">
        <ele>48.107885</ele>
        <time>2025-09-08T01:52:00.972Z</time>
      </trkpt>
      <trkpt lat="48.896075" lon="2.251485">
        <ele>48.163805</ele>
        <time>2025-09-08T01:52:09.735Z</time>
      </trkpt>
      <trkpt lat="48.896266" lon="2.251891">
        <ele>48.219725</ele>
        <time>2025-09-08T01:52:18.507Z</time>
      </trkpt>
      <trkpt lat="48.896348" lon="2.252016">
        <ele>48.239505</ele>
        <time>2025-09-08T01:52:21.483Z</time>
      </trkpt>
      <trkpt lat="48.896337" lon="2.252226">
        <ele>48.263102</ele>
        <time>2025-09-08T01:52:25.014Z</time>
      </trkpt>
      <trkpt lat="48.896361" lon="2.252339">
        <ele>48.276403</ele>
        <time>2025-09-08T01:52:27.006Z</time>
      </trkpt>
      <trkpt lat="48.896417" lon="2.252511">
        <ele>48.297902</ele>
        <time>2025-09-08T01:52:30.208Z</time>
      </trkpt>
      <trkpt lat="48.896461" lon="2.252633">
        <ele>48.252368</ele>
        <time>2025-09-08T01:52:32.519Z</time>
      </trkpt>
      <trkpt lat="48.896508" lon="2.252940">
        <ele>48.134077</ele>
        <time>2025-09-08T01:52:37.540Z</time>
      </trkpt>
      <trkpt lat="48.896674" lon="2.254743">
        <ele>47.450862</ele>
        <time>2025-09-08T01:53:02.776Z</time>
      </trkpt>
      <trkpt lat="48.896678" lon="2.254815">
        <ele>47.423746</ele>
        <time>2025-09-08T01:53:03.698Z</time>
      </trkpt>
      <trkpt lat="48.896755" lon="2.254882">
        <ele>47.373109</ele>
        <time>2025-09-08T01:53:05.333Z</time>
      </trkpt>
      <trkpt lat="48.896808" lon="2.255221">
        <ele>47.298732</ele>
        <time>2025-09-08T01:53:09.763Z</time>
      </trkpt>
      <trkpt lat="48.896825" lon="2.255399">
        <ele>47.356486</ele>
        <time>2025-09-08T01:53:12.112Z</time>
      </trkpt>
      <trkpt lat="48.896807" lon="2.255581">
        <ele>47.415582</ele>
        <time>2025-09-08T01:53:14.587Z</time>
      </trkpt>
      <trkpt lat="48.896827" lon="2.255836">
        <ele>47.498040</ele>
        <time>2025-09-08T01:53:18.256Z</time>
      </trkpt>
      <trkpt lat="48.896847" lon="2.256236">
        <ele>47.626846</ele>
        <time>2025-09-08T01:53:24.580Z</time>
      </trkpt>
      <trkpt lat="48.896854" lon="2.256372">
        <ele>47.670648</ele>
        <time>2025-09-08T01:53:27.055Z</time>
      </trkpt>
      <trkpt lat="48.896853" lon="2.256495">
        <ele>47.710145</ele>
        <time>2025-09-08T01:53:29.197Z</time>
      </trkpt>
      <trkpt lat="48.896853" lon="2.256556">
        <ele>47.729731</ele>
        <time>2025-09-08T01:53:30.378Z</time>
      </trkpt>
      <trkpt lat="48.897033" lon="2.256543">
        <ele>47.817744</ele>
        <time>2025-09-08T01:53:35.699Z</time>
      </trkpt>
      <trkpt lat="48.897035" lon="2.256490">
        <ele>47.834790</ele>
        <time>2025-09-08T01:53:36.689Z</time>
      </trkpt>
      <trkpt lat="48.897189" lon="2.256469">
        <ele>47.910306</ele>
        <time>2025-09-08T01:53:41.403Z</time>
      </trkpt>
      <trkpt lat="48.897573" lon="2.256523">
        <ele>48.098655</ele>
        <time>2025-09-08T01:53:52.314Z</time>
      </trkpt>
      <trkpt lat="48.897722" lon="2.256544">
        <ele>48.142061</ele>
        <time>2025-09-08T01:53:56.710Z</time>
      </trkpt>
      <trkpt lat="48.897721" lon="2.256670">
        <ele>48.124040</ele>
        <time>2025-09-08T01:53:59.304Z</time>
      </trkpt>
      <trkpt lat="48.897966" lon="2.257436">
        <ele>48.002216</ele>
        <time>2025-09-08T01:54:14.198Z</time>
      </trkpt>
      <trkpt lat="48.897975" lon="2.257467">
        <ele>47.997370</ele>
        <time>2025-09-08T01:54:14.707Z</time>
      </trkpt>
      <trkpt lat="48.898084" lon="2.257799">
        <ele>47.944299</ele>
        <time>2025-09-08T01:54:19.877Z</time>
      </trkpt>
      <trkpt lat="48.898093" lon="2.257826">
        <ele>47.939969</ele>
        <time>2025-09-08T01:54:20.296Z</time>
      </trkpt>
      <trkpt lat="48.898200" lon="2.258156">
        <ele>47.887348</ele>
        <time>2025-09-08T01:54:25.160Z</time>
      </trkpt>
      <trkpt lat="48.898208" lon="2.258181">
        <ele>47.883371</ele>
        <time>2025-09-08T01:54:25.524Z</time>
      </trkpt>
      <trkpt lat="48.898572" lon="2.259264">
        <ele>47.520554</ele>
        <time>2025-09-08T01:54:40.783Z</time>
      </trkpt>
      <trkpt lat="48.898598" lon="2.259338">
        <ele>47.463684</ele>
        <time>2025-09-08T01:54:41.866Z</time>
      </trkpt>
      <trkpt lat="48.898750" lon="2.259780">
        <ele>47.125587</ele>
        <time>2025-09-08T01:54:48.137Z</time>
      </trkpt>
      <trkpt lat="48.898957" lon="2.260373">
        <ele>46.670512</ele>
        <time>2025-09-08T01:54:56.761Z</time>
      </trkpt>
      <trkpt lat="48.899071" lon="2.260656">
        <ele>46.445552</ele>
        <time>2025-09-08T01:55:01.171Z</time>
      </trkpt>
      <trkpt lat="48.899140" lon="2.260833">
        <ele>46.306078</ele>
        <time>2025-09-08T01:55:04.016Z</time>
      </trkpt>
      <trkpt lat="48.899496" lon="2.261689">
        <ele>45.453397</ele>
        <time>2025-09-08T01:55:17.864Z</time>
      </trkpt>
      <trkpt lat="48.898752" lon="2.262416">
        <ele>44.011942</ele>
        <time>2025-09-08T01:55:35.604Z</time>
      </trkpt>
      <trkpt lat="48.898295" lon="2.262889">
        <ele>43.110898</ele>
        <time>2025-09-08T01:55:45.742Z</time>
      </trkpt>
      <trkpt lat="48.898200" lon="2.262985">
        <ele>42.810650</ele>
        <time>2025-09-08T01:55:47.729Z</time>
      </trkpt>
      <trkpt lat="48.897993" lon="2.263189">
        <ele>41.461617</ele>
        <time>2025-09-08T01:55:51.792Z</time>
      </trkpt>
      <trkpt lat="48.897937" lon="2.263244">
        <ele>41.097029</ele>
        <time>2025-09-08T01:55:52.859Z</time>
      </trkpt>
      <trkpt lat="48.897830" lon="2.263351">
        <ele>40.396654</ele>
        <time>2025-09-08T01:55:54.858Z</time>
      </trkpt>
      <trkpt lat="48.897742" lon="2.263434">
        <ele>39.830321</ele>
        <time>2025-09-08T01:55:56.407Z</time>
      </trkpt>
      <trkpt lat="48.897545" lon="2.263637">
        <ele>38.528868</ele>
        <time>2025-09-08T01:55:59.933Z</time>
      </trkpt>
      <trkpt lat="48.897458" lon="2.263666">
        <ele>38.041729</ele>
        <time>2025-09-08T01:56:01.229Z</time>
      </trkpt>
      <trkpt lat="48.897215" lon="2.263920">
        <ele>36.429087</ele>
        <time>2025-09-08T01:56:05.586Z</time>
      </trkpt>
      <trkpt lat="48.897096" lon="2.264073">
        <ele>35.576858</ele>
        <time>2025-09-08T01:56:07.913Z</time>
      </trkpt>
      <trkpt lat="48.896933" lon="2.264188">
        <ele>34.594100</ele>
        <time>2025-09-08T01:56:10.634Z</time>
      </trkpt>
      <trkpt lat="48.896764" lon="2.264319">
        <ele>33.556652</ele>
        <time>2025-09-08T01:56:13.586Z</time>
      </trkpt>
      <trkpt lat="48.896693" lon="2.264370">
        <ele>33.134558</ele>
        <time>2025-09-08T01:56:14.854Z</time>
      </trkpt>
      <trkpt lat="48.896650" lon="2.264407">
        <ele>33.094658</ele>
        <time>2025-09-08T01:56:15.643Z</time>
      </trkpt>
      <trkpt lat="48.896519" lon="2.264550">
        <ele>32.964433</ele>
        <time>2025-09-08T01:56:18.310Z</time>
      </trkpt>
      <trkpt lat="48.895746" lon="2.265333">
        <ele>32.214367</ele>
        <time>2025-09-08T01:56:36.990Z</time>
      </trkpt>
      <trkpt lat="48.895511" lon="2.265597">
        <ele>31.978420</ele>
        <time>2025-09-08T01:56:47.709Z</time>
      </trkpt>
      <trkpt lat="48.895366" lon="2.265707">
        <ele>31.847555</ele>
        <time>2025-09-08T01:56:53.484Z</time>
      </trkpt>
      <trkpt lat="48.895319" lon="2.265751">
        <ele>31.802983</ele>
        <time>2025-09-08T01:56:55.335Z</time>
      </trkpt>
      <trkpt lat="48.895227" lon="2.265668">
        <ele>31.716593</ele>
        <time>2025-09-08T01:56:58.616Z</time>
      </trkpt>
      <trkpt lat="48.895141" lon="2.265568">
        <ele>31.605259</ele>
        <time>2025-09-08T01:57:01.633Z</time>
      </trkpt>
      <trkpt lat="48.895049" lon="2.265375">
        <ele>31.422655</ele>
        <time>2025-09-08T01:57:05.724Z</time>
      </trkpt>
      <trkpt lat="48.894756" lon="2.264762">
        <ele>30.842129</ele>
        <time>2025-09-08T01:57:16.219Z</time>
      </trkpt>
      <trkpt lat="48.894368" lon="2.264125">
        <ele>30.176971</ele>
        <time>2025-09-08T01:57:27.052Z</time>
      </trkpt>
      <trkpt lat="48.893960" lon="2.263455">
        <ele>29.460489</ele>
        <time>2025-09-08T01:57:38.418Z</time>
      </trkpt>
      <trkpt lat="48.893750" lon="2.263171">
        <ele>29.082743</ele>
        <time>2025-09-08T01:57:43.716Z</time>
      </trkpt>
      <trkpt lat="48.893279" lon="2.262539">
        <ele>28.238422</ele>
        <time>2025-09-08T01:57:55.346Z</time>
      </trkpt>
      <trkpt lat="48.892778" lon="2.262134">
        <ele>27.475729</ele>
        <time>2025-09-08T01:58:07.170Z</time>
      </trkpt>
      <trkpt lat="48.892601" lon="2.262034">
        <ele>27.221908</ele>
        <time>2025-09-08T01:58:11.240Z</time>
      </trkpt>
      <trkpt lat="48.892357" lon="2.262301">
        <ele>27.169724</ele>
        <time>2025-09-08T01:58:17.876Z</time>
      </trkpt>
      <trkpt lat="48.892290" lon="2.262410">
        <ele>27.169724</ele>
        <time>2025-09-08T01:58:20.106Z</time>
      </trkpt>
      <trkpt lat="48.892245" lon="2.262505">
        <ele>27.169724</ele>
        <time>2025-09-08T01:58:21.834Z</time>
      </trkpt>
      <trkpt lat="48.892131" lon="2.262743">
        <ele>27.169724</ele>
        <time>2025-09-08T01:58:26.364Z</time>
      </trkpt>
      <trkpt lat="48.892130" lon="2.262890">
        <ele>27.169724</ele>
        <time>2025-09-08T01:58:28.662Z</time>
      </trkpt>
      <trkpt lat="48.892080" lon="2.262824">
        <ele>27.169724</ele>
        <time>2025-09-08T01:58:30.763Z</time>
      </trkpt>
      <trkpt lat="48.892027" lon="2.262843">
        <ele>27.169724</ele>
        <time>2025-09-08T01:58:34.599Z</time>
      </trkpt>
      <trkpt lat="48.891621" lon="2.262385">
        <ele>27.169724</ele>
        <time>2025-09-08T01:59:09.732Z</time>
      </trkpt>
      <trkpt lat="48.891465" lon="2.261989">
        <ele>27.169724</ele>
        <time>2025-09-08T01:59:30.823Z</time>
      </trkpt>
    </trkseg>
  </trk>
</gpx>